[[{"header":{"parameterUnit":"m.s-1","parameterCategory":1,"la1":30.6,"la2":28.766,"lo1":-90.7593,"lo2":-88.6598,"dy":0.0162,"dx":0.0183,"nx":116,"ny":114,"refTime":"2023-04-29T00:00:00:Z","depth":0,"parameterNumber":2,"parameterNumberName":"U-component_of_WINDS"},"data":[0.0,0.0,0.0,0.0,0.0,0.0,0.0,0.0,0.0,0.0,0.0,0.0,0.0,0.0,0.0,0.0,0.0,0.0,0.0,0.0,0.0,0.0,0.0,0.0,0.0,0.0,0.0,0.0,0.0,0.0,0.0,0.0,0.0,0.0,0.0,0.0,0.0,0.0,0.0,0.0,0.0,0.0,0.0,0.0,0.0,0.0,0.0,0.0,0.0,0.0,0.0,0.0,0.0,0.0,0.0,0.0,0.0,0.0,0.0,0.0,0.0,0.0,0.0,0.0,0.0,0.0,0.0,0.0,0.0,0.0,0.0,0.0,0.0,0.0,0.0,0.0,0.0,0.0,0.0,0.0,0.0,0.0,0.0,0.0,0.0,0.0,0.0,0.0,0.0,0.0,0.0,0.0,0.0,0.0,0.0,0.0,0.0,0.0,0.0,0.0,0.0,0.0,0.0,0.0,0.0,0.0,0.0,0.0,0.0,0.0,0.0,0.0,0.0,0.0,0.0,0.0,0.0,0.0,0.0,0.0,0.0,0.0,0.0,0.0,0.0,0.0,0.0,0.0,0.0,0.0,0.0,0.0,0.0,0.0,0.0,0.0,0.0,0.0,0.0,0.0,0.0,0.0,0.0,0.0,0.0,0.0,0.0,0.0,0.0,0.0,0.0,0.0,0.0,0.0,0.0,0.0,0.0,0.0,0.0,0.0,0.0,0.0,0.0,0.0,0.0,0.0,0.0,0.0,0.0,0.0,0.0,0.0,0.0,0.0,0.0,0.0,0.0,0.0,0.0,0.0,0.0,0.0,0.0,0.0,0.0,0.0,0.0,0.0,0.0,0.0,0.0,0.0,0.0,0.0,0.0,0.0,0.0,0.0,0.0,0.0,0.0,0.0,0.0,0.0,0.0,0.0,0.0,0.0,0.0,0.0,0.0,0.0,0.0,0.0,0.0,0.0,0.0,0.0,0.0,0.0,0.0,0.0,0.0,0.0,0.0,0.0,0.0,0.0,0.0,0.0,0.0,0.0,0.0,0.0,0.0,0.0,0.0,0.0,0.0,0.0,0.0,0.0,0.0,0.0,0.0,0.0,0.0,0.0,0.0,0.0,0.0,0.0,0.0,0.0,0.0,0.0,0.0,0.0,0.0,0.0,0.0,0.0,0.0,0.0,0.0,0.0,0.0,0.0,0.0,0.0,0.0,0.0,0.0,0.0,0.0,0.0,0.0,0.0,0.0,0.0,0.0,0.0,0.0,0.0,0.0,0.0,0.0,0.0,0.0,0.0,0.0,0.0,0.0,0.0,0.0,0.0,0.0,0.0,0.0,0.0,0.0,0.0,0.0,0.0,0.0,0.0,0.0,0.0,0.0,0.0,0.0,0.0,0.0,0.0,0.0,0.0,0.0,0.0,0.0,0.0,0.0,0.0,0.0,0.0,0.0,0.0,0.0,0.0,0.0,0.0,0.0,0.0,0.0,0.0,0.0,0.0,0.0,0.0,0.0,0.0,0.0,0.0,0.0,0.0,0.0,0.0,0.0,0.0,0.0,0.0,0.0,0.0,0.0,0.0,0.0,0.0,0.0,0.0,0.0,0.0,0.0,0.0,0.0,0.0,0.0,0.0,0.0,0.0,0.0,0.0,0.0,0.0,0.0,0.0,0.0,0.0,0.0,0.0,0.0,0.0,0.0,0.0,0.0,0.0,0.0,0.0,0.0,0.0,0.0,0.0,0.0,0.0,0.0,0.0,0.0,0.0,0.0,0.0,0.0,0.0,0.0,0.0,0.0,0.0,0.0,0.0,0.0,0.0,0.0,0.0,0.0,0.0,0.0,0.0,0.0,0.0,0.0,0.0,0.0,0.0,0.0,0.0,0.0,0.0,0.0,0.0,0.0,0.0,0.0,0.0,0.0,0.0,0.0,0.0,0.0,0.0,0.0,0.0,0.0,0.0,0.0,0.0,0.0,0.0,0.0,0.0,0.0,0.0,0.0,0.0,0.0,0.0,0.0,0.0,0.0,0.0,0.0,0.0,0.0,0.0,0.0,0.0,0.0,0.0,0.0,0.0,0.0,0.0,0.0,0.0,0.0,0.0,0.0,0.0,0.0,0.0,0.0,0.0,0.0,0.0,0.0,0.0,0.0,0.0,0.0,0.0,0.0,0.0,0.0,0.0,0.0,0.0,0.0,0.0,0.0,0.0,0.0,0.0,0.0,0.0,0.0,0.0,0.0,0.0,0.0,0.0,0.0,0.0,0.0,0.0,0.0,0.0,0.0,0.0,0.0,0.0,0.0,0.0,0.0,0.0,0.0,0.0,0.0,0.0,0.0,0.0,0.0,0.0,0.0,0.0,0.0,0.0,0.0,0.0,0.0,0.0,0.0,0.0,0.0,0.0,0.0,0.0,0.0,0.0,0.0,0.0,0.0,0.0,0.0,0.0,0.0,0.0,0.0,0.0,0.0,0.0,0.0,0.0,0.0,0.0,0.0,0.0,0.0,0.0,0.0,0.0,0.0,0.0,0.0,0.0,0.0,0.0,0.0,0.0,0.0,0.0,0.0,0.0,0.0,0.0,0.0,0.0,0.0,0.0,0.0,0.0,0.0,0.0,0.0,0.0,0.0,0.0,0.0,0.0,0.0,0.0,0.0,0.0,0.0,0.0,0.0,0.0,0.0,0.0,0.0,0.0,0.0,0.0,0.0,0.0,0.0,0.0,0.0,0.0,0.0,0.0,0.0,0.0,0.0,0.0,0.0,0.0,0.0,0.0,0.0,0.0,0.0,0.0,0.0,0.0,0.0,0.0,0.0,0.0,0.0,0.0,0.0,0.0,0.0,0.0,0.0,0.0,0.0,0.0,0.0,0.0,0.0,0.0,0.0,0.0,0.0,0.0,0.0,0.0,0.0,0.0,0.0,0.0,0.0,0.0,0.0,0.0,0.0,0.0,0.0,0.0,0.0,0.0,0.0,0.0,0.0,0.0,0.0,0.0,0.0,0.0,0.0,0.0,0.0,0.0,0.0,0.0,0.0,0.0,0.0,0.0,0.0,0.0,0.0,0.0,0.0,0.0,0.0,0.0,0.0,0.0,0.0,0.0,0.0,0.0,0.0,0.0,0.0,0.0,0.0,0.0,0.0,0.0,0.0,0.0,0.0,0.0,0.0,0.0,0.0,0.0,0.0,0.0,0.0,0.0,0.0,0.0,0.0,0.0,0.0,0.0,0.0,0.0,0.0,0.0,0.0,0.0,0.0,0.0,0.0,0.0,0.0,0.0,0.0,0.0,0.0,0.0,0.0,0.0,0.0,0.0,0.0,0.0,0.0,0.0,0.0,0.0,0.0,0.0,0.0,0.0,0.0,0.0,0.0,0.0,0.0,0.0,0.0,0.0,0.0,0.0,0.0,0.0,0.0,0.0,0.0,0.0,0.0,0.0,0.0,0.0,0.0,0.0,0.0,0.0,0.0,0.0,0.0,0.0,0.0,0.0,0.0,0.0,0.0,0.0,0.0,0.0,0.0,0.0,0.0,0.0,0.0,0.0,0.0,0.0,0.0,0.0,0.0,0.0,0.0,0.0,0.0,0.0,0.0,0.0,0.0,0.0,0.0,0.0,0.0,0.0,0.0,0.0,0.0,0.0,0.0,0.0,0.0,0.0,0.0,0.0,0.0,0.0,0.0,0.0,0.0,0.0,0.0,0.0,0.0,0.0,0.0,0.0,0.0,0.0,0.0,0.0,0.0,0.0,0.0,0.0,0.0,0.0,0.0,0.0,0.0,0.0,0.0,0.0,0.0,0.0,0.0,0.0,0.0,0.0,0.0,0.0,0.0,0.0,0.0,0.0,0.0,0.0,0.0,0.0,0.0,0.0,0.0,0.0,0.0,0.0,0.0,0.0,0.0,0.0,0.0,0.0,0.0,0.0,0.0,0.0,0.0,0.0,0.0,0.0,0.0,0.0,0.0,0.0,0.0,0.0,0.0,0.0,0.0,0.0,0.0,0.0,0.0,0.0,0.0,0.0,0.0,0.0,0.0,0.0,0.0,0.0,0.0,0.0,0.0,0.0,0.0,0.0,0.0,0.0,0.0,0.0,0.0,0.0,0.0,0.0,0.0,0.0,0.0,0.0,0.0,0.0,0.0,0.0,0.0,0.0,0.0,0.0,0.0,0.0,0.0,0.0,0.0,0.0,0.0,0.0,0.0,0.0,0.0,0.0,0.0,0.0,0.0,0.0,0.0,0.0,0.0,0.0,0.0,0.0,0.0,0.0,0.0,0.0,0.0,0.0,0.0,0.0,0.0,0.0,0.0,0.0,0.0,0.0,0.0,0.0,0.0,0.0,0.0,0.0,0.0,0.0,0.0,0.0,0.0,0.0,0.0,0.0,0.0,0.0,0.0,0.0,0.0,0.0,0.0,0.0,0.0,0.0,0.0,0.0,0.0,0.0,0.0,0.0,0.0,0.0,0.0,0.0,0.0,0.0,0.0,0.0,0.0,0.0,0.0,0.0,0.0,0.0,0.0,0.0,0.0,0.0,0.0,0.0,0.0,0.0,0.0,0.0,0.0,0.0,0.0,0.0,0.0,0.0,0.0,0.0,0.0,0.0,0.0,0.0,0.0,0.0,0.0,0.0,0.0,0.0,0.0,0.0,0.0,0.0,0.0,0.0,0.0,0.0,0.0,0.0,0.0,0.0,0.0,0.0,0.0,0.0,0.0,0.0,0.0,0.0,0.0,0.0,0.0,0.0,0.0,0.0,0.0,0.0,0.0,0.0,0.0,0.0,0.0,0.0,0.0,0.0,0.0,0.0,0.0,0.0,0.0,0.0,0.0,0.0,0.0,0.0,0.0,0.0,0.0,0.0,0.0,0.0,0.0,0.0,0.0,0.0,0.0,0.0,0.0,0.0,0.0,0.0,0.0,0.0,0.0,0.0,0.0,0.0,0.0,0.0,0.0,0.0,0.0,0.0,0.0,0.0,0.0,0.0,0.0,0.0,0.0,0.0,0.0,0.0,0.0,0.0,0.0,0.0,0.0,0.0,0.0,0.0,0.0,0.0,0.0,0.0,0.0,0.0,0.0,0.0,0.0,0.0,0.0,0.0,0.0,0.0,0.0,0.0,0.0,0.0,0.0,0.0,0.0,0.0,0.0,0.0,0.0,0.0,0.0,0.0,0.0,0.0,0.0,0.0,0.0,0.0,0.0,0.0,0.0,0.0,0.0,0.0,0.0,0.0,0.0,0.0,0.0,0.0,0.0,0.0,0.0,0.0,0.0,0.0,0.0,0.0,0.0,0.0,0.0,0.0,0.0,0.0,0.0,0.0,0.0,0.0,0.0,0.0,0.0,0.0,0.0,0.0,0.0,0.0,0.0,0.0,0.0,0.0,0.0,0.0,0.0,0.0,0.0,0.0,0.0,0.0,0.0,0.0,0.0,0.0,0.0,0.0,0.0,0.0,0.0,0.0,0.0,0.0,0.0,0.0,0.0,0.0,0.0,0.0,0.0,0.0,0.0,0.0,0.0,0.0,0.0,0.0,0.0,0.0,0.0,0.0,0.0,0.0,0.0,0.0,0.0,0.0,0.0,0.0,0.0,0.0,0.0,0.0,0.0,0.0,0.0,0.0,0.0,0.0,0.0,0.0,0.0,0.0,0.0,0.0,0.0,0.0,0.0,0.0,0.0,0.0,0.0,0.0,0.0,0.0,0.0,0.0,0.0,0.0,0.0,0.0,0.0,0.0,0.0,0.0,0.0,0.0,0.0,0.0,0.0,0.0,0.0,0.0,0.0,0.0,0.0,0.0,0.0,0.0,0.0,0.0,0.0,0.0,0.0,0.0,0.0,0.0,0.0,0.0,0.0,0.0,0.0,0.0,0.0,0.0,0.0,0.0,0.0,0.0,0.0,0.0,0.0,0.0,0.0,0.0,0.0,0.0,0.0,0.0,0.0,0.0,0.0,0.0,0.0,0.0,0.0,0.0,0.0,0.0,0.0,0.0,0.0,0.0,0.0,0.0,0.0,0.0,0.0,0.0,0.0,0.0,0.0,0.0,0.0,0.0,0.0,0.0,0.0,0.0,0.0,0.0,0.0,0.0,0.0,0.0,0.0,0.0,0.0,0.0,-1.6632,0.0,0.0,0.0,0.0,0.0,0.0,0.0,0.0,0.0,0.0,0.0,0.0,0.0,0.0,0.0,0.0,0.0,0.0,0.0,0.0,0.0,0.0,0.0,0.0,0.0,0.0,0.0,0.0,0.0,0.0,0.0,0.0,0.0,0.0,0.0,0.0,0.0,0.0,0.0,-1.3718,-1.4352,-1.5184,-1.6863,-1.761,-1.7533,0.0,0.0,0.0,0.0,0.0,0.0,0.0,0.0,0.0,0.0,0.0,0.0,0.0,0.0,0.0,0.0,0.0,0.0,0.0,0.0,0.0,0.0,0.0,0.0,0.0,0.0,0.0,0.0,0.0,0.0,0.0,0.0,0.0,0.0,0.0,0.0,0.0,0.0,0.0,0.0,0.0,0.0,0.0,0.0,0.0,0.0,0.0,0.0,0.0,0.0,0.0,0.0,0.0,0.0,0.0,0.0,0.0,0.0,0.0,0.0,0.0,0.0,0.0,0.0,0.0,0.0,0.0,0.0,0.0,0.0,0.0,-1.7149,0.0,0.0,0.0,0.0,0.0,0.0,0.0,0.0,0.0,0.0,0.0,0.0,0.0,0.0,0.0,0.0,0.0,0.0,0.0,0.0,0.0,0.0,0.0,0.0,0.0,0.0,0.0,0.0,0.0,0.0,0.0,0.0,0.0,0.0,0.0,-1.3874,-1.4302,-1.4898,-1.4863,-1.5959,-1.8079,-1.9675,-1.9527,-1.796,-1.9667,0.0,0.0,0.0,0.0,0.0,0.0,0.0,0.0,0.0,0.0,0.0,0.0,0.0,0.0,0.0,0.0,0.0,0.0,0.0,0.0,0.0,0.0,0.0,0.0,0.0,0.0,0.0,0.0,0.0,0.0,0.0,0.0,0.0,0.0,0.0,0.0,0.0,0.0,0.0,0.0,0.0,0.0,0.0,0.0,0.0,0.0,0.0,0.0,0.0,0.0,0.0,0.0,0.0,0.0,0.0,0.0,0.0,0.0,0.0,0.0,0.0,0.0,0.0,-2.2293,-2.2504,-2.2389,-2.3109,-2.2293,-2.0215,-1.8773,-1.7273,-1.5945,-1.7042,0.0,0.0,0.0,0.0,0.0,0.0,0.0,0.0,0.0,0.0,0.0,0.0,0.0,0.0,0.0,0.0,0.0,0.0,0.0,0.0,0.0,-1.365,-1.4273,-1.5733,-1.5543,-1.5712,0.0,0.0,0.0,0.0,0.0,0.0,-1.4626,-1.5806,-1.6189,-1.5647,-1.6882,-1.799,-1.8953,-2.1098,-2.2117,-2.2139,-2.1295,-2.1663,-2.2838,0.0,0.0,0.0,0.0,0.0,0.0,0.0,0.0,0.0,0.0,0.0,0.0,0.0,0.0,0.0,0.0,0.0,0.0,0.0,0.0,0.0,0.0,0.0,0.0,0.0,0.0,0.0,0.0,0.0,0.0,0.0,0.0,0.0,0.0,0.0,0.0,0.0,0.0,0.0,0.0,0.0,-2.1835,-2.1859,0.0,0.0,0.0,0.0,0.0,0.0,0.0,0.0,0.0,0.0,0.0,0.0,0.0,-2.3666,-2.3435,-2.3561,-2.3283,-2.262,-2.1985,-2.1312,-2.0639,-2.0754,-2.0619,-2.0292,-2.0062,0.0,-1.8395,-1.7164,0.0,0.0,0.0,0.0,0.0,0.0,0.0,0.0,0.0,0.0,0.0,0.0,0.0,0.0,0.0,0.0,0.0,0.0,0.0,0.0,0.0,-1.66,-1.7039,-1.7708,-1.7642,-1.75,-1.7319,0.0,0.0,0.0,0.0,-1.6677,-1.7308,-1.7202,-1.7368,-1.789,-1.9739,-2.1075,-2.1898,-2.3457,-2.4512,-2.5059,-2.448,-2.4083,-2.3818,-2.2363,0.0,0.0,0.0,0.0,0.0,0.0,0.0,0.0,0.0,0.0,0.0,0.0,0.0,0.0,0.0,0.0,0.0,0.0,0.0,0.0,0.0,0.0,0.0,0.0,0.0,0.0,0.0,0.0,0.0,0.0,0.0,0.0,0.0,0.0,0.0,0.0,0.0,0.0,0.0,-2.3432,-2.3513,-2.2507,-2.3941,-2.4986,0.0,0.0,0.0,0.0,0.0,0.0,0.0,0.0,0.0,-2.4855,-2.5264,-2.5043,-2.411,-2.4543,-2.4832,-2.4928,-2.4543,-2.4178,-2.3851,-2.3851,-2.3581,-2.3072,-2.262,-2.2224,-2.1724,-2.0023,-2.0465,-2.2158,0.0,0.0,0.0,0.0,-2.1812,-2.2183,0.0,0.0,0.0,0.0,0.0,0.0,0.0,0.0,0.0,0.0,0.0,0.0,-1.8701,-1.8833,-1.9077,-1.9653,-1.9589,-1.9201,-1.8552,-1.8626,0.0,0.0,-1.7976,-1.8441,-1.9724,-1.8956,-1.9287,-2.0749,-2.2765,-2.4138,-2.4882,-2.6265,-2.7197,-2.7726,-2.7726,-2.701,-2.5695,-2.3777,-2.3268,-2.3606,0.0,0.0,0.0,0.0,0.0,0.0,0.0,0.0,0.0,0.0,0.0,0.0,0.0,0.0,0.0,0.0,0.0,0.0,0.0,0.0,0.0,0.0,0.0,0.0,0.0,0.0,0.0,0.0,0.0,0.0,0.0,0.0,0.0,0.0,0.0,0.0,0.0,-2.4093,-2.4321,-2.2731,-2.4478,-2.568,0.0,0.0,0.0,0.0,0.0,0.0,-2.789,-2.8313,-2.8044,-2.6956,-2.7351,-2.6967,-2.5717,-2.6313,-2.6832,-2.7236,-2.7236,-2.7121,-2.6928,-2.6697,-2.6255,-2.5591,-2.4755,-2.4409,-2.4255,-2.2293,-2.2158,-2.3052,-2.2177,-2.2889,-2.4216,-2.2716,-2.2581,-2.3099,0.0,0.0,0.0,0.0,0.0,0.0,0.0,0.0,0.0,0.0,0.0,-1.7963,-1.9738,-1.8955,-1.9311,-2.1733,-2.1233,-2.111,-2.1803,-2.1163,-2.0778,-2.0806,-2.0806,-2.0823,-2.0901,-2.1612,-2.2668,-2.4151,-2.578,-2.6778,-2.7165,-2.9399,-3.0456,-3.0491,-3.0491,-3.0058,-2.914,-2.6147,-2.5516,-2.6294,-2.4032,0.0,0.0,0.0,0.0,0.0,0.0,0.0,0.0,0.0,0.0,0.0,0.0,0.0,0.0,0.0,0.0,0.0,0.0,0.0,0.0,0.0,0.0,0.0,0.0,0.0,0.0,0.0,0.0,0.0,0.0,0.0,0.0,0.0,0.0,0.0,0.0,0.0,0.0,-2.1694,-2.4579,0.0,0.0,0.0,0.0,-2.8912,-2.9729,-3.0564,-3.141,-3.0698,-3.0621,-3.1352,-3.0621,-3.0167,-3.0071,-3.011,-2.9756,-2.8967,-2.8967,-2.8563,-2.7813,-2.6986,-2.6582,-2.6486,-2.562,-2.5245,-2.5053,-2.2524,-2.2504,-2.3956,-2.309,-2.3755,-2.5139,-2.4274,-2.3995,-2.3936,0.0,0.0,0.0,0.0,0.0,0.0,0.0,0.0,0.0,-1.9109,-1.9721,-2.0668,-2.226,-2.2321,-2.2491,-2.3135,-2.2709,-2.2096,-2.1434,-2.1072,-2.1013,-2.1251,-2.1075,-2.1224,-2.1761,-2.341,-2.494,-2.6333,-2.7345,-2.8694,-3.0345,-3.1409,-3.2191,-3.2633,-3.316,-3.3402,-3.3169,-2.8829,-2.6721,-2.6157,-2.432,-2.3382,0.0,0.0,0.0,0.0,0.0,0.0,0.0,0.0,0.0,0.0,0.0,0.0,0.0,0.0,0.0,0.0,0.0,0.0,0.0,0.0,0.0,0.0,0.0,0.0,0.0,0.0,0.0,0.0,0.0,0.0,0.0,0.0,0.0,0.0,0.0,0.0,0.0,-2.715,-2.8807,0.0,-3.016,-3.1022,-3.1573,-3.1545,-3.2352,-3.2987,-3.3295,-3.3006,-3.3237,-3.4122,-3.2756,-3.2275,-3.2833,-3.2295,-3.1583,-3.0775,-3.1295,-3.0544,-2.8679,-2.8929,-2.8467,-2.7409,-2.7101,-2.6967,-2.6862,-2.5434,-2.4866,-2.4793,-2.3947,-2.4312,-2.5187,-2.4399,-2.4428,-2.4851,0.0,0.0,0.0,0.0,0.0,0.0,0.0,0.0,0.0,-2.0023,-2.0854,-2.1985,-2.3587,-2.3799,-2.3979,-2.4317,-2.3855,-2.3117,-2.2154,-2.179,-2.1832,-2.2316,-2.2433,-2.2878,-2.3671,-2.5604,-2.7171,-2.833,-2.9602,-3.0976,-3.2426,-3.3225,-3.388,-3.4347,-3.4898,-3.54,-3.5654,-3.2586,-2.9944,-2.7736,-2.5885,-2.5281,-2.5296,0.0,0.0,0.0,0.0,0.0,0.0,0.0,0.0,0.0,0.0,0.0,0.0,0.0,0.0,0.0,0.0,0.0,0.0,0.0,0.0,0.0,0.0,0.0,0.0,0.0,0.0,0.0,0.0,0.0,0.0,0.0,0.0,0.0,0.0,0.0,-3.0151,-3.1518,-3.2699,-3.3487,-3.3757,-3.4545,-3.493,-3.4641,-3.568,-3.6315,-3.6315,-3.6065,-3.618,-3.6757,-3.5372,-3.4891,-3.5468,-3.4622,-3.3776,-3.2987,-3.3218,-3.2295,-3.039,-3.0698,-3.0083,-2.8736,-2.8462,-2.8174,-2.7894,-2.7377,-2.6803,-2.6122,-2.499,-2.505,-2.5677,-2.4812,-2.5024,-2.5717,0.0,0.0,0.0,0.0,0.0,0.0,0.0,-1.9967,-2.096,-2.0511,-2.0868,-2.1813,-2.3566,-2.32,-2.352,-2.5273,-2.4649,-2.4171,-2.419,-2.3419,-2.3345,-2.419,-2.5017,-2.5823,-2.6667,-2.8223,-2.9475,-3.032,-3.2651,-3.3643,-3.3322,-3.4925,-3.5648,-3.5648,-3.5702,-3.5994,-3.645,-3.7221,-3.5303,-3.1439,-2.898,-2.8411,-2.8796,0.0,0.0,0.0,0.0,0.0,0.0,0.0,0.0,0.0,0.0,0.0,0.0,0.0,0.0,0.0,0.0,0.0,0.0,0.0,0.0,0.0,0.0,0.0,0.0,0.0,0.0,0.0,0.0,0.0,0.0,0.0,0.0,0.0,-2.94,-3.1493,-3.3378,-3.4302,-3.5867,-3.6565,-3.5815,-3.7969,-3.9065,-3.8219,-3.9662,-4.0566,-4.0527,-3.9777,-3.9335,-3.9335,-3.8469,-3.8007,-3.8046,-3.718,-3.6353,-3.5545,-3.4718,-3.3833,-3.291,-3.216,-3.1333,-3.0441,-2.966,-2.8869,-2.8121,-2.8163,-2.8179,-2.7955,-2.6152,-2.5967,-2.6591,-2.5649,-2.5861,-2.6516,0.0,0.0,0.0,0.0,0.0,0.0,0.0,-2.0984,-2.1581,-2.1882,-2.3247,-2.4381,-2.4878,-2.5283,-2.5745,-2.6227,-2.4465,-2.3584,-2.4153,-2.2887,-2.2997,-2.498,-2.5841,-2.6924,-2.8297,-2.9365,-3.0852,-3.2816,-3.3476,-3.4358,-3.5462,-3.6486,-3.6991,-3.7046,-3.8186,-3.8779,-3.8909,-3.9148,-3.8579,-3.7239,-3.3605,-3.1237,-2.9732,0.0,0.0,0.0,0.0,0.0,0.0,0.0,0.0,0.0,0.0,0.0,0.0,0.0,0.0,0.0,0.0,0.0,0.0,0.0,0.0,0.0,0.0,0.0,0.0,0.0,0.0,0.0,0.0,0.0,0.0,0.0,0.0,-3.4612,-3.3301,-3.4743,-3.6717,-3.8808,-3.9943,-4.0694,-4.1061,-4.1658,-4.195,-4.172,-4.2124,-4.2104,-4.1489,-4.0623,-4.0162,-4.0162,-3.8757,-3.8296,-3.8931,-3.8084,-3.7219,-3.6372,-3.6776,-3.5853,-3.3866,-3.4322,-3.3721,-3.2348,-3.2178,-3.1618,-3.0782,-3.0213,-2.9647,-2.8938,-2.7114,-2.6557,-2.6648,-2.577,-2.6032,-2.6879,0.0,0.0,0.0,0.0,0.0,0.0,0.0,-2.1971,-2.2362,-2.2044,-2.3686,-2.4759,-2.4428,-2.5107,-2.5456,-2.5126,-2.4116,-2.3419,-2.3199,-2.3343,-2.4227,-2.5986,-2.7269,-2.881,-3.0641,-3.1473,-3.2859,-3.4853,-3.5183,-3.5844,-3.6817,-3.7955,-3.8505,-3.8542,-3.9845,-4.0396,-4.0414,-4.0763,-4.0708,-4.0212,-3.8175,-3.6119,-3.4064,-3.2228,-3.1953,-3.2265,-2.9953,-3.0099,-3.1011,-2.857,0.0,0.0,0.0,0.0,0.0,0.0,0.0,0.0,0.0,0.0,0.0,0.0,0.0,0.0,0.0,0.0,0.0,0.0,0.0,0.0,0.0,0.0,0.0,0.0,-3.6222,-3.8348,-3.8391,-3.8853,-4.002,-4.2233,-4.2859,-4.3283,-4.3698,-4.4037,-4.4048,-4.3624,-4.3932,-4.3778,-4.2893,-4.2374,-4.1758,-4.1066,-4.014,-3.9739,-3.9888,-3.9076,-3.8415,-3.7931,-3.8067,-3.7351,-3.594,-3.6473,-3.5821,0.0,-3.4294,-3.3639,-3.2435,-3.166,-3.1046,0.0,0.0,0.0,0.0,0.0,-2.695,-2.7459,0.0,0.0,0.0,0.0,0.0,0.0,0.0,-2.2878,-2.3097,-2.1438,-2.2957,-2.3823,-2.2832,-2.3437,-2.3712,-2.318,-2.3548,-2.3327,-2.2219,-2.4497,-2.6314,-2.7267,-2.917,-3.113,-3.3082,-3.4013,-3.5125,-3.6431,-3.7221,-3.7661,-3.7819,-3.9313,-4.0029,-4.0065,-4.0891,-4.1258,-4.1295,-4.2194,-4.2121,-4.1442,-4.2249,-4.1497,-3.957,-3.667,-3.6431,-3.7221,-3.4137,-3.275,-3.2262,-3.1365,0.0,0.0,0.0,0.0,0.0,0.0,0.0,0.0,0.0,0.0,0.0,0.0,0.0,0.0,0.0,0.0,0.0,0.0,0.0,0.0,0.0,0.0,0.0,0.0,-3.9277,-4.1308,-4.3652,-4.317,-4.315,-4.4701,-4.4861,-4.482,-4.4688,-4.5382,-4.544,-4.455,-4.5208,-4.5266,-4.4399,0.0,0.0,0.0,0.0,-4.1792,-4.1017,-4.0352,-3.9979,-3.9875,-3.9103,-3.8624,-3.8449,-3.8455,-3.7585,-3.6092,-3.6165,-3.523,-3.3556,-3.2909,-3.2461,-3.1933,-2.9366,-2.8769,-2.9272,-2.8548,-2.831,-2.8264,0.0,0.0,0.0,0.0,0.0,0.0,0.0,-2.3348,-2.296,-2.0931,-2.2722,-2.3382,-2.1218,-2.1749,-2.2721,-2.3878,-2.2432,-2.2245,-2.411,-2.5963,-2.7676,-2.9202,-3.1522,-3.3164,-3.3939,-3.5448,-3.656,-3.7257,-3.8065,-3.8799,-3.9441,-4.0414,-4.0873,-4.091,-4.1717,-4.2066,-4.2158,-4.3626,-4.3773,-4.3112,-4.392,-4.2488,-3.9827,-3.9184,-3.8744,-3.8212,-3.6285,-3.6869,-3.8096,-3.4977,-3.4678,-3.5192,-3.2632,-3.0254,0.0,0.0,0.0,0.0,0.0,0.0,0.0,0.0,0.0,0.0,0.0,0.0,0.0,0.0,0.0,0.0,0.0,0.0,0.0,-4.0117,-4.2441,-4.4433,-4.5625,-4.5623,-4.56,-4.5952,-4.5906,-4.5816,-4.5799,-4.5846,-4.5794,-4.5618,-4.5744,-4.5502,-4.4666,-4.4628,-4.4142,-4.3122,-4.3121,-4.3061,-4.2886,-4.2735,-4.2315,-4.1607,0.0,0.0,-3.9349,-3.9399,-3.8877,-3.7905,-3.8039,-3.7088,-3.5468,-3.5312,-3.4043,-3.2012,-3.0078,-2.9003,-2.8593,-2.9118,-2.9314,-2.9413,0.0,0.0,0.0,0.0,0.0,0.0,0.0,-2.3628,-2.3412,-2.1934,-2.318,-2.3566,-2.1915,-2.2219,-2.271,-2.308,-2.2152,-2.2825,-2.5853,-2.7698,-2.9654,-3.1746,-3.3941,-3.5457,-3.6227,-3.7071,-3.7888,-3.8689,-3.9093,-3.9717,-4.0524,-4.1332,-4.1699,-4.1754,-4.2543,-4.3112,-4.3552,-4.436,-4.4709,-4.4727,-4.5149,-4.4342,-4.28,-4.2011,-4.1442,-4.0891,-3.9276,-3.939,-3.9983,-3.7863,-3.7234,-3.7129,-3.5863,-3.3607,-3.1109,0.0,0.0,0.0,0.0,0.0,0.0,0.0,0.0,0.0,0.0,0.0,0.0,0.0,0.0,-3.6227,-3.7148,0.0,-4.1719,-4.3476,-4.5195,-4.6445,-4.6894,-4.6953,-4.6797,-4.6348,-4.6246,-4.6173,-4.6113,-4.6039,-4.5974,-4.5907,-4.5899,-4.5724,-4.5324,-4.5304,-4.4915,-4.4086,-4.4091,-4.3916,-4.3493,-4.3524,-4.3322,-4.2893,-4.2893,-4.2229,-4.1,-4.1038,-4.0361,-3.9153,-3.9218,-3.8262,-3.6582,-3.5703,-3.4336,-3.2715,-3.1836,-3.0723,-2.9609,-2.9609,-3.0156,-3.0898,0.0,0.0,0.0,0.0,0.0,0.0,0.0,0.0,-2.3784,-2.2868,-2.3474,-2.3602,-2.2612,-2.2656,-2.2576,-2.2106,-2.2531,-2.4187,-2.7373,-2.9365,-3.1499,-3.3922,-3.6013,-3.7524,-3.8446,-3.8592,-3.916,-4.012,-4.0286,-4.0708,-4.1368,-4.2158,-4.2525,-4.2561,-4.3204,-4.3956,-4.4727,-4.4874,-4.5314,-4.5902,-4.6067,-4.6049,-4.5736,-4.4287,-4.3718,-4.3497,-4.1735,-4.0554,-3.9778,-3.9462,-3.8329,-3.7167,-3.7801,-3.6324,-3.3865,-3.1374,-3.0401,0.0,0.0,0.0,0.0,0.0,0.0,0.0,0.0,-3.437,-3.5254,-3.6445,-3.8516,-4.0527,-4.1933,-4.3437,-4.4961,-4.6543,-4.7383,-4.7793,-4.7617,-4.7598,-4.7285,-4.6406,-4.6308,-4.6268,-4.6147,-4.6144,-4.6089,-4.5988,-4.5981,-4.5981,-4.5981,-4.5981,-4.567,-4.5033,-4.5065,-4.4777,-4.4136,-4.4177,-4.4121,-4.3945,-4.3789,-4.3242,-4.2383,-4.2246,-4.1426,-4.0137,-3.9961,-3.9101,-3.7676,-3.5918,-3.4687,-3.3887,-3.3711,-3.2715,-3.1309,-3.0605,-3.123,-3.2324,0.0,0.0,0.0,0.0,0.0,0.0,0.0,0.0,0.0,-2.2098,-2.263,-2.252,-2.0943,-2.0811,-2.1204,-2.2173,-2.3758,-2.578,-2.8365,-3.042,-3.2412,-3.4431,-3.711,-3.8698,-3.9005,-3.9722,-4.0381,-4.0983,-4.168,-4.2084,-4.2176,-4.2983,-4.3369,-4.3369,-4.3442,-4.3956,-4.4764,-4.5461,-4.581,-4.5957,-4.6691,-4.6544,-4.5792,-4.4911,-4.458,-4.4268,-4.1937,-3.9834,-3.8201,-3.8367,-3.7562,-3.6659,-3.7694,-3.7243,-3.5883,-3.3327,-3.0994,-2.9159,-2.8744,-2.9543,-3.1399,-3.5185,-3.4709,-3.5248,0.0,-4.2275,-4.0996,-4.3359,-4.4707,-4.5508,-4.5683,-4.6523,-4.748,-4.8457,-4.8691,-4.8476,-4.7715,-4.7598,-4.7285,-4.6406,-4.6308,-4.6289,-4.6289,-4.6289,-4.6268,-4.6268,-4.6268,-4.6268,-4.6268,-4.6268,-4.6209,-4.6111,-4.6132,-4.6093,-4.5996,-4.6015,-4.5625,-4.4844,-4.4062,-4.3242,-4.2383,-4.166,-4.123,-4.1016,-4.0234,-3.9785,-3.9473,-3.7734,-3.6504,-3.5625,-3.4863,-3.3965,-3.3105,-3.3008,-3.3105,-3.3242,0.0,0.0,0.0,0.0,0.0,0.0,0.0,0.0,0.0,0.0,-2.3492,-2.3437,-2.274,-2.2868,-2.3239,-2.3815,-2.4675,-2.619,-2.8593,-3.0897,-3.3111,-3.526,-3.7858,-3.9421,-3.9798,-4.0133,-4.0767,-4.1809,-4.2139,-4.2543,-4.3002,-4.3332,-4.3497,-4.3516,-4.3993,-4.4654,-4.5461,-4.6269,-4.6874,-4.7333,-4.7664,-4.7333,-4.6471,-4.5186,-4.3851,-4.2302,-3.9873,-3.7923,0.0,-3.6268,-3.5989,-3.5982,-3.7502,-3.6738,-3.493,-3.3353,-3.2141,-3.1641,-3.3122,-3.418,-3.543,-3.782,-3.9461,-4.1226,-4.3953,-4.5082,-4.5746,-4.6386,-4.7988,-4.9121,-4.8652,-4.8867,-4.9238,-4.9609,-4.9668,-4.9355,-4.8476,-4.8359,-4.8027,-4.7168,-4.6601,-4.6308,-4.6308,-4.6308,-4.6308,-4.6308,-4.6308,-4.6308,-4.6308,-4.6308,-4.6308,-4.6308,-4.6308,-4.6308,-4.6308,-4.6308,-4.6113,-4.5742,-4.5391,-4.4766,-4.3906,-4.3555,-4.3125,-4.2578,-4.123,-4.0664,-4.0527,-3.8789,-3.7832,-3.748,-3.7109,-3.6758,-3.6172,-3.4141,-3.3711,-3.416,0.0,0.0,0.0,0.0,0.0,0.0,0.0,0.0,0.0,0.0,0.0,-2.419,-2.419,-2.4512,-2.4785,-2.4924,-2.5118,-2.6117,-2.8303,-3.0346,-3.2555,-3.4967,-3.7243,-3.8989,-4.0158,-4.0418,-4.1213,-4.2635,-4.2635,-4.2928,-4.3497,-4.3497,-4.3497,-4.3534,-4.4342,-4.5149,-4.5938,-4.6526,-4.7241,-4.7957,-4.7737,-4.7168,-4.6232,-4.44,-4.2066,-3.9527,-3.7503,-3.5633,-3.3948,-3.3421,-3.326,-3.362,-3.55,-3.499,-3.359,-3.2999,-3.3038,-3.3603,-3.5218,-3.6988,-3.8748,-4.0351,-4.3432,-4.5977,-4.5675,-4.756,-4.9254,-4.8749,-4.9941,-5.0898,-5.0312,-5.0,-4.9922,-5.0156,-5.0195,-4.9902,-4.9023,-4.8906,-4.8496,-4.7363,-4.668,-4.6308,-4.6308,-4.6308,-4.6308,-4.6308,-4.6308,-4.6308,-4.6308,-4.6308,-4.6308,-4.6308,-4.6308,-4.6308,-4.6308,-4.6308,-4.6308,-4.6308,-4.6055,-4.5605,-4.498,-4.4746,-4.4297,-4.3633,-4.2422,-4.1894,-4.1777,-4.0273,-3.9512,-3.9297,-3.9043,-3.8809,-3.8281,-3.5762,-3.5234,-3.5742,0.0,0.0,0.0,0.0,0.0,0.0,0.0,0.0,0.0,0.0,0.0,0.0,0.0,-2.4393,-2.4591,-2.479,-2.4943,-2.573,-2.7442,-2.8393,-3.0135,-3.2883,-3.4665,-3.6957,-3.984,-4.0671,-4.1846,-4.3442,-4.3442,-4.3461,-4.3497,-4.3497,-4.3497,-4.3534,-4.4342,-4.5149,-4.5902,-4.592,-4.6416,-4.7076,-4.6287,-4.5498,-4.4508,-4.2122,-3.9222,-3.6322,-3.5389,-3.3028,-3.0276,-2.9746,-2.9101,-2.8838,-3.0724,-3.1834,-3.2476,-3.2581,-3.3341,-3.3987,-3.3218,-3.6065,-4.0046,-4.3316,-4.5576,-4.7656,-5.0266,-5.0996,-5.1152,-5.1268,-5.0723,-5.0234,-5.0195,-4.9512,-4.9219,-5.0058,-5.0195,-4.9902,-4.9023,-4.8906,-4.8262,-4.6543,-4.6328,-4.6308,0.0,-4.6308,-4.6308,-4.6308,-4.6308,-4.6308,-4.6308,-4.6308,-4.6308,-4.6308,-4.6308,-4.6308,-4.6308,-4.6308,-4.6308,-4.6289,-4.5449,-4.5039,-4.4961,-4.4121,-4.373,-4.3691,-4.3652,-4.3613,-4.3555,-4.2656,-4.1816,-4.1035,-4.0195,-3.9336,-3.8594,-3.8476,-3.8457,-3.8359,0.0,0.0,0.0,0.0,0.0,0.0,0.0,0.0,0.0,0.0,0.0,0.0,0.0,0.0,0.0,0.0,-2.4911,-2.5463,-2.6567,-2.782,-2.9136,-3.0445,-3.2477,-3.4547,-3.6615,-3.7477,-3.8964,-4.1111,-4.1111,-4.1644,-4.269,-4.269,-4.2983,-4.3534,-4.4342,-4.4856,-4.5132,-4.5682,-4.5755,-4.5458,-4.4612,-4.3511,-4.2051,-3.9626,-3.6692,-3.3597,0.0,-2.9643,-2.7728,-2.7139,-2.6784,-2.6834,-2.832,-2.8579,-2.8722,-3.0586,-3.3006,-3.5622,-3.8123,-4.1085,-4.4297,-4.7702,-4.9835,-5.1247,-5.1769,-5.2806,-5.3058,-5.1032,-4.9922,-4.8984,-4.7832,-4.7363,-4.7461,-4.832,-4.9883,-5.0703,-4.9883,-5.0215,-4.9707,-4.7422,-4.7168,0.0,0.0,0.0,0.0,-4.6308,-4.6836,-4.7168,-4.7168,-4.7168,-4.7168,-4.7168,-4.6601,-4.6308,-4.6308,-4.6308,-4.6308,-4.6308,-4.5996,-4.5859,-4.5859,-4.5566,-4.543,-4.5391,-4.4805,-4.4551,-4.4492,-4.3613,-4.3105,-4.2773,-4.1894,-4.1738,-4.1914,-4.1328,-4.1113,-4.084,0.0,0.0,0.0,0.0,0.0,0.0,0.0,0.0,0.0,0.0,0.0,0.0,0.0,0.0,0.0,0.0,0.0,-2.5209,-2.5829,-2.666,-2.7554,-2.8521,-3.0043,-3.1765,-3.3666,-3.4559,-3.5891,-3.7716,-3.7716,-3.8395,-3.9698,-3.9698,-4.0139,-4.0965,-4.2066,-4.2763,-4.3146,-4.3261,-4.3041,-4.2417,-4.1043,-3.9502,-3.784,-3.569,-3.3221,0.0,-2.8479,-2.6852,-2.5693,-2.5282,-2.5356,-2.58,-2.7009,-2.8132,-2.9363,-3.1136,-3.4543,-3.8469,-4.1797,-4.4778,-4.7702,-5.0818,-5.2645,-5.3475,-5.2848,-5.3355,-5.3058,-4.9856,-4.8274,-4.6932,-4.5195,-4.4628,-4.49,-4.6386,-4.8027,-4.9375,-5.0098,-5.0371,-5.0019,-4.8691,-4.8242,-4.7832,0.0,0.0,0.0,-4.6348,-4.7402,-4.793,-4.7617,-4.7891,-4.8066,-4.8066,-4.7519,-4.7226,-4.7226,-4.7226,-4.707,-4.6758,-4.6445,-4.6308,-4.6308,-4.6308,-4.6308,-4.6269,-4.5703,-4.5469,-4.543,-4.4863,-4.4453,-4.4101,-4.3555,-4.3476,-4.3594,-4.2715,-4.2598,-4.2539,0.0,0.0,0.0,0.0,0.0,0.0,0.0,0.0,0.0,0.0,0.0,0.0,0.0,0.0,0.0,0.0,0.0,0.0,-2.5253,-2.4972,-2.547,-2.699,-2.7473,-2.8773,-3.109,-3.1949,-3.2787,-3.3742,-3.3642,-3.4009,-3.4715,-3.4825,-3.5349,-3.6229,-3.7771,-3.9081,-4.0068,-3.8934,-3.8418,-3.8154,-3.5776,-3.3876,-3.2313,-3.0685,-2.9094,-2.7526,-2.5972,-2.4873,-2.4208,-2.4245,-2.4888,-2.5869,-2.6953,-3.04,-3.4056,-3.4205,-3.7916,-4.2393,-4.4198,-4.7105,-5.026,-5.276,-5.3953,-5.4283,-5.3498,-5.2686,-5.1181,-4.7937,-4.586,-4.412,-4.2401,-4.1492,-4.1833,-4.4413,-4.5078,-4.6445,-4.9844,-4.9648,-4.9453,-5.0234,-4.9609,-4.9082,-4.9023,0.0,0.0,-4.6699,0.0,-4.8672,-4.7832,-4.8574,-4.9004,-4.8965,-4.8926,-4.8906,-4.8906,-4.8906,-4.8457,-4.7598,-4.6758,-4.6348,-4.6308,-4.6308,-4.6308,-4.6308,-4.6308,-4.6308,-4.6308,-4.6308,-4.5801,-4.5058,-4.5019,-4.4512,-4.373,-4.2851,-4.3066,-4.3535,0.0,0.0,0.0,0.0,0.0,0.0,0.0,0.0,0.0,0.0,0.0,0.0,0.0,0.0,0.0,0.0,0.0,0.0,-2.4898,-2.4714,-2.4757,-2.5171,-2.5727,-2.6587,-2.7797,-2.8599,-3.0207,-3.2625,-3.1599,-3.091,-3.0576,-3.2381,-3.366,-3.4468,-3.4871,-3.6104,-3.7794,-3.5855,-3.4577,-3.3769,-3.2723,-3.171,-3.064,-2.9009,-2.7789,-2.6765,-2.5757,-2.4873,-2.4301,-2.4892,-2.7096,-2.9748,-3.0826,-3.3382,-3.6358,-3.8262,-4.1566,-4.5414,-4.8998,-5.1548,-5.3647,-5.5572,-5.5263,-5.4129,-5.2743,-5.0821,-4.8565,-4.5935,-4.3013,-4.0623,-3.9526,-4.0247,-4.1646,-4.3619,-4.6713,-4.9629,-5.1758,-5.2422,-5.2539,-5.2109,-5.1875,-5.1484,-5.082,-5.1348,0.0,0.0,-5.0508,-5.0664,-5.0449,-5.0644,-5.0488,-4.9883,-4.9238,-4.8906,-4.8906,-4.8906,-4.8457,-4.7598,-4.7363,-4.6933,-4.6308,-4.6308,-4.6308,-4.6308,-4.6308,-4.6308,-4.6308,-4.6308,-4.6172,-4.5898,-4.5254,-4.5254,-4.5527,-4.4668,-4.4473,-4.4609,0.0,0.0,0.0,0.0,0.0,0.0,0.0,0.0,0.0,0.0,0.0,0.0,0.0,0.0,0.0,0.0,0.0,0.0,0.0,-2.4613,-2.4508,-2.4508,-2.4727,-2.5071,-2.5548,-2.5988,-2.7022,-2.8691,-2.7941,-2.7515,-2.7445,-2.8819,-2.9861,-3.0668,-3.0999,-3.1654,-3.2435,-3.1544,-3.0215,0.0,0.0,-2.827,-2.7475,-2.656,-2.5954,-2.5493,-2.5038,-2.5503,-2.658,-2.839,-3.0941,-3.3715,-3.5817,-3.8374,-4.1116,-4.3663,-4.6574,-4.9621,-5.2704,-5.4573,-5.5822,-5.6763,-5.5455,-5.3301,-5.0887,-4.843,-4.5615,-4.2028,-3.9461,-3.7575,-3.6704,-3.7734,-3.9532,-4.2006,-4.5182,-4.8476,-5.168,-5.2558,-5.3105,-5.3769,-5.3496,-5.3086,-5.2598,-5.2925,-5.3158,0.0,-5.2754,-5.2363,-5.1992,-5.2324,-5.2168,-5.1328,-5.082,-5.0371,-5.0,-4.9648,-4.9238,-4.873,-4.7969,-4.7344,-4.6855,-4.6465,-4.6308,-4.6308,0.0,-4.6308,-4.6308,-4.6308,-4.6308,-4.625,-4.5699,-4.5772,-4.6104,-4.5207,-4.5082,-4.5297,0.0,0.0,0.0,0.0,0.0,0.0,0.0,0.0,0.0,0.0,0.0,0.0,0.0,0.0,0.0,0.0,0.0,0.0,0.0,0.0,-2.4454,-2.4454,-2.4284,-2.419,-2.419,-2.419,-2.419,-2.419,-2.419,-2.4557,-2.5256,-2.5256,-2.5603,-2.6319,-2.7016,-2.6936,-2.6341,-2.7031,-2.6118,-2.4266,-2.4953,-2.4814,-2.419,0.0,-2.419,-2.419,-2.419,-2.6152,-2.9251,-3.258,-3.5186,-3.7596,-4.1055,-4.4039,-4.6778,-4.9335,-5.1799,-5.4068,-5.5742,-5.6761,-5.7261,-5.7071,-5.4991,-5.2106,-4.8567,-4.5715,-4.246,-3.77,-3.5937,-3.5009,-3.4237,-3.5121,-3.7033,-4.033,-4.2545,-4.5643,-5.082,-5.1562,-5.2538,-5.5156,-5.4805,-5.4375,-5.4471,-5.4271,-5.4533,-5.5503,-5.478,-5.3924,-5.3086,-5.3769,-5.3711,-5.2734,-5.2598,-5.2168,-5.1406,-5.0703,-5.0312,-5.0176,-4.8555,-4.7715,-4.7578,-4.6699,-4.6308,-4.6308,-4.6308,0.0,-4.6308,-4.6308,-4.6308,-4.6289,-4.6173,-4.6117,-4.6006,-4.5195,-4.5324,-4.5685,0.0,0.0,0.0,0.0,0.0,0.0,0.0,0.0,0.0,0.0,-2.3969,-2.419,0.0,0.0,0.0,0.0,0.0,0.0,0.0,0.0,0.0,-2.4266,-2.4228,-2.419,-2.419,-2.419,-2.419,-2.419,-2.419,-2.4263,-2.441,-2.441,-2.4483,-2.4612,-2.4759,-2.4759,-2.4629,-2.4777,-2.4592,-2.4205,-2.4354,-2.4318,-2.419,-2.419,0.0,0.0,-2.419,-2.5558,-2.8067,-3.2705,-3.6915,-4.0864,-4.4729,-4.7741,-5.0336,-5.2877,-5.4897,-5.6706,-5.8393,-5.8954,-5.8726,-5.7362,-5.4551,-5.1068,-4.6951,-4.3015,-3.9364,-3.6353,-3.4488,-3.3318,-3.316,-3.5098,-3.7576,-4.0293,-4.2868,-4.6376,-5.1659,-5.2394,-5.3383,-5.6054,-5.623,-5.6364,-5.6914,-5.6358,0.0,0.0,-5.6279,-5.5529,-5.4883,-5.498,-5.4336,-5.2754,-5.1992,-5.1543,-5.1406,-5.1269,-5.0859,-5.0195,-4.916,-4.8301,-4.7578,-4.6699,-4.6308,-4.6308,-4.6308,0.0,-4.6308,-4.6308,-4.6308,-4.6308,-4.6268,-4.62,-4.6089,-4.5919,-4.5878,-4.586,0.0,0.0,0.0,0.0,0.0,0.0,0.0,-2.3731,-2.4447,-2.4976,-2.5289,-2.5328,-2.5073,-2.4539,-2.419,0.0,0.0,0.0,0.0,0.0,0.0,0.0,0.0,0.0,-2.419,-2.419,-2.419,-2.419,0.0,-2.419,-2.419,-2.419,-2.419,-2.419,-2.419,-2.419,-2.419,-2.419,-2.419,-2.419,-2.419,-2.419,-2.419,0.0,0.0,0.0,-2.419,-2.5595,-2.7994,-3.1848,-3.5946,-4.0338,-4.5611,-4.8872,-5.1292,-5.3983,-5.5676,-5.7128,-5.9223,-5.9657,-5.9088,-5.7418,-5.4127,-4.9933,-4.4797,-4.0677,-3.6983,-3.3545,-3.2179,-3.1737,-3.2199,-3.409,-3.6273,-3.8377,-4.0597,-4.3892,-4.9147,-5.0318,-5.2077,-5.6025,-5.6872,-5.7402,-5.8109,-5.7341,-5.6978,-5.7367,-5.6557,-5.5956,-5.5775,-5.497,-5.4171,-5.3398,-5.209,-5.1406,-5.1406,-5.1406,-5.1211,-5.0801,-4.998,-4.9121,-4.8242,-4.7363,-4.6738,-4.6308,-4.6308,0.0,-4.6289,-4.6225,-4.62,-4.6195,-4.6078,-4.5998,-4.5948,-4.588,-4.5801,-4.5744,0.0,0.0,0.0,0.0,0.0,0.0,0.0,-2.5016,-2.5784,-2.6182,-2.6442,-2.6429,-2.6011,-2.5072,-2.4392,0.0,0.0,0.0,0.0,0.0,0.0,0.0,0.0,0.0,0.0,0.0,0.0,-2.419,-2.419,0.0,0.0,0.0,0.0,0.0,-2.419,-2.419,-2.419,-2.419,-2.419,0.0,0.0,-2.419,0.0,0.0,0.0,0.0,0.0,-2.541,-2.7474,-3.0367,-3.3552,-3.7337,-4.3003,-4.7435,-5.098,-5.3223,-5.5189,-5.7145,-5.9274,-5.9805,-5.9281,-5.7223,-5.3683,-4.9086,-4.2862,-3.8812,-3.522,-3.1156,-3.0311,-3.0535,-3.1282,-3.2877,-3.4635,-3.6317,-3.8255,-4.1352,-4.659,-4.829,-5.0805,-5.5779,-5.7061,-5.7914,-5.8836,-5.8037,0.0,-5.7585,-5.6501,0.0,-5.6181,-5.4816,-5.4011,-5.3915,-5.2392,-5.1517,-5.1365,-5.1365,-5.1365,-5.1346,-5.0545,-4.9803,-4.91,-4.8045,-4.7206,-4.6562,-4.6387,0.0,0.0,-4.6198,-4.614,-4.608,-4.593,-4.584,-4.5783,-4.5696,-4.5618,-4.5586,0.0,0.0,0.0,0.0,0.0,0.0,0.0,-2.5493,-2.6759,-2.753,-2.7016,-2.6576,-2.6539,-2.5786,-2.5017,0.0,0.0,0.0,0.0,0.0,0.0,0.0,0.0,0.0,0.0,0.0,0.0,-2.419,-2.419,0.0,0.0,0.0,0.0,0.0,0.0,-2.419,-2.419,-2.419,0.0,0.0,0.0,0.0,0.0,0.0,0.0,0.0,0.0,-2.4337,-2.5018,-2.8198,-3.0005,-3.1463,-3.4618,-4.2096,-4.9759,-5.0089,-5.3696,-5.7802,-5.8739,-5.985,-5.9896,-5.6626,-5.3241,-4.8875,-4.1914,-3.7691,-3.4257,-3.0767,-3.0047,-3.0142,-3.0451,-3.1903,-3.3621,-3.5342,-3.7718,-4.1161,-4.6387,-4.8515,-5.1194,-5.5686,-5.6922,-5.8013,-5.9462,-5.8867,-5.8334,-5.8233,-5.6671,0.0,-5.6181,-5.5307,-5.4441,-5.3662,-5.2718,-5.1893,-5.121,-5.121,-5.121,-5.121,-5.041,-4.9981,-4.9844,-4.8181,-4.7445,-4.7441,-4.6641,0.0,0.0,-4.6289,-4.6202,-4.6108,-4.6075,-4.5955,-4.5796,-4.5783,-4.5708,-4.5586,0.0,0.0,0.0,0.0,0.0,0.0,-2.3949,-2.5144,-2.6172,-2.6979,-2.7218,-2.7145,-2.6649,-2.6319,-2.5603,-2.43,0.0,0.0,0.0,0.0,0.0,0.0,0.0,0.0,0.0,0.0,-2.419,-2.419,-2.419,0.0,0.0,0.0,0.0,0.0,0.0,-2.419,-2.419,-2.419,0.0,0.0,0.0,0.0,0.0,0.0,0.0,0.0,0.0,0.0,-2.4465,-2.6245,-2.7695,-2.8879,-2.9496,-3.4481,-4.0914,-4.5048,-4.9419,-5.3612,-5.6888,-5.9251,-5.9973,-5.6549,-5.2779,-4.8203,-4.1685,-3.7158,-3.3465,-3.0449,-2.9813,-2.9877,-3.0122,-3.112,-3.2382,-3.3712,-3.5224,-3.7858,-4.2587,-4.4742,-4.7957,-5.381,-5.5699,-5.7525,0.0,0.0,-5.8661,-5.761,-5.6395,0.0,-5.5879,-5.5195,-5.4666,-5.4391,-5.3029,-5.2164,-5.1857,-5.1378,-5.1145,-5.1145,-5.0813,-5.0377,-4.9831,-4.8697,-4.7932,-4.7445,-4.6639,0.0,0.0,-4.6202,-4.6147,-4.6084,-4.6001,-4.591,-4.5796,-4.5796,-4.5723,-4.5586,0.0,0.0,0.0,0.0,0.0,-2.1951,-2.3583,-2.4924,-2.5952,-2.6539,-2.709,-2.7236,-2.6667,-2.619,-2.5529,-2.463,-2.4337,0.0,0.0,0.0,0.0,0.0,0.0,0.0,0.0,0.0,-2.419,-2.419,-2.419,-2.419,0.0,0.0,-2.419,-2.419,0.0,0.0,0.0,0.0,0.0,0.0,0.0,0.0,0.0,0.0,0.0,0.0,0.0,0.0,0.0,0.0,0.0,-2.6631,-2.608,-2.8393,-3.2599,-3.9091,-4.4355,-4.8966,-5.3139,-5.6406,-5.7908,-5.4977,-5.1108,-4.6527,-4.0841,-3.6274,-3.2539,-3.0113,-2.9626,-2.9678,-2.9877,-3.0658,-3.1637,-3.2648,-3.3801,-3.5998,-4.0065,-4.2345,-4.5745,-5.1528,0.0,-5.602,-5.9342,-5.9358,-5.8665,-5.7473,0.0,0.0,-5.5703,-5.5249,-5.4926,-5.4788,-5.3333,-5.2466,-5.2244,-5.1439,-5.105,-5.105,-5.105,-5.072,-5.0087,-4.9331,-4.8502,-4.7677,-4.6956,0.0,0.0,-4.6117,-4.6064,-4.5994,-4.592,-4.5813,-4.5733,-4.5733,-4.568,-4.5586,0.0,0.0,0.0,0.0,0.0,0.0,-2.285,-2.5052,-2.6594,-2.6612,-2.6612,-2.6612,-2.6612,-2.5181,-2.4538,-2.5329,-2.4649,0.0,0.0,0.0,0.0,0.0,0.0,0.0,0.0,0.0,-2.419,-2.419,-2.419,-2.419,-2.419,-2.419,-2.419,-2.419,0.0,0.0,0.0,0.0,0.0,0.0,0.0,0.0,0.0,0.0,0.0,0.0,0.0,0.0,0.0,0.0,0.0,0.0,0.0,-2.4795,-2.6615,-3.2247,-3.8832,-4.4803,-4.723,-5.0635,-5.3051,-5.1271,-4.7783,-4.3574,-3.9052,-3.4857,-3.1435,-2.9768,-2.9412,-2.9455,-2.9661,-3.057,-3.1592,-3.2461,-3.4225,-3.6661,-4.0027,-4.2684,-4.5568,-4.9029,-5.0914,-5.328,-5.6703,-5.7819,-5.8319,-5.83,0.0,0.0,-5.5703,-5.5684,-5.5318,-5.4511,-5.3645,-5.2839,-5.2109,-5.1296,-5.0889,-5.0889,-5.0889,-5.0889,-5.085,-4.9984,-4.92,0.0,0.0,0.0,0.0,-4.6045,-4.5979,-4.5809,-4.5809,-4.5723,-4.5603,-4.5603,-4.5603,-4.5586,0.0,0.0,0.0,0.0,0.0,0.0,0.0,-2.4116,-2.4961,-2.4961,-2.5438,-2.5768,-2.5768,-2.5348,-2.5127,-2.5384,-2.4649,0.0,0.0,0.0,0.0,0.0,0.0,0.0,0.0,0.0,-2.3657,-2.419,-2.419,-2.419,-2.419,-2.419,-2.419,-2.419,-2.419,-2.419,0.0,0.0,0.0,0.0,0.0,0.0,0.0,0.0,0.0,0.0,0.0,0.0,0.0,0.0,0.0,0.0,0.0,0.0,0.0,-2.7365,-3.2567,-3.822,-4.1237,-4.4372,-4.6353,-4.4678,-4.2356,-3.9633,-3.6283,-3.3194,-3.066,-2.9381,-2.9134,-2.9203,-2.9435,-2.9889,-3.0928,-3.3128,-3.4623,-3.668,-4.0027,-4.3222,-4.6665,-5.0644,-5.5184,-5.8165,0.0,0.0,-5.805,-5.7453,0.0,0.0,-5.5703,-5.5184,-5.4761,-5.4511,-5.3645,-5.28,-5.1971,-5.1162,-5.0775,-5.0775,-5.0775,-5.0775,-5.0736,-4.9962,-4.9141,0.0,0.0,0.0,0.0,-4.5959,-4.5927,-4.5862,-4.5862,-4.5813,-4.5733,-4.5733,-4.568,-4.5586,0.0,0.0,0.0,0.0,0.0,0.0,0.0,-2.3581,-2.4054,-2.417,-2.463,-2.5072,-2.5384,-2.5146,-2.5072,-2.5384,-2.4649,0.0,0.0,0.0,0.0,0.0,0.0,0.0,0.0,-2.3547,-2.3859,-2.4649,-2.4649,-2.4649,-2.4649,-2.4649,-2.4483,-2.419,-2.419,-2.419,0.0,0.0,0.0,0.0,0.0,0.0,-2.419,0.0,0.0,0.0,0.0,0.0,0.0,0.0,0.0,0.0,0.0,0.0,0.0,0.0,-2.7636,-3.1451,-3.5341,-3.8353,-4.0164,-3.9124,-3.737,-3.5402,-3.3659,-3.1336,-2.9487,-2.9209,-2.9145,-2.9232,-2.9487,-2.9665,-3.0602,-3.3024,-3.4314,-3.62,-3.9569,-4.2972,0.0,-5.1375,0.0,0.0,0.0,-5.8204,-5.7934,0.0,0.0,0.0,-5.5703,-5.4934,-5.4357,-5.401,-5.3164,-5.2452,-5.1914,-5.1106,-5.0702,-5.0702,-5.0702,-5.0529,-5.0221,-5.0079,-4.92,0.0,0.0,0.0,0.0,-4.585,-4.5839,-4.5782,-4.5782,-4.5757,-4.5718,-4.5718,-4.568,-4.5586,0.0,0.0,0.0,0.0,0.0,0.0,0.0,-2.328,-2.3764,-2.404,-2.4153,-2.4483,-2.5237,-2.4649,-2.4502,-2.5256,0.0,0.0,0.0,0.0,0.0,0.0,0.0,0.0,-2.2997,-2.3676,-2.4447,-2.5311,-2.5384,-2.5403,-2.5403,-2.5458,-2.5072,-2.4281,-2.4281,-2.4245,-2.419,-2.419,-2.419,-2.419,-2.419,-2.419,0.0,0.0,0.0,0.0,0.0,0.0,0.0,0.0,0.0,0.0,0.0,0.0,0.0,0.0,0.0,0.0,0.0,-3.2577,-3.4312,-3.4312,-3.2669,-3.1054,-3.1054,-2.931,0.0,-2.9058,-2.9306,-2.9402,-2.9761,-2.9945,-3.0686,-3.2525,-3.3756,-3.5649,-3.9,-4.2569,0.0,0.0,-5.5049,0.0,-5.5703,-5.7184,-5.7857,0.0,0.0,0.0,-5.5607,-5.478,-5.3933,-5.3126,-5.2279,-5.1818,-5.1818,-5.1068,-5.0702,-5.0702,-5.0702,-5.024,-4.9433,-5.024,-4.924,0.0,0.0,0.0,0.0,-4.5733,-4.5723,-4.5586,-4.5586,-4.5586,-4.5586,-4.5586,-4.5586,-4.5586,0.0,0.0,0.0,0.0,0.0,0.0,0.0,0.0,0.0,0.0,-2.369,-2.4263,-2.4447,-2.43,-2.4281,0.0,0.0,0.0,0.0,0.0,0.0,0.0,0.0,0.0,-2.2997,-2.2575,-2.3052,-2.4483,-2.5109,-2.5403,-2.5421,-2.6025,-2.5878,-2.5127,-2.5127,-2.4777,-2.419,-2.419,-2.419,-2.419,-2.419,-2.419,0.0,0.0,0.0,0.0,-2.419,-2.419,0.0,0.0,0.0,0.0,0.0,0.0,0.0,0.0,-2.419,-2.4447,-2.5585,0.0,-2.7658,-2.7658,-2.7695,-2.7732,0.0,-2.7284,-2.7116,-2.7993,-2.8194,-2.8765,-3.0641,-3.0866,-3.1713,-3.4642,-3.6241,-3.8066,-4.0838,-4.6355,0.0,-5.3587,-5.6319,-5.7146,-5.4991,-5.6299,0.0,0.0,0.0,-5.478,-5.478,-5.3337,-5.2433,-5.2222,-5.1414,-5.0971,-5.0971,-5.0779,-5.0702,-5.0702,-5.0702,-5.024,-4.9413,-4.9606,-4.8682,0.0,0.0,0.0,-4.5603,-4.5635,-4.5618,-4.5586,-4.5586,-4.5586,-4.5586,-4.5586,-4.5586,-4.5586,0.0,0.0,0.0,0.0,0.0,0.0,0.0,0.0,0.0,0.0,0.0,-2.419,-2.419,-2.419,0.0,0.0,0.0,0.0,0.0,0.0,0.0,0.0,0.0,-2.1528,-2.2428,-2.2373,-2.3327,-2.5309,-2.5731,-2.6135,-2.6484,-2.6576,-2.6091,-2.5142,-2.4777,-2.4458,-2.419,-2.419,-2.419,-2.419,-2.419,0.0,0.0,0.0,0.0,0.0,-2.419,-2.419,0.0,-2.419,-2.419,-2.419,0.0,0.0,0.0,0.0,-2.419,-2.419,-2.419,-2.5052,-2.5952,-2.5952,-2.6282,-2.6704,-2.7071,-2.6869,-2.6851,-2.7764,-2.8262,-2.9072,-3.0841,-3.1335,-3.2455,-3.5378,-3.7135,-3.9486,0.0,0.0,-5.1521,-5.4163,-5.603,-5.6722,0.0,0.0,0.0,0.0,0.0,-5.4337,-5.3914,-5.2645,-5.1914,-5.1914,-5.1125,-5.0702,-5.0702,-5.0702,-5.0702,-5.0702,-5.0279,-4.9644,-4.8798,-4.8798,-4.7894,0.0,0.0,0.0,-4.5586,-4.5586,-4.5586,-4.5586,-4.5586,-4.5586,-4.5586,-4.5586,-4.5586,-4.5586,0.0,0.0,0.0,0.0,0.0,0.0,0.0,0.0,0.0,0.0,0.0,0.0,0.0,0.0,0.0,0.0,0.0,0.0,0.0,0.0,0.0,0.0,-2.1584,-2.1657,-2.1803,-2.2593,-2.4061,-2.6227,-2.6612,-2.7071,-2.7603,-2.731,-2.6428,-2.5113,-2.4129,-2.3896,-2.419,-2.419,-2.419,-2.4208,-2.4133,0.0,0.0,0.0,0.0,0.0,0.0,0.0,0.0,-2.419,-2.419,-2.419,-2.419,0.0,0.0,0.0,0.0,0.0,-2.4355,-2.5823,-2.72,-2.6576,-2.6612,-2.6961,-2.7625,-2.7267,-2.7052,-2.8033,-2.892,-2.9893,-3.1128,-3.1952,-3.3263,-3.5873,-3.7955,0.0,-4.6306,-4.8457,-5.0673,-5.3932,-5.5126,0.0,-5.6184,0.0,0.0,0.0,0.0,-5.378,-5.3049,-5.2183,-5.1722,-5.1722,-5.1048,-5.0625,-5.0491,-5.0491,-5.0491,-5.0491,-4.9625,-4.8759,-4.7932,-4.7932,-4.7067,-4.5624,0.0,0.0,-4.5586,-4.5586,-4.5586,-4.5586,-4.5586,-4.5586,-4.5586,-4.5586,-4.5586,-4.5586,0.0,0.0,0.0,0.0,0.0,0.0,0.0,0.0,0.0,0.0,0.0,0.0,0.0,0.0,0.0,0.0,0.0,0.0,0.0,0.0,0.0,-2.0686,-2.0686,-2.1051,-2.1784,-2.2593,-2.3529,-2.4575,-2.6612,-2.7328,-2.6833,-2.876,-2.8462,-2.6252,-2.4508,-2.3896,-2.419,-2.419,-2.419,-2.417,-2.3896,0.0,0.0,0.0,0.0,0.0,0.0,0.0,0.0,-2.419,-2.419,-2.419,-2.419,0.0,0.0,0.0,0.0,0.0,-2.5035,-2.7879,-2.9843,-2.6429,-2.6594,-2.7647,-2.7775,-2.7692,-2.7844,-2.869,-2.9514,-3.0747,-3.2957,-3.3626,-3.4909,-3.8082,0.0,-4.5127,0.0,0.0,-5.2365,-5.3276,0.0,-5.4914,0.0,0.0,0.0,0.0,0.0,-5.2241,-5.2125,-5.1337,-5.0875,-5.0875,-5.076,-5.0337,-4.9606,-4.9606,-4.9606,-4.9586,-4.8721,-4.7875,-4.7086,-4.7086,-4.6547,-4.5605,0.0,-4.572,-4.5586,-4.5586,-4.5586,-4.5586,-4.5586,-4.5586,-4.5586,-4.5586,-4.5586,-4.5586,0.0,0.0,0.0,0.0,0.0,0.0,0.0,0.0,0.0,0.0,0.0,0.0,0.0,0.0,0.0,0.0,0.0,0.0,0.0,0.0,-2.0351,-2.0351,-2.0752,-2.1443,-2.2428,-2.3657,-2.5126,-2.6796,-2.8338,-2.8906,-2.8517,-2.7979,-2.6858,-2.5234,-2.3541,-2.3061,-2.351,-2.294,-2.2918,-2.326,0.0,0.0,0.0,0.0,0.0,0.0,0.0,0.0,0.0,0.0,-2.4074,-2.3958,-2.4151,0.0,0.0,0.0,0.0,0.0,-2.4649,-2.7056,-2.9044,-2.7327,-2.9314,-3.1464,-3.0595,-3.0405,-3.0394,-3.0298,-3.1286,-3.262,-3.4154,-3.5276,-3.735,-4.1453,0.0,-4.6842,-4.9612,-5.035,-5.0989,0.0,0.0,0.0,0.0,0.0,0.0,0.0,0.0,0.0,-5.0567,-4.976,-4.9298,-4.9298,-4.9298,-4.9106,-4.8702,-4.8279,-4.8279,-4.8682,-4.7855,-4.7259,-4.6894,-4.6413,-4.597,-4.5586,0.0,-4.5586,-4.5586,-4.5586,-4.5586,-4.5586,-4.5586,-4.5586,-4.5586,-4.5586,-4.5586,-4.5586,0.0,0.0,0.0,0.0,0.0,0.0,0.0,0.0,0.0,0.0,0.0,0.0,0.0,0.0,0.0,0.0,0.0,0.0,0.0,0.0,-2.0119,-2.0192,-2.115,-2.217,-2.3253,-2.485,-2.6594,-2.8425,-2.9439,-2.9824,-2.9586,-2.6747,-2.5072,-2.4409,-2.2984,-2.2578,-2.2923,-2.1771,-2.1767,-2.2497,0.0,0.0,0.0,0.0,0.0,0.0,0.0,0.0,0.0,0.0,0.0,0.0,0.0,0.0,0.0,-2.4074,-2.4074,-2.413,-2.4409,-2.6245,-2.8121,-2.8347,-3.1078,-3.3697,-3.3584,-3.3283,-3.3062,-3.3091,-3.4238,-3.5294,-3.5531,-3.7241,0.0,-4.3791,-4.6269,-4.8034,-4.9055,-4.9533,-5.0188,-5.1334,-5.1471,0.0,0.0,0.0,0.0,0.0,0.0,0.0,-4.9009,-4.8356,-4.803,-4.8105,-4.801,-4.7934,-4.7817,-4.7221,-4.7221,-4.7817,-4.699,-4.6605,-4.6567,-4.5893,-4.5586,-4.5586,-4.5586,-4.5586,-4.5586,-4.5586,-4.5586,-4.5586,-4.5586,-4.5586,-4.5586,-4.5586,-4.5586,-4.5586,0.0,0.0,0.0,0.0,0.0,0.0,0.0,0.0,0.0,0.0,0.0,0.0,0.0,0.0,0.0,0.0,0.0,0.0,0.0,0.0,-1.9874,-2.0192,-2.1635,-2.2948,-2.4098,-2.5695,-2.6612,-2.6778,-2.8315,-2.8705,-2.7934,-2.5905,-2.5092,-2.5254,-2.3963,-2.3265,-2.2905,-2.1511,-2.1553,-2.2458,-2.2123,0.0,0.0,0.0,0.0,0.0,0.0,0.0,0.0,0.0,0.0,0.0,0.0,0.0,-2.3346,-2.3631,-2.3753,-2.3979,-2.5029,-2.7079,-2.8912,-2.8938,-2.9478,-3.1129,-3.5417,-3.5345,-3.5084,-3.7648,-3.8866,-3.9013,-3.7576,-3.9863,-4.2304,-4.3406,-4.6856,-4.9582,-5.0035,0.0,-5.2236,-5.1967,0.0,0.0,0.0,0.0,0.0,0.0,0.0,0.0,-4.7739,-4.7681,-4.7771,-4.8087,-4.7811,-4.7427,-4.699,-4.6932,-4.6932,-4.699,-4.6105,-4.5682,-4.5682,-4.5624,-4.5586,-4.5586,-4.5586,-4.5586,-4.5586,-4.5586,-4.5586,-4.5586,-4.5586,-4.5586,-4.5586,-4.5586,-4.5586,-4.5586,0.0,0.0,0.0,0.0,0.0,0.0,0.0,0.0,0.0,0.0,0.0,0.0,0.0,0.0,0.0,0.0,0.0,0.0,0.0,-1.9948,-2.0033,-2.1322,-2.1506,-2.263,-2.4905,-2.6521,-2.7346,-2.7346,-2.7757,-2.7676,-2.7139,-2.5392,-2.4459,-2.4172,-2.3271,-2.2656,-2.219,-2.1295,-2.0978,-2.1149,-2.1388,-2.2178,0.0,0.0,0.0,0.0,0.0,0.0,0.0,0.0,-2.3165,-2.2947,-2.3282,-2.33,-2.3212,-2.3346,-2.3544,-2.3786,-2.4239,-2.6988,-2.9532,-2.8711,-3.0215,-3.2827,-3.6411,-3.7925,-3.8907,-3.9973,-4.1635,-4.2402,-4.0781,-4.2304,-4.4066,-4.4856,-4.7131,-4.9209,-5.0414,-5.1099,-5.1139,0.0,0.0,0.0,0.0,0.0,0.0,0.0,0.0,0.0,-4.6493,-4.6019,-4.5784,-4.5921,-4.5803,-4.5651,-4.5483,-4.5483,-4.5483,-4.5483,-4.5554,-4.5586,-4.5586,-4.5586,-4.5586,-4.5586,-4.5586,-4.5495,-4.5302,-4.5302,-4.518,-4.4988,-4.4988,-4.4988,-4.4988,-4.4988,-4.4988,-4.4988,0.0,0.0,0.0,0.0,0.0,0.0,0.0,0.0,0.0,0.0,0.0,0.0,0.0,0.0,0.0,0.0,0.0,0.0,-2.0811,-1.9998,-2.0194,-2.1671,-2.1379,-2.2282,-2.4593,-2.6106,-2.7057,-2.742,-2.7023,-2.6545,-2.5945,-2.4623,-2.3839,-2.3482,-2.2966,-2.2407,-2.1822,-2.1256,-2.089,-2.0714,-2.1128,-2.1962,0.0,0.0,0.0,0.0,0.0,0.0,0.0,0.0,-2.284,-2.2625,-2.2965,-2.3007,-2.2933,-2.3021,-2.3277,-2.3526,-2.3556,-2.5972,-2.8427,-2.8146,-3.0512,-3.3873,-3.7559,-3.9497,-4.0946,-4.2328,-4.3316,-4.3681,-4.2837,-4.3369,-4.4213,0.0,-4.6929,-4.8526,-4.9169,-4.9701,0.0,0.0,0.0,0.0,0.0,0.0,0.0,0.0,0.0,0.0,0.0,-4.4701,-4.4474,-4.4599,-4.4474,-4.4474,-4.458,-4.458,-4.458,-4.4624,-4.5074,-4.5342,-4.5438,-4.5438,-4.5438,-4.5438,-4.5342,-4.514,-4.4943,-4.4943,-4.4825,-4.458,-4.458,-4.458,-4.458,-4.458,-4.458,-4.458,0.0,0.0,0.0,0.0,0.0,0.0,0.0,0.0,0.0,0.0,0.0,0.0,0.0,0.0,0.0,0.0,0.0,0.0,-2.1586,-2.0593,-2.0264,-2.0866,-2.136,-2.2033,-2.296,-2.4218,-2.5437,-2.6594,-2.6062,-2.5236,-2.417,-2.3522,-2.3323,-2.35,-2.33,-2.2741,-2.1965,-2.1511,-2.1403,-2.1505,-2.1505,-2.1823,-2.2321,0.0,0.0,0.0,0.0,0.0,0.0,0.0,-2.2527,-2.2349,-2.2677,-2.2561,-2.2349,-2.2625,-2.2923,-2.3218,-2.3195,-2.4021,-2.5317,-2.7325,-2.9996,-3.3574,-3.9031,-3.9774,-4.0578,-4.4985,-4.3993,-4.2561,-4.3369,-4.2855,0.0,-4.3369,-4.6195,-4.7719,-4.6122,-4.7278,0.0,0.0,0.0,0.0,0.0,0.0,0.0,0.0,0.0,0.0,0.0,-4.4016,-4.4175,-4.458,-4.4204,-4.4175,-4.4599,-4.458,-4.458,-4.458,-4.458,-4.4757,-4.5096,-4.5096,-4.5096,-4.5074,-4.4732,-4.4599,-4.458,-4.458,-4.458,-4.458,-4.458,-4.458,-4.458,-4.458,-4.458,-4.458,0.0,0.0,0.0,0.0,0.0,0.0,0.0,0.0,0.0,0.0,0.0,0.0,0.0,0.0,0.0,0.0,0.0,0.0,-2.1335,-2.1036,-2.0772,-2.0615,-2.1259,-2.1831,-2.2345,-2.2736,-2.3946,-2.6043,-2.4784,-2.4021,-2.3692,-2.3369,-2.3159,-2.308,-2.3032,-2.2685,-2.2219,-2.2263,-2.2203,-2.2048,-2.2048,-2.2258,-2.2599,0.0,0.0,0.0,0.0,0.0,0.0,0.0,0.0,0.0,-2.2432,-2.2377,-2.231,-2.2415,-2.2616,-2.289,-2.3151,-2.5654,-2.8448,-2.9286,-3.2391,-3.6006,-3.8762,-4.0456,-4.2406,-4.6012,-4.5278,-4.4232,-4.5039,-4.4066,0.0,-4.4213,-4.5149,-4.581,-4.5883,0.0,0.0,0.0,0.0,0.0,0.0,0.0,0.0,0.0,0.0,0.0,0.0,-4.3646,-4.3693,-4.3823,-4.3712,-4.3712,-4.3823,-4.3823,-4.3823,-4.3823,-4.4076,-4.4373,-4.4751,-4.4751,-4.4751,-4.4732,-4.4631,-4.4447,-4.4146,-4.3912,-4.3823,-4.3823,-4.3823,-4.3823,-4.3823,-4.3823,-4.3823,-4.3823,0.0,0.0,0.0,0.0,0.0,0.0,0.0,0.0,0.0,0.0,0.0,0.0,0.0,0.0,0.0,0.0,0.0,0.0,0.0,-2.1059,-2.079,-2.0904,-2.0946,-2.1253,-2.1888,-2.2018,-2.2833,-2.4327,-2.3772,-2.35,-2.35,-2.3282,-2.3135,-2.3014,-2.2773,-2.2535,-2.231,-2.2463,-2.2436,-2.231,-2.231,-2.2415,-2.2537,0.0,0.0,0.0,0.0,0.0,0.0,0.0,0.0,0.0,-2.231,-2.231,-2.231,-2.231,-2.2483,-2.2781,-2.3172,-2.5937,-2.9015,-3.0267,-3.3579,-3.7102,-3.919,-4.1332,-4.3652,-4.6122,-4.5351,-4.447,-4.5278,-4.4103,0.0,-4.4085,-4.4488,-4.4764,-4.4911,0.0,0.0,0.0,0.0,0.0,0.0,0.0,0.0,0.0,0.0,0.0,0.0,-4.2543,-4.2543,-4.2543,-4.2543,-4.2543,-4.2543,-4.2543,-4.2543,-4.2543,-4.2751,-4.3132,-4.3698,-4.4158,-4.4346,-4.4346,-4.4223,-4.4035,-4.3772,-4.3597,-4.3497,-4.3497,-4.3497,-4.3497,-4.3497,-4.3497,-4.3497,-4.3497,0.0,0.0,0.0,0.0,0.0,0.0,0.0,0.0,0.0,0.0,-1.9273,0.0,0.0,0.0,0.0,0.0,0.0,0.0,0.0,0.0,-2.0552,-2.1342,-2.0526,-2.0551,-2.1544,-2.1855,-2.1993,-2.2011,-2.2972,-2.3459,-2.35,-2.3369,-2.3259,-2.3165,-2.2571,-2.231,-2.231,-2.231,-2.231,-2.231,-2.231,-2.231,-2.231,-2.231,0.0,0.0,0.0,0.0,0.0,0.0,0.0,0.0,-2.231,-2.231,-2.231,-2.231,-2.2466,-2.279,-2.3378,-2.5338,-2.7925,-3.0882,-3.4292,-3.7605,-4.0053,-4.2214,-4.4075,-4.537,-4.4526,-4.3864,-4.4672,-4.3497,-4.2671,-4.3479,-4.4158,-4.4342,0.0,0.0,0.0,0.0,0.0,0.0,0.0,0.0,0.0,0.0,0.0,0.0,0.0,-4.1111,-4.1111,-4.1111,-4.1111,-4.1111,-4.1111,-4.1111,-4.1111,-4.1111,-4.1111,-4.1497,-4.2213,-4.3354,-4.3899,-4.3924,-4.3539,-4.3387,-4.3387,-4.3387,-4.3332,-4.3277,-4.3351,-4.3387,-4.3387,-4.3387,-4.3424,-4.3497,0.0,0.0,0.0,0.0,0.0,0.0,0.0,0.0,0.0,0.0,0.0,0.0,0.0,0.0,0.0,0.0,0.0,0.0,0.0,0.0,-2.1373,-2.0374,-2.0526,-2.0814,-2.1275,-2.1165,-2.1174,-2.1379,-2.2491,-2.3183,-2.3522,-2.3837,-2.3692,-2.3165,-2.2571,-2.231,-2.231,-2.231,-2.231,-2.231,-2.231,-2.231,-2.231,-2.231,-2.231,0.0,0.0,0.0,0.0,0.0,0.0,0.0,-2.231,-2.231,-2.231,-2.231,-2.2332,-2.2709,-2.4257,-2.5957,-2.8479,-3.3401,-3.7663,-4.0671,-4.0826,-4.156,-4.2448,-4.324,-4.3962,-4.469,-4.5498,-4.4323,-4.3497,-4.4305,-4.4066,-4.3699,0.0,0.0,0.0,0.0,0.0,0.0,0.0,0.0,0.0,0.0,0.0,0.0,-4.1111,-4.1111,-4.1111,-4.1111,-4.1111,-4.1111,-4.1111,-4.1111,-4.1111,0.0,-4.1111,-4.1203,-4.1405,-4.2276,-4.299,-4.356,-4.2852,-4.2561,-4.2561,-4.2561,-4.2194,-4.168,-4.2304,-4.2561,-4.2561,-4.2561,-4.2947,-4.3497,0.0,0.0,0.0,0.0,0.0,0.0,0.0,0.0,0.0,0.0,0.0,0.0,0.0,0.0,0.0,0.0,0.0,0.0,0.0,0.0,-2.0829,-2.0035,-2.0636,-2.0703,-2.0094,-1.9959,-2.001,-2.0289,-2.1113,-2.2052,-2.3117,-2.3242,-2.3218,-2.3038,-2.2535,-2.231,-2.231,-2.231,-2.231,-2.231,-2.231,-2.231,-2.231,-2.231,-2.231,-2.231,-2.231,0.0,0.0,0.0,0.0,0.0,0.0,0.0,-2.231,-2.231,-2.231,-2.257,-2.3887,-2.5853,-2.899,-3.507,-3.8249,-4.0001,-4.0294,-4.0351,-4.0486,-4.1056,-4.2759,-4.414,-4.4176,-4.3809,-4.3497,-4.3552,-4.3516,0.0,0.0,0.0,0.0,0.0,0.0,0.0,0.0,0.0,0.0,0.0,0.0,-3.979,-3.9405,-3.9753,-3.9955,-3.9955,-3.9955,-3.9955,-3.9955,-3.9955,-3.9955,-3.9955,-3.9955,-4.0157,-4.0561,-4.1368,-4.1956,-4.2323,-4.1919,-4.1735,-4.1735,-4.1735,-4.1497,-4.1148,-4.157,-4.1735,-4.1735,-4.1735,-4.1992,-4.2415,0.0,0.0,0.0,0.0,0.0,0.0,0.0,0.0,0.0,0.0,0.0,0.0,0.0,0.0,0.0,0.0,0.0,0.0,0.0,0.0,0.0,-2.039,-2.1025,-2.0788,-1.9502,-1.9486,-1.9502,-1.9578,-2.0128,-2.1165,-2.2634,-2.2398,-2.2497,-2.2773,-2.2443,-2.231,-2.231,-2.231,-2.231,-2.231,-2.231,-2.231,-2.231,-2.231,-2.231,-2.231,-2.231,-2.231,-2.231,-2.231,0.0,0.0,0.0,0.0,-2.231,-2.231,-2.231,-2.2474,-2.3363,-2.6034,-2.99,-3.5367,-3.7817,-3.8953,-3.9259,-3.879,-3.8502,-3.9141,-4.1232,-4.2734,-4.2093,-4.2496,-4.2681,-4.1953,-4.2479,0.0,0.0,0.0,0.0,0.0,0.0,0.0,0.0,0.0,0.0,0.0,0.0,-3.7991,-3.7312,-3.7918,-3.8285,-3.8285,-3.8414,-3.8432,-3.8303,-3.856,-3.8634,-3.8487,-3.8634,-3.9056,-3.9717,-4.0396,-4.0855,-4.1111,-4.0965,-4.0891,-4.0891,-4.0891,-4.0818,-4.0708,-4.0855,-4.0891,-4.0891,-4.0891,-4.0983,-4.1203,0.0,0.0,0.0,0.0,0.0,0.0,0.0,0.0,0.0,0.0,-1.9401,0.0,0.0,0.0,0.0,0.0,0.0,0.0,0.0,0.0,0.0,-2.1972,-2.2107,-2.2073,-2.1854,-2.1854,-2.1448,-2.0602,-2.1549,-2.2107,-2.2349,-2.2338,-2.2338,-2.2377,-2.2321,-2.231,-2.231,-2.231,-2.231,-2.231,-2.231,-2.231,-2.231,-2.231,-2.231,-2.231,-2.231,-2.231,-2.231,-2.231,-2.231,0.0,0.0,0.0,-2.231,-2.231,-2.231,-2.2587,-2.3984,-2.7946,-3.1947,-3.3068,-3.8073,-4.1827,-3.8291,-3.7128,-3.7114,-3.8241,-3.9656,-4.0709,-4.06,-4.0673,-4.0564,-4.0024,-4.0399,0.0,0.0,0.0,0.0,0.0,0.0,0.0,0.0,0.0,0.0,0.0,-3.6615,-3.656,-3.6468,-3.656,-3.6615,-3.6615,-3.7294,-3.7312,-3.6633,-3.801,-3.834,-3.7661,-3.8377,-3.8762,-3.8854,-3.8982,-3.979,-4.1075,-4.0359,-4.0065,-4.0065,-4.0065,-3.9643,-3.9093,-3.979,-4.0065,-4.0065,-4.0065,-4.0506,-4.113,0.0,0.0,0.0,0.0,0.0,0.0,0.0,0.0,0.0,0.0,0.0,-1.9435,0.0,0.0,0.0,0.0,0.0,0.0,0.0,0.0,0.0,-2.1667,-2.1684,-2.1346,-2.0619,-2.0619,-2.0128,-1.913,-2.0399,-2.1437,-2.2327,-2.3397,-2.3646,-2.3139,-2.3139,-2.3054,-2.2885,-2.2496,-2.231,-2.231,-2.231,-2.231,-2.231,-2.231,-2.231,-2.231,-2.231,-2.231,-2.231,-2.231,-2.231,-2.231,-2.231,0.0,0.0,0.0,-2.231,-2.2683,-2.4413,-2.6992,-2.9421,-3.0374,-3.4245,-3.7721,-3.7214,-3.6103,-3.5503,-3.6523,-3.6807,-3.7305,-3.8707,-3.948,-3.9703,-3.9043,-3.9483,0.0,0.0,0.0,0.0,0.0,0.0,0.0,0.0,0.0,0.0,0.0,-3.6028,-3.6083,-3.5605,-3.6028,-3.6303,-3.6303,-3.6633,-3.6652,-3.6303,-3.7,-3.7404,-3.7526,-3.8322,-3.8707,-3.8707,-3.8707,-3.9093,-3.9753,-3.9386,-3.9239,-3.9239,-3.9239,-3.9019,-3.8744,-3.9093,-3.9239,-3.9239,-3.9239,-3.946,-3.9827,0.0,0.0,0.0,0.0,0.0,0.0,0.0,0.0,0.0,0.0,0.0,0.0,0.0,0.0,0.0,0.0,0.0,0.0,0.0,0.0,0.0,-2.1465,-2.1465,-2.1025,-2.0078,-2.0044,-1.9688,-1.8944,-2.0035,-2.1167,-2.2344,-2.4052,-2.4475,-2.3812,-2.3744,-2.3477,-2.3088,-2.2547,-2.231,-2.2293,-2.2107,-2.2023,-2.2023,-2.1927,-2.1921,-2.1949,-2.2209,-2.2304,-2.2298,-2.2293,-2.231,-2.231,-2.231,-2.231,0.0,0.0,0.0,-2.2604,-2.4052,-2.5012,-2.5881,-2.6995,-2.9228,-3.1806,-3.4438,-3.3723,-3.2886,0.0,-3.397,-3.4152,-3.6025,-3.7374,-3.799,-3.7251,-3.7756,0.0,0.0,0.0,0.0,0.0,0.0,0.0,0.0,0.0,0.0,0.0,-3.4582,-3.4666,-3.4403,-3.4916,-3.5355,-3.5661,-3.5862,-3.5862,-3.5661,-3.5862,-3.6329,-3.7028,-3.765,-3.7893,-3.7893,-3.7893,-3.7973,-3.812,-3.8524,-3.8579,-3.8414,-3.8615,-3.8579,-3.8414,-3.8615,-3.8707,-3.8707,-3.8707,-3.8707,-3.8799,0.0,0.0,0.0,0.0,0.0,0.0,0.0,0.0,0.0,0.0,0.0,0.0,-2.0069,-1.9968,-1.9951,-2.0002,-2.0002,-2.0348,-2.1153,-2.1204,-2.1498,-2.2226,-2.2243,0.0,-2.2158,-2.2158,-2.2124,-2.2073,-2.2158,-2.2226,-2.2327,-2.3376,-2.3863,-2.3795,-2.3528,-2.3021,-2.2361,-2.2327,-2.231,-2.2243,-2.1532,-2.1271,-2.1228,-2.0972,-2.0882,-2.1011,-2.1949,-2.2303,-2.2302,-2.2298,-2.231,-2.231,-2.231,-2.231,-2.231,0.0,0.0,0.0,-2.2423,-2.2496,-2.2552,-2.262,-2.3816,-2.5749,-2.8746,-2.8644,-2.8631,-3.1034,-3.1742,-3.1981,-3.2175,-3.3442,-3.4293,-3.3743,-3.4134,0.0,0.0,0.0,0.0,0.0,0.0,0.0,0.0,0.0,0.0,0.0,-3.119,-3.1218,-3.2635,-3.2465,-3.2811,-3.3899,-3.4688,-3.4706,-3.3935,-3.4706,-3.5287,-3.5716,-3.5752,-3.577,-3.577,-3.577,-3.5994,-3.6505,-3.8046,-3.8267,-3.7606,-3.8395,-3.8248,-3.7624,-3.8395,-3.8707,-3.8707,-3.8707,-3.8707,-3.8707,0.0,0.0,0.0,0.0,0.0,0.0,0.0,0.0,0.0,0.0,0.0,0.0,0.0,-2.0771,-2.0957,-2.1421,-2.1498,-2.1617,-2.1887,-2.163,-2.157,-2.1853,-2.1615,-2.1554,-2.1705,-2.2106,-2.231,-2.231,-2.231,-2.231,-2.2327,-2.3325,-2.3444,-2.2852,-2.3224,-2.3241,-2.297,-2.2513,-2.231,-2.2243,-2.1498,-2.1204,-2.117,-2.0917,-2.0816,-2.0935,-2.1958,-2.2293,-2.2285,-2.2298,-2.231,-2.231,-2.231,-2.231,-2.231,-2.231,-2.231,-2.231,-2.231,-2.231,-2.231,-2.231,-2.2699,-2.3806,-2.6528,-2.6813,-2.7151,-2.9485,-2.9747,-2.973,-3.03,-3.1846,-3.2906,-3.272,-3.2474,0.0,0.0,0.0,0.0,0.0,0.0,0.0,0.0,0.0,0.0,0.0,0.0,-3.0553,-3.1103,-3.147,-3.1834,-3.2254,-3.3014,-3.3252,-3.2965,-3.4069,-3.4532,-3.4398,-3.4898,-3.5164,-3.5164,-3.5164,-3.5232,-3.5418,-3.6026,-3.6445,-3.678,-3.7588,-3.7459,-3.6853,-3.8175,-3.8377,-3.7991,-3.8505,-3.8707,-3.8707,0.0,0.0,0.0,0.0,0.0,0.0,0.0,0.0,0.0,-1.9968,0.0,0.0,0.0,0.0,-2.1769,-2.226,-2.231,-2.2237,-2.2077,-2.1764,-2.1521,-2.1399,-2.115,-2.1086,-2.1244,-2.1645,-2.1995,-2.2303,-2.2157,-2.2152,-2.2327,-2.297,-2.2936,-2.2327,-2.2818,-2.3038,-2.3004,-2.2513,-2.231,-2.226,-2.1769,-2.1249,-2.0831,-2.1165,-2.0994,-2.073,0.0,0.0,-2.2285,-2.2298,-2.231,-2.231,-2.231,-2.231,-2.231,-2.231,-2.231,-2.231,-2.231,-2.231,-2.231,-2.231,-2.231,-2.2841,-2.4913,-2.524,-2.56,-2.7419,-2.7587,-2.7568,-2.8147,-2.9261,-3.0277,-3.1094,-3.0768,0.0,0.0,0.0,0.0,0.0,0.0,0.0,0.0,0.0,0.0,0.0,0.0,0.0,-2.9869,-3.0225,-3.0723,-3.1395,-3.1895,-3.2252,-3.2484,-3.3344,-3.3529,-3.3072,-3.36,-3.3847,-3.3847,-3.3847,-3.3952,-3.4091,-3.4091,-3.4605,-3.5478,-3.6308,-3.6144,-3.5581,-3.6908,-3.7202,-3.6949,-3.7771,-3.8175,-3.834,0.0,0.0,0.0,0.0,0.0,0.0,0.0,0.0,-1.9198,-1.99,0.0,0.0,0.0,0.0,0.0,-2.231,-2.2282,-2.2077,-2.1628,-2.1582,-2.1399,-2.0991,-2.0959,-2.0959,-2.0959,-2.0959,-2.1406,-2.2258,-2.1807,-2.1823,-2.231,-2.231,-2.231,-2.231,-2.231,-2.231,-2.231,-2.231,-2.231,-2.2304,-2.2297,-2.1387,-2.0162,-2.16,-2.1293,-2.0389,-2.2875,-2.309,0.0,-2.2298,0.0,0.0,-2.231,-2.231,-2.231,-2.231,-2.231,-2.231,0.0,0.0,0.0,-2.231,-2.231,-2.2592,-2.3707,0.0,-2.3709,-2.4815,-2.5326,-2.5541,-2.5575,-2.5575,-2.6285,-2.8501,-2.8892,0.0,0.0,0.0,0.0,0.0,0.0,0.0,0.0,0.0,0.0,0.0,-2.7333,-2.736,-2.8959,-2.8666,-2.935,-3.126,-3.1345,-3.1668,-3.238,-3.2413,-3.2177,-3.1719,-3.1737,-3.1754,-3.1754,-3.1771,-3.2022,-3.2451,-3.2451,-3.2908,-3.3686,-3.4516,-3.4375,-3.3737,-3.4587,-3.5146,-3.5634,-3.6465,-3.7067,-3.7569,0.0,0.0,0.0,0.0,0.0,0.0,-1.9393,-1.9545,-1.9765,0.0,0.0,0.0,-2.1465,-2.1989,-2.231,-2.231,-2.2003,-2.1718,-2.1628,-2.1007,-2.0616,-2.0516,-2.0193,-2.005,-2.005,-2.0364,-2.0795,-2.1342,-2.1509,-2.1823,-2.231,-2.231,-2.231,-2.231,-2.231,-2.231,-2.231,-2.231,-2.231,-2.231,-2.2303,-2.1375,-1.9926,-1.9302,-2.0133,0.0,0.0,-2.2072,-2.1341,0.0,-2.231,-2.231,0.0,-2.231,-2.231,-2.231,-2.231,-2.231,-2.231,0.0,0.0,0.0,0.0,0.0,0.0,0.0,-2.3079,-2.3745,-2.4127,-2.4464,-2.4757,-2.478,-2.5,-2.5658,-2.5759,-2.5759,0.0,0.0,0.0,0.0,0.0,0.0,0.0,0.0,0.0,0.0,-2.6877,-2.691,-2.7343,-2.7759,-2.8528,-2.9626,-2.9952,-3.0056,-2.9969,-3.0265,-3.0196,-2.9787,-3.0333,-3.0551,-3.0585,-3.1096,-3.1466,-3.1562,-3.1562,-3.1682,-3.1981,-3.3459,-3.356,-3.296,-3.4357,-3.4638,-3.4385,-3.574,-3.6175,-3.6331,0.0,0.0,0.0,0.0,0.0,-2.0399,-2.0052,-2.0272,-2.05,0.0,0.0,0.0,-2.1617,-2.2327,-2.2574,-2.2065,-2.1764,-2.146,-2.1102,-2.0567,-2.0212,-2.0054,-1.9854,-1.969,-1.969,-1.9945,-2.0261,-2.0731,-2.115,-2.1552,-2.1936,-2.2192,-2.231,-2.231,-2.231,-2.231,-2.231,-2.231,-2.231,-2.231,-2.231,-2.1742,-2.0719,-1.861,-1.9671,0.0,0.0,0.0,-2.1515,-2.2107,-2.2135,0.0,0.0,-2.1735,-2.1982,-2.2237,-2.231,-2.231,-2.231,-2.231,-2.231,-2.231,0.0,0.0,-2.231,-2.2426,-2.261,0.0,-2.3107,-2.3311,-2.3553,-2.3579,-2.3579,-2.3579,-2.3579,-2.3799,0.0,0.0,0.0,0.0,0.0,0.0,0.0,-2.5135,-2.5321,-2.5744,-2.5778,-2.5913,-2.6218,-2.6945,-2.7706,-2.8467,-2.8733,-2.8886,-2.9011,-2.9246,-2.9246,-2.9028,-2.9431,-2.9803,-3.0125,-3.0548,-3.0903,-3.119,-3.119,-3.119,-3.1263,-3.2254,-3.2386,-3.2037,-3.2979,-3.3158,-3.3038,-3.432,-3.48,-3.5014,0.0,0.0,-1.9934,-1.9384,-2.0467,-2.1228,-2.0593,-2.1109,-2.1576,0.0,-2.1576,-2.1803,-2.2479,-2.3054,-2.2958,-2.1823,-2.1601,-2.1197,-2.0348,-2.0246,-2.0054,-1.9726,-1.969,-1.969,-1.969,-1.969,-1.9874,-2.0212,-2.0651,-2.1085,-2.1516,-2.2044,-2.231,-2.231,-2.231,-2.231,-2.231,-2.231,-2.231,-2.231,-2.231,-2.2107,-2.1515,0.0,-1.9688,-2.2479,-2.3782,-2.341,-2.231,-2.231,-2.1945,0.0,0.0,0.0,0.0,0.0,-2.231,-2.231,-2.231,-2.231,-2.231,-2.231,-2.231,0.0,-2.231,-2.231,-2.231,0.0,-2.231,-2.231,-2.231,-2.231,-2.231,-2.231,-2.231,-2.2767,0.0,0.0,0.0,0.0,0.0,0.0,-2.4388,-2.4388,-2.4421,-2.4506,-2.4506,-2.478,-2.5439,-2.6184,-2.6877,-2.7519,-2.762,-2.8027,-2.8757,-2.8721,-2.8721,-2.8738,-2.8822,-2.9211,-2.9854,-3.004,-3.0412,-3.0954,-3.1123,-3.114,-3.1072,-3.1157,-3.119,-3.119,-3.119,-3.1411,-3.1856,-3.2689,-3.321,-3.3722,0.0,-2.0331,-2.1109,-2.1566,-2.2378,-2.3105,-2.3545,-2.3778,-2.3863,-2.3863,-2.3863,-2.3913,-2.4052,-2.3663,-2.316,-2.2547,-2.1663,-2.0878,-2.0348,-2.0,-1.9782,-1.9711,-1.969,-1.969,-1.969,-1.969,-1.9747,-1.9818,-1.9916,-2.0703,-2.2142,-2.2252,-2.231,-2.231,-2.231,-2.231,-2.231,-2.231,-2.231,-2.231,-2.231,-2.0856,-1.8623,-1.8031,-1.9688,-2.2344,-2.2632,-2.2547,-2.231,-2.231,-2.2209,-2.2118,0.0,0.0,0.0,-2.2265,0.0,-2.231,-2.231,-2.231,0.0,0.0,0.0,0.0,-2.231,-2.231,-2.231,0.0,-2.231,-2.231,-2.231,-2.231,-2.231,-2.231,-2.231,-2.2412,-2.2699,0.0,0.0,0.0,0.0,0.0,-2.3562,-2.3613,-2.3849,-2.4472,-2.4506,-2.4574,-2.4726,-2.5406,-2.5896,-2.6031,-2.6607,-2.6979,-2.7131,-2.7131,-2.7131,-2.7148,-2.7757,-2.8129,-2.8279,-2.955,-2.9854,-2.9482,-3.0666,-3.0869,-3.0362,-3.0954,-3.119,-3.119,-3.119,-3.1269,-3.1414,-3.2185,-3.2342,-3.2403,-1.982,-2.0807,-2.187,-2.2243,-2.3207,-2.4052,-2.4455,-2.4797,-2.505,-2.505,-2.5355,-2.5336,-2.4591,-2.4271,-2.3619,-2.2508,-2.1628,-2.0824,-2.005,-1.9803,-1.969,-1.969,-1.969,-1.969,-1.969,-1.969,-1.969,-1.969,-1.9999,-2.0447,-2.1022,-2.1899,-2.231,-2.231,-2.231,-2.231,-2.231,-2.231,-2.231,-2.231,-2.231,0.0,-1.7963,-1.9461,-2.0991,-2.231,-2.231,-2.231,-2.2169,-2.1451,-2.1499,0.0,-2.154,-2.164,-2.1907,0.0,-2.231,-2.231,0.0,0.0,0.0,-2.231,0.0,0.0,0.0,-2.231,-2.231,-2.231,-2.231,-2.231,-2.231,-2.231,-2.231,-2.231,-2.231,-2.231,-2.231,-2.231,0.0,0.0,0.0,0.0,-2.2818,-2.2852,-2.3004,-2.3376,-2.3731,-2.3934,-2.3934,-2.4644,-2.505,-2.505,-2.5761,-2.615,-2.615,-2.6522,-2.6691,-2.6691,-2.708,-2.7452,-2.7806,-2.8619,-2.9178,-2.9567,-2.9922,-3.0091,-3.0142,-3.0497,-3.0649,-3.0683,-3.1055,-3.119,-3.1241,-3.1613,-3.1635,-3.1679,-1.9914,-2.1099,-2.2316,-2.2365,-2.3566,-2.4506,-2.4506,-2.5118,-2.5659,-2.5795,-2.6336,-2.6234,-2.5033,-2.4829,-2.4113,-2.2613,-2.1808,-2.1038,-2.0347,-1.9993,-1.9843,-1.9869,-1.975,-1.969,-1.969,-1.969,-1.969,-1.969,-2.0184,-2.0352,-2.0217,-2.1652,-2.231,-2.231,-2.231,-2.231,-2.231,-2.231,-2.231,-2.231,0.0,-2.0856,-1.8944,-2.138,-2.231,-2.231,-2.231,-2.218,-2.1886,-2.087,-2.0927,-2.1362,-2.104,-2.1234,0.0,0.0,0.0,0.0,0.0,0.0,0.0,0.0,0.0,-2.2479,0.0,0.0,0.0,-2.231,-2.231,0.0,0.0,0.0,0.0,0.0,0.0,0.0,0.0,-2.231,0.0,0.0,0.0,0.0,-2.231,-2.231,-2.231,-2.231,-2.2852,-2.319,-2.319,-2.3883,-2.4303,-2.4303,-2.5,-2.5389,-2.5389,-2.6116,-2.6488,-2.6488,-2.6623,-2.7012,-2.757,-2.7722,-2.8416,-2.9431,-2.911,-2.9245,-2.9685,-2.9989,-3.0108,-3.0176,-3.0903,-3.119,-3.119,-3.119,-3.119,-3.1309,-2.0846,-2.1606,-2.2365,-2.2607,-2.3687,-2.4506,-2.4506,-2.5118,-2.5845,-2.6488,-2.664,-2.6623,-2.6454,-2.5306,-2.4347,-2.3907,-2.2458,-2.1788,-2.234,-2.1027,-2.0345,-2.0572,-2.0019,-1.969,-1.969,-1.969,-1.969,-1.969,-1.9779,-2.0543,-2.2021,-2.2208,-2.231,-2.231,-2.231,-2.231,-2.231,-2.231,-2.231,0.0,-2.231,-2.2107,0.0,-2.2175,-2.231,-2.231,-2.231,-2.1781,-2.1244,0.0,-2.1845,-2.1642,0.0,-2.2141,-2.2192,-2.2282,0.0,0.0,0.0,0.0,0.0,0.0,-2.2801,0.0,0.0,0.0,-2.231,-2.231,0.0,0.0,0.0,0.0,0.0,0.0,0.0,0.0,-2.231,-2.231,-2.231,-2.231,0.0,0.0,0.0,-2.231,-2.231,-2.231,-2.2395,-2.2429,-2.2429,-2.3122,-2.3511,-2.3511,-2.4222,-2.4611,-2.4611,-2.5355,-2.5727,-2.5744,-2.6387,-2.6742,-2.6843,-2.752,-2.7554,-2.7148,-2.8433,-2.8636,-2.8161,-2.955,-3.0108,-3.0176,-3.0903,-3.119,-3.119,-3.119,-3.119,-3.1309,-2.0583,-2.1306,-2.2056,-2.2613,-2.3354,-2.3924,-2.4126,-2.5864,-2.7257,-2.752,-2.8605,-2.8975,-2.8112,-2.6852,-2.5579,-2.4337,0.0,-2.3233,0.0,0.0,-2.1031,-2.0881,-2.0131,-1.9692,-1.9723,-1.9707,-1.969,-1.969,-2.0211,-2.1087,-2.2296,-2.2304,-2.231,-2.2282,-2.1936,-2.1982,-2.231,-2.231,-2.231,0.0,0.0,-2.1691,0.0,-2.1915,-2.231,-2.2237,-2.1721,-2.1415,-2.1244,0.0,-2.1415,0.0,0.0,0.0,0.0,-2.2209,0.0,0.0,0.0,0.0,0.0,0.0,0.0,0.0,-2.2378,0.0,-2.231,0.0,0.0,0.0,0.0,0.0,0.0,0.0,-2.231,0.0,0.0,0.0,-2.231,0.0,0.0,0.0,0.0,0.0,0.0,0.0,-2.231,-2.231,-2.231,-2.2598,-2.2767,-2.2767,-2.3477,-2.3849,-2.3849,-2.5017,-2.5609,-2.5609,-2.6353,-2.6691,-2.6708,-2.7012,-2.7232,-2.7351,-2.7571,-2.7723,-2.784,-2.8518,-2.9042,-2.9533,-3.0277,-3.0818,-3.119,-3.119,-3.119,-3.1309,-2.0124,-2.0846,-2.1593,-2.2131,-2.2661,-2.3167,-2.3556,-2.604,-2.8012,-2.8352,-2.957,-3.0176,-2.9663,-2.8444,0.0,0.0,-2.4569,-2.362,0.0,0.0,-2.1797,-2.1203,-2.0572,0.0,-1.9723,-1.9685,-1.969,-1.969,-2.0312,-2.1077,-2.1924,-2.1873,-2.1924,-2.2106,-2.1622,-2.1744,-2.231,-2.231,-2.231,-2.231,-2.231,-2.126,-1.9889,-2.1631,-2.202,-2.1554,-2.1415,-2.1181,-2.0926,-2.0894,-2.0764,0.0,-2.1275,0.0,-2.1658,0.0,0.0,0.0,-2.2282,0.0,0.0,0.0,0.0,0.0,0.0,0.0,0.0,0.0,0.0,0.0,0.0,0.0,-2.231,-2.231,0.0,-2.231,0.0,-2.231,0.0,0.0,0.0,0.0,0.0,0.0,0.0,-2.1989,-2.2006,-2.209,-2.2293,-2.231,-2.231,-2.231,-2.2818,-2.3105,-2.3105,-2.4357,-2.5101,-2.5304,-2.6048,-2.6488,-2.6691,-2.6691,-2.6996,-2.7486,-2.6928,-2.6996,-2.752,-2.7705,-2.8281,-2.9059,-2.982,-3.0548,-3.119,-3.119,-3.119,-3.1309,-1.9711,-2.0413,-2.1039,-2.1055,-2.1648,-2.2328,-2.285,-2.5113,-2.7301,0.0,0.0,0.0,0.0,0.0,0.0,0.0,0.0,-2.2188,-2.461,0.0,-2.2588,0.0,0.0,-2.1016,0.0,-1.969,-1.969,-1.969,-1.9726,-2.0192,-2.1031,-2.0782,-2.102,-2.1628,-2.146,-2.1735,-2.231,-2.231,-2.231,-2.231,-2.231,-2.126,-1.9889,0.0,-2.126,-2.0015,-2.1645,0.0,0.0,-2.0429,-2.0224,0.0,0.0,0.0,0.0,0.0,0.0,0.0,0.0,0.0,0.0,-2.1685,0.0,0.0,0.0,0.0,-2.231,0.0,0.0,0.0,0.0,0.0,-2.231,-2.231,-2.231,0.0,0.0,0.0,0.0,0.0,0.0,0.0,0.0,0.0,-2.0416,-2.1187,-2.1254,-2.1532,-2.2276,-2.231,-2.231,-2.231,-2.2327,-2.2344,-2.2344,-2.3088,-2.3816,-2.4557,-2.5287,-2.6015,-2.6691,-2.6691,-2.6708,-2.6725,-2.6708,-2.6708,-2.6793,-2.752,-2.8281,-2.9059,-2.982,-3.0548,-3.119,-3.119,-3.119,-3.1309,-2.0089,-2.0104,-2.0208,-2.0483,-2.16,-2.2834,0.0,-2.5771,0.0,0.0,-3.2071,0.0,0.0,-3.1348,-2.9822,0.0,0.0,-2.3106,-2.1569,-2.1045,0.0,0.0,0.0,-2.195,0.0,0.0,-1.969,-1.969,-2.0277,-2.041,-2.0142,-2.0449,-2.0716,-2.0926,-2.1071,-2.1354,0.0,0.0,0.0,0.0,0.0,-2.0208,-1.9747,0.0,0.0,-1.9782,-2.0379,-2.0364,0.0,-2.0015,-1.9889,-1.9782,-2.0364,-2.0649,-2.0797,-2.1118,-2.1213,0.0,0.0,0.0,-2.1344,-2.1246,0.0,0.0,0.0,0.0,0.0,0.0,0.0,0.0,0.0,-2.1675,-2.1735,-2.1493,-2.1675,-2.184,0.0,0.0,0.0,0.0,0.0,0.0,0.0,0.0,0.0,-2.1153,-2.1204,-2.1515,-2.226,-2.231,-2.231,-2.231,-2.231,-2.231,-2.231,-2.3511,-2.4239,-2.4523,-2.543,-2.5994,-2.621,-2.5872,-2.5709,-2.5709,-2.5709,-2.5709,-2.5762,-2.6369,-2.6842,-2.7322,-2.8367,-2.9254,-3.0032,-3.0886,-3.119,-3.1376,-2.0407,-2.0162,-2.018,-2.0582,0.0,0.0,0.0,0.0,0.0,0.0,-3.3379,0.0,-3.4151,0.0,-3.1369,0.0,-2.825,-2.554,-2.1366,-2.0221,0.0,-2.3505,-2.2705,0.0,0.0,0.0,0.0,0.0,-2.0277,-2.0243,-1.9726,-2.0085,-2.0292,-2.0292,-2.0447,-2.0862,-2.1337,-2.0174,-1.969,0.0,0.0,-1.969,0.0,0.0,-1.969,-1.969,0.0,-1.9874,-2.007,-1.9782,-1.969,-1.9747,-2.0,-2.0177,-2.0348,-2.0649,-2.0764,-2.0797,-2.0959,-2.0764,0.0,-2.0731,-2.0764,0.0,-2.0764,0.0,0.0,0.0,0.0,0.0,0.0,0.0,-2.1306,-2.1023,-2.1213,-2.1399,0.0,-2.0817,0.0,0.0,0.0,0.0,0.0,-1.9444,-1.9942,-2.0703,-2.1025,-2.1515,0.0,0.0,-2.231,-2.231,-2.231,-2.2209,-2.2032,-2.2983,-2.3641,-2.4016,-2.4638,-2.5236,-2.5689,-2.5373,-2.5221,-2.5221,-2.5221,-2.5221,-2.5221,-2.5577,-2.6069,-2.6736,-2.7502,-2.8445,-2.9443,-3.0492,-3.1015,-3.141,-2.0671,-2.0649,0.0,0.0,-2.3967,0.0,0.0,0.0,-3.0061,0.0,-3.2723,-3.4199,-3.5453,-3.432,-3.2842,-3.1337,-3.1128,-2.8992,-2.4123,-2.1357,0.0,0.0,-2.1081,-2.0842,-2.335,0.0,0.0,0.0,0.0,-1.969,-1.969,-1.969,-1.969,-1.969,-1.969,-2.0296,-2.1244,-2.0174,-1.9711,-1.969,-1.969,-1.969,-1.969,-1.969,-1.969,-1.969,-1.969,-1.969,-1.969,-1.969,-1.969,-1.969,-1.969,-1.9965,-2.028,-2.028,-2.028,-2.0382,-2.0829,-2.0345,-1.9782,-2.0193,0.0,0.0,0.0,0.0,-2.0942,0.0,0.0,0.0,0.0,0.0,0.0,-2.0926,-2.0959,-2.0959,-2.0959,0.0,-1.9058,0.0,0.0,0.0,0.0,-1.8414,-1.914,-1.9909,-2.0677,-2.1465,0.0,0.0,-2.2237,-2.2254,-2.2254,-2.2032,-2.1582,-2.1634,-2.2166,-2.3119,-2.3147,-2.3866,-2.5144,-2.5128,-2.5144,-2.5144,-2.5144,-2.5144,-2.5144,-2.5144,-2.5959,-2.7163,-2.7237,-2.8115,-2.9406,-3.0038,-3.0658,-3.1354,-2.196,-2.2732,-2.367,0.0,-2.4818,-2.5889,0.0,0.0,0.0,0.0,-3.607,-3.7659,-3.5779,-3.4706,-3.3373,-3.1556,-3.021,0.0,0.0,0.0,0.0,-2.3565,-2.1081,-2.0002,-2.0706,-2.1023,-2.0692,-1.969,0.0,-1.969,-1.969,-1.969,-1.969,-1.969,-1.969,-1.9839,-2.0139,-2.0124,-1.9965,-1.969,-1.969,-1.969,-1.969,0.0,-1.969,-1.969,-1.969,-1.969,-1.969,-1.969,-1.969,-1.969,-1.969,-1.9782,-1.9839,-1.9839,-1.9839,-1.9874,-2.0015,-1.9889,-1.9711,-1.9854,-1.9839,-1.9839,0.0,0.0,0.0,0.0,0.0,0.0,0.0,0.0,0.0,-2.0085,-2.0296,-2.0483,-2.0483,0.0,0.0,-1.9755,0.0,0.0,-1.7474,-1.7605,-1.8236,-1.9515,-1.977,-2.0577,-2.2215,0.0,0.0,-2.1764,-2.1477,-2.1291,-2.115,-2.2198,-2.2854,-2.3119,-2.3784,-2.4248,-2.4592,-2.4199,-2.3991,-2.3991,-2.3991,-2.3991,-2.4032,-2.443,-2.4874,-2.5375,-2.6264,-2.7469,-2.8779,-2.9406,-3.0021,-3.0651,-2.2887,-2.4382,0.0,-2.6926,0.0,0.0,-3.0135,-3.0139,0.0,-3.5779,-3.6823,0.0,-3.5707,-3.4509,-3.3162,-3.1677,-3.0035,0.0,-2.5993,0.0,0.0,-2.3595,-2.1081,-1.969,-1.969,-2.0423,0.0,-1.969,0.0,-1.969,-1.969,-1.969,-1.969,-1.969,-1.969,-1.969,-1.9711,-1.9929,-1.9909,-1.969,-1.969,-1.969,0.0,-1.969,-1.969,-1.969,-1.969,-1.969,-1.969,-1.969,-1.969,-1.969,-1.969,-1.969,-1.969,-1.969,-1.969,-1.969,-1.969,-1.969,-1.969,-1.969,-1.969,-1.969,-1.969,-1.969,-1.969,0.0,0.0,0.0,0.0,0.0,0.0,-1.9747,-1.9874,-2.0035,0.0,0.0,0.0,0.0,-1.8515,0.0,-1.7311,-1.7455,-1.8013,-1.9165,-1.95,-2.027,0.0,0.0,0.0,-2.1337,-2.1713,-2.1498,-2.0698,-2.235,-2.2948,-2.2496,-2.3277,-2.3799,-2.4032,-2.3767,-2.3595,-2.3595,-2.3595,-2.3774,-2.4029,-2.4043,-2.4637,-2.5555,-2.6563,-2.742,-2.8171,-2.8804,-2.9404,-2.9989,-2.3876,-2.5936,0.0,0.0,0.0,0.0,0.0,-3.1825,0.0,-3.8326,0.0,-3.3901,-3.5178,-3.3822,-3.2443,-3.152,0.0,-2.7684,-2.4191,-2.3729,-2.3595,-2.3595,-2.1081,-1.969,-1.969,-1.969,-1.969,0.0,0.0,-1.969,-1.969,-1.969,-1.969,-1.969,-1.969,-1.969,-1.969,-1.969,-1.969,-1.969,-1.969,-1.969,-1.969,-1.969,-1.969,-1.969,-1.969,-1.969,-1.969,-1.969,-1.969,-1.969,-1.969,-1.969,-1.969,-1.969,-1.969,-1.969,-1.969,-1.969,-1.969,-1.969,-1.975,-1.9794,-1.9705,-1.975,-1.9794,-1.9705,-1.969,-1.969,0.0,0.0,0.0,-1.969,0.0,0.0,0.0,0.0,0.0,0.0,0.0,0.0,0.0,0.0,-1.8099,-1.8773,-1.9395,0.0,0.0,0.0,0.0,-2.0894,-2.2001,-2.1898,-2.0505,0.0,-2.2696,-2.1964,-2.2517,-2.3071,-2.3595,-2.3595,-2.3595,-2.3595,-2.3595,-2.3984,-2.4537,-2.3984,-2.4866,-2.6662,-2.737,-2.7619,-2.7769,-2.8278,-2.8851,-2.9545,-2.6161,0.0,0.0,0.0,0.0,-3.4489,-3.5611,-3.5273,-3.4313,-3.2961,-3.3146,-3.3502,-3.3745,-3.2618,-3.1502,-3.0751,-2.8991,0.0,0.0,0.0,0.0,-2.3595,-2.1081,-1.969,-1.969,-1.969,-1.969,0.0,0.0,-1.969,-1.969,-1.969,-1.969,-1.969,-1.969,-1.969,-1.969,-1.969,0.0,-1.969,-1.969,-1.969,-1.969,-1.969,-1.969,-1.969,-1.969,-1.969,-1.969,-1.969,-1.969,-1.969,-1.969,-1.969,-1.969,-1.969,-1.969,-1.969,-1.969,-1.969,-1.969,-1.969,-2.0109,-2.0378,-1.9809,-2.0124,-2.0378,-1.9794,-1.969,-1.969,-1.969,0.0,0.0,0.0,0.0,0.0,0.0,0.0,0.0,0.0,0.0,-1.8527,0.0,0.0,0.0,0.0,0.0,0.0,0.0,0.0,0.0,0.0,-2.0334,0.0,0.0,0.0,-2.2404,-2.3266,-2.3385,-2.349,-2.3595,-2.3595,-2.3595,-2.3595,-2.3595,-2.3984,-2.4567,-2.4448,-2.53,-2.6662,-2.737,-2.7919,-2.8368,-2.7919,-2.8523,-2.9629,-2.8622,0.0,0.0,0.0,0.0,0.0,0.0,-3.6746,-3.6799,-3.5919,-3.3791,-3.2367,-3.2449,-3.1118,-2.9996,-2.9548,-2.8357,-2.7055,-2.5721,-2.4343,-2.2996,-2.1635,-2.0363,-1.969,-1.969,-1.969,-1.969,-1.969,0.0,0.0,-1.969,-1.969,-1.969,-1.969,-1.969,-1.969,0.0,0.0,0.0,-1.969,-1.969,-1.969,-1.969,-1.969,-1.969,-1.969,-1.969,-1.969,-1.969,-1.969,-1.969,-1.969,-1.969,-1.969,-1.969,-1.969,-1.969,-1.969,-1.969,-1.969,-1.969,-1.969,-1.9929,-2.0094,-1.9765,-1.9944,-2.0094,-1.975,-1.969,-1.969,-1.969,-1.969,0.0,0.0,0.0,0.0,0.0,0.0,0.0,0.0,0.0,0.0,0.0,0.0,0.0,0.0,0.0,0.0,0.0,0.0,0.0,0.0,0.0,0.0,0.0,0.0,0.0,-2.3131,-2.3445,-2.3595,-2.3595,-2.3595,-2.3789,-2.4118,-2.3759,-2.4388,-2.5674,-2.6019,-2.6333,-2.6662,-2.737,-2.7784,-2.8113,-2.8472,-2.9026,-2.9574,0.0,-3.1189,0.0,0.0,-3.4353,0.0,-3.5744,-3.7311,-3.8665,-3.9395,-3.5168,-3.182,-3.1342,-3.0071,-2.91,-2.8685,-2.7719,-2.6576,-2.5107,-2.4103,-2.2592,-2.0333,-1.9884,-1.969,-1.969,-1.969,-1.969,0.0,0.0,0.0,0.0,-2.0198,-2.0124,0.0,0.0,0.0,0.0,0.0,-1.9639,-1.953,-1.9639,-1.9639,-1.953,-1.9639,-1.969,-1.969,-1.969,-1.969,-1.969,-1.969,-1.969,-1.969,-1.969,-1.969,-1.969,-1.969,-1.969,-1.969,-1.969,-1.969,-1.969,-1.969,-1.9794,-1.9899,-1.9899,-1.9899,-1.9899,-1.9899,-1.9794,-1.969,-1.969,-1.969,0.0,0.0,0.0,0.0,0.0,0.0,0.0,0.0,0.0,0.0,-1.8957,0.0,0.0,0.0,0.0,0.0,0.0,0.0,0.0,0.0,0.0,-2.144,-2.1335,0.0,-2.3161,-2.3101,-2.343,-2.3595,-2.3595,-2.3595,-2.3984,-2.4552,-2.4059,-2.4866,-2.6632,-2.7305,-2.726,-2.6841,-2.7365,-2.779,-2.8165,-2.9026,-2.9639,-2.9909,0.0,0.0,0.0,0.0,0.0,0.0,-3.6582,-3.7287,-3.7776,-3.7525,-3.5508,-3.3103,-3.0528,-3.0357,-2.999,-2.8873,-2.6962,-2.5555,-2.5047,-2.4103,-2.3131,-2.2099,-2.0528,-1.969,-1.969,-1.969,-1.969,0.0,0.0,-2.15,0.0,0.0,0.0,0.0,0.0,0.0,0.0,-1.969,-1.9406,-1.9006,-1.9479,-1.9406,-1.9043,-1.953,-1.969,-1.969,-1.969,-1.969,-1.969,-1.969,-1.969,-1.969,-1.969,-1.969,-1.969,-1.969,-1.969,-1.969,-1.969,-1.969,-1.969,-1.969,-2.0154,-2.0617,-2.0617,-2.0617,-2.0617,-2.0617,-2.0124,-1.969,-1.969,-1.969,-1.969,0.0,0.0,0.0,0.0,0.0,-1.9169,-1.9639,0.0,0.0,0.0,-1.96,0.0,0.0,-1.9031,0.0,0.0,0.0,0.0,-2.0617,0.0,-2.162,-2.331,-2.2353,-2.2742,-2.4433,-2.3864,-2.3595,-2.3595,-2.3595,-2.3984,-2.4582,-2.4507,-2.5315,-2.6632,-2.7305,-2.758,-2.7535,-2.7595,-2.8323,-2.9325,-2.8861,-2.9819,-3.1255,0.0,0.0,0.0,0.0,0.0,0.0,0.0,-3.598,-3.5773,-3.3981,-3.2484,-3.0991,-2.9514,-2.9392,-2.885,-2.7405,-2.6044,-2.4911,-2.4193,-2.331,-2.2562,-2.1964,-2.0991,-2.0228,-1.969,-1.969,-1.969,0.0,0.0,0.0,0.0,0.0,0.0,0.0,0.0,-2.0782,-2.0857,-2.0135,-1.9691,-1.9493,-1.9293,-1.9095,-1.8968,-1.9479,-1.969,-1.969,-1.969,-1.969,-1.969,-1.969,-1.969,-1.969,-1.969,-1.969,-1.969,-1.969,-1.969,-1.969,-1.969,-1.969,-1.969,-1.969,-1.9884,-2.0213,-2.0617,-2.0722,-2.0722,-2.0722,-2.0168,-1.969,-1.969,-1.969,-1.969,0.0,0.0,0.0,0.0,0.0,0.0,-1.9244,0.0,-1.9095,0.0,0.0,0.0,0.0,0.0,0.0,0.0,0.0,0.0,-2.0707,0.0,-2.1036,-2.3026,-2.2158,-2.2473,-2.4014,-2.3729,-2.3595,-2.361,-2.4029,-2.4582,-2.527,-2.6048,-2.6467,-2.6632,-2.7305,-2.7814,-2.8188,-2.8188,-2.8757,-2.9594,-2.9699,-3.0238,-3.0941,-3.4771,0.0,-3.3844,0.0,-3.4711,-3.428,-3.4718,-3.4736,-3.4044,-3.2152,-3.0406,-2.9232,-2.8881,-2.8525,-2.7859,-2.6801,-2.5601,-2.4672,-2.4223,-2.3071,-2.2128,-2.1515,-2.1111,0.0,-1.9705,-1.969,-1.969,-1.969,-2.0842,0.0,0.0,0.0,0.0,0.0,-2.1201,-2.1347,-2.1325,-2.032,-1.9712,-1.9373,-1.8882,-1.8574,-1.8496,-1.9043,-1.945,-1.9753,-1.9753,-1.9864,-1.9989,-1.9989,-1.9989,-1.9944,-1.975,-1.969,-1.972,-1.9929,-1.9989,-2.0034,-2.0228,-2.0273,-2.0273,-2.0273,-2.0273,-2.0453,-2.1141,-2.1141,-2.0914,-2.0729,-2.0029,-1.9447,-1.9447,-1.9338,-1.9281,-1.9442,0.0,0.0,0.0,0.0,0.0,0.0,-1.865,-1.8535,-1.8145,-1.8458,0.0,0.0,0.0,0.0,0.0,0.0,0.0,0.0,0.0,0.0,0.0,-2.2218,-2.2517,-2.3595,-2.3595,-2.3699,-2.3924,-2.4807,-2.5465,-2.5959,-2.7081,-2.7305,-2.6916,-2.743,-2.7979,-2.8607,-2.8607,-2.9116,-2.9909,-3.0342,-3.0627,-3.0881,-3.5489,-3.5474,-3.5474,-3.5504,-3.5489,-3.5449,-3.5483,-3.3948,-3.2824,-3.2781,-3.0514,-2.8812,-2.8652,-2.7993,-2.7625,-2.761,-2.5764,-2.4896,-2.554,-2.3759,-2.2173,0.0,0.0,-2.0393,-1.969,-1.969,-1.969,-1.969,0.0,0.0,-2.0752,0.0,-2.2308,-2.171,-2.2368,-2.196,-2.0694,-2.0131,-1.9251,-1.82,-1.8153,-1.7787,-1.7394,-1.7907,-1.8852,-1.9912,-1.9912,-2.024,-2.0707,-2.0707,-2.0707,-2.0587,-1.9899,-1.969,-1.9824,-2.0498,-2.0707,-2.0842,-2.15,-2.168,-2.168,-2.168,-2.168,-2.1844,-2.2503,-2.2143,-2.1505,-2.0862,-1.9754,-1.8907,-1.8907,-1.8466,-1.8302,-1.8817,0.0,0.0,0.0,0.0,0.0,-1.8066,-1.8106,-1.8106,-1.8106,-1.8106,0.0,0.0,0.0,0.0,0.0,0.0,0.0,-2.0722,-2.1335,0.0,-2.2709,-2.2709,-2.2981,-2.3595,-2.3595,-2.3954,-2.4612,-2.5974,-2.6572,-2.6617,-2.7325,-2.7625,-2.761,-2.7625,-2.7979,-2.8607,-2.8607,-2.937,-3.0492,-3.0507,-3.0941,-3.1467,-3.5504,-3.5504,-3.5504,-3.5504,-3.5115,-3.4745,-3.4634,-3.3562,-3.2586,-3.1992,-3.0123,-2.8812,-2.8637,-2.759,-2.6602,0.0,-2.5076,-2.4522,0.0,-2.3251,-2.1944,-2.0168,-2.0498,-2.0393,-1.969,-1.969,-1.969,-1.969,0.0,0.0,0.0,-2.1814,-2.2143,-2.2368,-2.2619,-2.2477,-2.2002,-2.1023,-2.0141,-1.939,-1.8928,-1.8601,-1.8513,-1.9065,-1.9487,-1.988,-2.0285,-2.0573,-2.0637,-2.0269,-2.072,-2.1183,-2.0138,-2.0395,-2.1096,-2.1321,-2.138,-2.1425,-2.1635,-2.1695,-2.1695,-2.1695,-2.1695,-2.1779,-2.1986,-2.1513,-2.1008,-2.0817,-1.9765,-1.892,-1.892,-1.8466,-1.8185,-1.8341,-1.838,0.0,0.0,0.0,0.0,-1.7626,-1.7544,-1.7435,0.0,-1.7353,0.0,0.0,0.0,0.0,0.0,0.0,0.0,0.0,-2.1156,0.0,-2.3295,-2.2933,-2.2981,-2.361,-2.4073,-2.4881,-2.5974,-2.6393,-2.6841,-2.726,-2.7535,-2.7625,-2.7625,-2.7625,-2.7979,-2.8652,-2.9086,-2.9774,-3.0567,-3.1031,-3.1287,-3.1482,-3.5504,-3.5504,-3.5504,-3.5504,-3.512,-3.4676,-3.4029,-3.3457,-3.2569,-3.1212,-3.0073,-2.9217,-2.8667,-2.7171,0.0,-2.5661,-2.4762,-2.4268,-2.4358,-2.3206,-2.2128,-2.1201,-2.0946,-2.0587,-2.0094,-2.0318,0.0,-2.0079,-2.0752,-2.1291,-2.1695,-2.1949,-2.2278,-2.2682,-2.2695,-2.2556,-2.2257,-2.1057,-2.0207,-1.9564,-1.896,-1.8681,-1.8727,-1.908,-1.9471,-1.9931,-2.0304,-2.0567,-2.0684,-2.0359,-2.0753,-2.1236,-2.0499,-2.0925,-2.1741,-2.1992,-2.2069,-2.2113,-2.2353,-2.2413,-2.2372,-2.215,-2.2066,-2.2028,-2.1768,-2.1218,-2.0826,-2.0826,-1.9637,-1.8645,-1.8645,-1.8009,-1.7585,-1.7787,-1.7907,-1.8027,-1.8106,0.0,0.0,0.0,0.0,0.0,0.0,-1.6795,-1.7146,0.0,0.0,0.0,0.0,0.0,0.0,-2.1665,-2.1545,0.0,-2.3236,-2.3355,-2.361,-2.3999,-2.4926,-2.5794,-2.6602,-2.6841,-2.7186,-2.7625,-2.7625,-2.7625,-2.7625,-2.7625,-2.8113,-2.9011,-2.943,-3.0118,-3.0941,-3.1375,-3.1482,-3.1482,-3.5504,-3.5504,-3.5504,0.0,-3.5477,0.0,-3.38,-3.3457,-3.2541,-3.0279,-3.0052,-2.9729,-2.8652,-2.6782,-2.5839,-2.6408,0.0,0.0,0.0,-2.3535,-2.2727,-2.3475,-2.1964,-2.1006,-2.0782,-2.138,-2.1395,-2.0782,-2.1395,-2.1724,-2.1784,-2.2398,-2.2739,-2.2772,-2.2717,-2.2346,-2.1622,-2.0536,-1.9681,-1.8983,-1.8518,-1.8317,-1.8317,-1.8317,-1.899,-2.0004,-2.0038,-2.0368,-2.0772,-2.0777,-2.079,-2.0864,-2.0777,-2.1194,-2.1834,-2.2452,-2.2644,-2.2763,-2.3301,-2.345,-2.3319,-2.2785,-2.2603,-2.2406,-2.1758,-2.1161,-2.0746,-2.0746,-1.941,-1.8267,-1.8267,-1.7338,-1.6744,-1.7212,-1.6892,-1.6879,-1.7867,0.0,0.0,0.0,0.0,0.0,0.0,-1.6522,-1.6534,0.0,0.0,0.0,0.0,0.0,-2.1819,-2.1769,-2.2357,-2.2757,-2.2817,-2.4059,-2.4701,-2.4806,-2.6078,-2.6707,-2.6811,-2.7425,-2.776,-2.776,-2.7715,-2.7685,-2.7685,-2.7685,-2.8382,-2.952,-2.9609,-3.0387,-3.1407,-3.1452,-3.1482,-3.1482,0.0,0.0,-3.5504,-3.5504,-3.4961,-3.4651,-3.4953,-3.3276,-3.1081,-2.855,-2.8788,-2.8846,-2.7919,-2.6497,-2.548,-2.5121,-2.4178,-2.3729,-2.4044,-2.358,-2.3086,-2.2622,-2.2398,-2.2024,-2.1485,-2.162,-2.162,-2.1455,-2.162,-2.1949,-2.2484,-2.2649,-2.2936,-2.3385,-2.2906,-2.2346,-2.1649,-2.093,-2.0202,-1.961,-1.9472,-1.9422,-1.9422,-1.9422,-1.9598,-1.9901,-2.045,-2.0695,-2.0713,-2.0321,-2.0772,-2.1327,-2.0482,-2.0867,-2.1716,-2.1871,-2.1921,-2.1949,-2.209,-2.2179,-2.2132,-2.1946,-2.1582,-2.1224,-2.1028,-2.0497,-2.0055,-2.0055,-1.9384,-1.8832,-1.8832,-1.7928,-1.7219,-1.734,-1.7218,-1.7076,-1.6909,-1.6993,0.0,0.0,-1.6595,-1.6522,-1.6522,-1.6522,-1.6858,0.0,0.0,0.0,0.0,-2.2183,-2.301,-2.2473,-2.2614,-2.3187,-2.4163,-2.4971,-2.5884,-2.6871,-2.7186,-2.7874,-2.8876,-2.9026,-2.9116,-2.9071,-2.8577,-2.8353,-2.8353,-2.8353,-2.8547,-2.8921,-2.9909,-3.0477,-3.0806,-3.1345,-3.1482,-3.1482,-3.5518,-3.5503,-3.5289,-3.4666,-3.4711,-3.4531,-3.3817,-3.2452,-3.0708,-2.8503,-2.775,-2.732,-2.7141,-2.5959,-2.5016,-2.4612,-2.3999,-2.3595,-2.3595,-2.3595,-2.3385,-2.2906,-2.3026,-2.2936,-2.2577,-2.2562,-2.2562,-2.2562,-2.2562,-2.2742,-2.3101,-2.3101,-2.3281,-2.3551,-2.2665,-2.2053,-2.1677,-2.1022,-2.0553,-2.0213,-2.0476,-2.0577,-2.0539,-2.0288,-2.02,-2.0215,-2.0297,-2.0346,-2.0307,-1.9997,-2.0322,-2.0743,-2.0445,-2.0557,-2.0908,-2.1186,-2.1448,-2.1766,-2.2056,-2.1917,-2.1649,-2.1342,-2.0818,-2.0346,-2.0346,-2.0055,-1.9798,-1.9798,-1.9384,-1.8983,-1.8983,-1.8329,-1.7677,-1.7426,-1.7581,-1.7617,-1.7316,-1.754,0.0,-1.7663,-1.7409,-1.7287,-1.7287,-1.7287,-1.7536,-1.8158,-1.9245,0.0,-2.0786,-2.2267,-2.3124,-2.3172,-2.3715,-2.4368,-2.503,-2.6033,-2.7021,-2.8038,-2.8353,-2.8876,-2.9579,-2.9579,-2.9579,-2.9564,-2.9205,-2.9056,-2.9056,-2.9056,-2.922,-2.9535,-3.0238,-3.0702,-3.1016,-3.1405,-3.1482,-3.1482,-3.5359,-3.5437,-3.5024,-3.3634,-3.4243,-3.4152,-3.1839,-3.1501,-3.0851,-2.8936,-2.6886,-2.5794,-2.6288,-2.5315,-2.4537,-2.4433,-2.3939,-2.3595,-2.3595,-2.3595,-2.3595,-2.3595,-2.3595,-2.3595,-2.3595,-2.3595,-2.3595,-2.3595,-2.3595,-2.3655,-2.3744,-2.3655,-2.3714,-2.385,-2.2548,-2.1999,-2.1918,-2.1277,-2.0939,-2.0882,-2.1305,-2.1493,-2.1443,-2.0966,-2.0844,-2.0727,-2.0238,-2.0062,-2.0062,-2.0062,-2.0062,-2.0137,-2.0639,-2.0451,-2.015,-2.0639,-2.1224,-2.1743,-2.2192,-2.1988,-2.1537,-2.0941,-2.0335,-1.9911,-1.9823,-1.9798,-1.9798,-1.9798,-1.9447,-1.9096,-1.9096,-1.8694,-1.8179,-1.7702,-1.7953,-1.8215,-1.8213,0.0,-1.838,-1.8819,-1.8461,-1.8204,-1.8204,-1.8279,-1.8355,-1.8442,-1.9907,-2.083,-2.0908,-2.197,-2.2933,-2.3789,-2.4853,-2.5649,-2.6063,-2.7171,-2.8113,-2.8891,-2.9445,-2.9774,-2.9879,-2.9879,-2.9879,-2.9864,-2.9759,-2.9729,-2.9729,-2.9729,-3.0028,-3.0507,-3.0612,-3.1016,-3.1482,-3.1482,-3.1541,-3.1616,-3.476,-3.5105,-3.4951,-3.3225,-3.2446,-3.1968,-3.155,-3.1516,-3.0627,-2.815,-2.6512,-2.551,-2.5287,-2.4866,-2.4388,-2.3804,-2.3655,-2.3595,-2.3595,-2.3595,-2.3595,-2.3595,-2.3595,-2.3595,-2.3595,-2.3595,-2.3595,-2.3595,-2.3595,-2.3894,-2.4403,-2.3879,-2.4208,-2.5224,-2.3967,-2.3342,-2.3261,-2.2617,-2.1934,-2.1368,-2.1455,-2.1493,-2.1481,-2.1393,-2.1355,-2.1343,-2.1255,-2.123,-2.123,-2.123,-2.123,-2.1242,-2.133,-2.1292,-2.1242,-2.133,-2.1458,-2.1444,-2.1062,-2.124,-2.1419,-2.0853,-2.0646,-2.0401,-1.9911,-1.9798,-1.9798,-1.9798,-1.9736,-1.9685,-1.9685,-1.9258,-1.8869,-1.8794,-1.8455,-1.8213,-1.8219,0.0,-1.8251,-1.8286,-1.8251,-1.8204,-1.8204,-1.8631,-1.9083,-1.9522,-2.0267,-2.0889,-2.1369,-2.2577,-2.3581,-2.434,-2.4581,-2.5787,-2.8128,-2.8338,-2.9041,-3.0208,-3.0313,-3.0672,-3.124,-3.124,-3.124,-3.1195,-3.0612,-3.0357,-3.0357,-3.0357,-3.0417,-3.0567,-3.115,-3.1377,-3.1482,-3.1482,-3.1884,-3.2362,-3.51,-3.4715,-3.3895,-3.2348,-3.1768,-3.1486,-3.1486,-3.0309,-2.8966,-2.779,-2.6422,-2.554,-2.533,-2.4567,-2.3807,-2.3172,-2.3009,-2.3009,-2.3113,-2.3421,-2.3595,-2.3595,-2.3595,-2.3595,-2.3595,-2.3969,-2.3969,-2.3595,-2.4328,-2.4657,-2.4582,-2.4657,-2.5016,-2.5538,-2.4244,-2.363,-2.3565,-2.2758,-2.2247,-2.1958,-2.2259,-2.2372,-2.2347,-2.2046,-2.1933,-2.1895,-2.1594,-2.1493,-2.1493,-2.1493,-2.1493,-2.1543,-2.1832,-2.1732,-2.1543,-2.1845,-2.1933,-2.1807,-2.1255,-2.1506,-2.1794,-2.1242,-2.1104,-2.0953,-2.0388,-2.0263,-2.0175,-1.9861,-1.9798,-1.9798,-1.9798,-1.961,-1.9359,-1.907,-1.9045,0.0,0.0,-1.9158,-1.9422,-1.9108,-1.9597,-1.9861,-1.956,-2.0024,-2.0451,-2.069,-2.123,-2.1656,-2.192,-2.2783,-2.3554,-2.4216,-2.5135,-2.6336,-2.8018,-2.8341,-2.9153,-3.0507,-3.0881,-3.1225,-3.1482,-3.1482,-3.1482,-3.1452,-3.1195,-3.1061,-3.1061,-3.1061,-3.1061,-3.1091,-3.1347,-3.1482,-3.1511,-3.1928,-3.2258,-3.2557,-3.5485,-3.4185,-3.2709,-3.1662,-3.1482,-3.1482,-3.1482,-2.928,-2.7625,-2.7625,-2.6333,-2.5448,-2.5396,-2.4163,-2.3201,-2.2649,-2.2406,-2.2267,-2.2314,-2.3009,-2.3465,-2.3595,-2.3744,-2.3834,-2.3834,-2.4358,-2.4433,-2.4059,-2.4956,-2.527,-2.5091,-2.545,-2.567,-2.576,-2.4582,-2.3931,-2.3741,-2.3041,-2.2673,-2.2535,-2.2902,-2.3078,-2.3088,-2.2661,-2.2498,-2.2447,-2.202,-2.187,-2.187,-2.187,-2.187,-2.1945,-2.2372,-2.2209,-2.1958,-2.2385,-2.2498,-2.241,-2.1983,-2.2184,-2.2372,-2.182,-2.1681,-2.1543,-2.0991,-2.0806,-2.0577,-2.0263,-2.0087,-2.0037,-2.0175,-2.0188,-2.0024,-1.9497,0.0,0.0,0.0,-2.0137,-2.0552,-2.0238,-2.0953,-2.133,-2.0957,-2.1355,-2.1681,-2.1681,-2.2184,-2.2498,-2.2498,-2.3037,-2.3602,-2.4167,-2.5775,-2.7081,-2.7934,-2.8565,-2.9542,-3.0746,-3.1285,-3.1482,-3.1482,-3.1482,-3.1482,-3.1482,-3.1482,-3.1482,-3.1482,-3.1482,-3.1556,-3.1706,-3.1706,-3.1854,-3.2048,-3.2557,-3.2841,-3.3036,-3.5485,-3.3392,-3.1588,-3.15,-3.1482,-3.1482,-3.1482,-2.928,-2.7625,-2.7625,-2.6126,-2.4951,-2.4796,-2.3551,-2.2649,-2.2466,-2.2007,-2.1615,-2.1224,-2.2175,-2.3024,-2.3551,-2.4208,-2.4507,-2.4507,-2.4552,-2.4896,-2.545,-2.4956,-2.53,-2.6437,-2.5869,-2.5904,-2.639,-2.5667,-2.4936,-2.4218,-2.42,-2.3702,-2.3015,-2.3053,-2.3078,-2.3125,-2.3027,-2.3015,-2.3015,-2.3025,-2.2952,-2.2952,-2.2952,-2.2952,-2.2965,-2.3002,-2.2977,-2.2965,-2.3002,-2.3015,-2.3002,-2.2965,-2.2977,-2.2877,-2.2385,-2.2246,-2.2108,-2.1556,-2.1041,-2.0857,-2.1267,-2.0953,-2.0819,-2.1267,-2.1355,-2.1179,-2.0639,0.0,0.0,-2.0605,-2.0668,-2.0894,-2.1305,-2.1443,-2.1468,-2.143,-2.1933,-2.2246,-2.2246,-2.2761,-2.3015,-2.3015,-2.3615,-2.4192,-2.4745,-2.6317,-2.7773,-2.9116,-2.9938,-3.072,-3.1465,-3.1452,-3.1482,-3.1482,-3.1482,-3.1482,-3.1482,-3.1482,-3.1482,-3.1482,-3.1482,-3.1898,-3.2437,-3.2437,-3.2811,-3.3365,-3.341,-3.3814,-3.4337,-3.5413,-3.401,-3.2503,-3.1632,-3.1482,-3.0971,-2.9325,-2.8218,-2.7291,-2.6375,-2.5459,-2.4646,-2.4098,-2.3025,-2.2144,-2.1458,-2.1705,-2.176,-2.1427,-2.2113,-2.2672,-2.3053,-2.3252,-2.3345,-2.3345,-2.4099,-2.4412,-2.422,-2.5243,-2.5611,-2.526,-2.5857,-2.6035,-2.5783,-2.5094,-2.4565,-2.4292,-2.3767,-2.3365,-2.3078,-2.3078,-2.3078,-2.3078,-2.3078,-2.3078,-2.3078,-2.3078,-2.3078,-2.3078,-2.3078,-2.3078,-2.3078,-2.3078,-2.3078,-2.3078,-2.3078,-2.3078,-2.3078,-2.3078,-2.3078,-2.3027,-2.2874,-2.2824,-2.2673,-2.2121,-2.1832,-2.1644,-2.1518,-2.133,-2.1242,-2.1443,-2.1493,-2.1418,-2.1204,0.0,-2.1179,-2.1179,-2.1468,-2.1631,-2.1506,-2.2096,-2.2372,-2.2033,-2.2498,-2.2824,-2.2824,-2.3351,-2.3665,-2.3665,-2.4506,-2.5084,-2.5297,-2.6763,-2.7633,-2.7796,-2.8091,-2.8825,-2.995,-3.0524,-3.0777,-3.0777,-3.1278,-3.1482,-3.1482,-3.1482,-3.1482,-3.1511,-3.1973,-3.2287,-3.2557,-3.2961,-3.3275,-3.3544,-3.3948,-3.4262,-3.4532,-3.4203,-3.3511,-3.2602,-3.1631,-3.1482,-3.0642,-2.7979,-2.7625,-2.7122,-2.5769,-2.5254,-2.4624,-2.363,-2.2763,-2.1917,-2.1095,-2.1542,-2.1749,-2.1574,-2.1897,-2.2365,-2.289,-2.3097,-2.3165,-2.3165,-2.3978,-2.4295,-2.4022,-2.5272,-2.5469,-2.4762,-2.5694,-2.5728,-2.5007,-2.4509,-2.4176,-2.3884,-2.3305,-2.3078,-2.3078,-2.3078,-2.3078,-2.3078,-2.3078,-2.3078,-2.3078,-2.3078,-2.3078,-2.3078,-2.3078,-2.3078,-2.3078,-2.3078,-2.3078,-2.3078,-2.3078,-2.3078,-2.3078,-2.3078,-2.3078,-2.3078,-2.3078,-2.3215,-2.3301,-2.2924,-2.2836,-2.2786,-2.2585,-2.2397,-2.2334,-2.251,-2.2535,-2.2422,-2.2071,-2.2008,-2.2008,-2.2008,-2.2184,-2.2309,-2.2284,-2.2786,-2.2987,-2.2611,-2.3075,-2.3401,-2.3401,-2.3941,-2.433,-2.4494,-2.5197,-2.5686,-2.5862,-2.6822,-2.7168,-2.6778,-2.7271,-2.8035,-2.9002,-2.9628,-2.9988,-3.0173,-3.0693,-3.1247,-3.1693,-3.1693,-3.1886,-3.2183,-3.2632,-3.2946,-3.3109,-3.3309,-3.3669,-3.4173,-3.4273,-3.4515,-3.4861,-3.174,-3.1486,-3.1482,-3.1482,-3.1467,-3.0586,-2.7964,-2.7575,-2.724,-2.624,-2.575,-2.4934,-2.3548,-2.2826,-2.2172,-2.1536,-2.1493,-2.1506,-2.1506,-2.1506,-2.2076,-2.3354,-2.4035,-2.4391,-2.4391,-2.4405,-2.4722,-2.5398,-2.4708,-2.4736,-2.5398,-2.5398,-2.5007,-2.4292,-2.4292,-2.3826,-2.3078,-2.3078,-2.3078,-2.3078,-2.3078,-2.3078,-2.3078,-2.3078,-2.3078,-2.3078,-2.3078,-2.3078,-2.3078,-2.3078,-2.3078,-2.3078,-2.3078,-2.3078,-2.3078,-2.3078,-2.3078,-2.3078,-2.3078,-2.309,-2.3078,-2.3078,-2.3565,-2.4004,-2.4004,-2.4004,-2.4167,-2.4707,-2.4393,-2.4167,-2.472,-2.482,-2.4456,-2.3265,-2.309,-2.309,-2.309,-2.2673,-2.2749,-2.3866,-2.3502,-2.3078,-2.3078,-2.3665,-2.4004,-2.4004,-2.4519,-2.5059,-2.5573,-2.5598,-2.5862,-2.6508,-2.6533,-2.6533,-2.6533,-2.8182,-2.9002,-2.9016,-2.9002,-2.9256,-2.9783,-2.9769,-3.0625,-3.2076,-3.2076,-3.2616,-3.3499,-3.3499,-3.3888,-3.4409,-3.3478,-3.4083,-3.5359,-3.4394,-3.4624,-3.5504,-2.9827,-3.0669,-3.1482,-3.1482,-2.9566,-2.7187,-2.4829,-2.5486,-2.5707,-2.4203,-2.4393,-2.4126,-2.2783,-2.2776,-2.2495,-2.1556,-2.2196,-2.2636,-2.2636,-2.2636,-2.2799,-2.318,-2.3018,-2.2959,-2.2959,-2.3289,-2.3573,-2.3813,-2.4152,-2.4152,-2.3813,-2.4394,-2.4221,-2.3484,-2.3484,-2.3533,-2.374,-2.374,-2.374,-2.374,-2.374,-2.374,-2.3703,-2.3288,-2.3389,-2.369,-2.3215,-2.3078,-2.3078,-2.3078,-2.3078,-2.3078,-2.3078,-2.3078,-2.3153,-2.3615,-2.374,-2.3816,-2.4217,-2.4318,-2.413,-2.3278,-2.3565,-2.4004,-2.4004,-2.4293,-2.4619,-2.4795,-2.4695,-2.4619,-2.4795,-2.482,-2.4707,-2.4381,-2.4318,-2.4318,-2.4318,-2.418,-2.4192,-2.4531,-2.4431,-2.4167,-2.3778,-2.4243,-2.4418,-2.4029,-2.4845,-2.5611,-2.6176,-2.6201,-2.6276,-2.6521,-2.6841,-2.703,-2.703,-2.7165,-2.7424,-2.7812,-2.8384,-2.8946,-2.9533,-3.0133,-3.0632,-3.1065,-3.1065,-3.1198,-3.1505,-3.1942,-3.2291,-3.2503,-3.2666,-3.3016,-3.3394,-3.3101,-3.3602,-3.4461,-2.9261,-2.968,-2.9997,-2.9566,-2.7855,-2.6034,-2.4779,-2.5437,-2.5673,-2.4381,-2.4471,-2.421,-2.3072,-2.3276,-2.3201,-2.2548,-2.3288,-2.3715,-2.3489,-2.3477,-2.3376,-2.3078,-2.2811,-2.2636,-2.2636,-2.2902,-2.3078,-2.3078,-2.3603,-2.3718,-2.3477,-2.3705,-2.3718,-2.3477,-2.3477,-2.3665,-2.4017,-2.423,-2.433,-2.4305,-2.4092,-2.4004,-2.3941,-2.3364,-2.3351,-2.3615,-2.3203,-2.3078,-2.3078,-2.3078,-2.3078,-2.3115,-2.3401,-2.3314,-2.3288,-2.4092,-2.4167,-2.4117,-2.4669,-2.482,-2.4657,-2.3966,-2.4217,-2.4632,-2.4632,-2.5071,-2.5473,-2.5473,-2.5473,-2.5473,-2.5473,-2.5473,-2.5385,-2.5172,-2.5134,-2.5134,-2.5134,-2.4946,-2.4895,-2.5109,-2.4946,-2.4695,-2.4356,-2.4808,-2.5084,-2.4983,-2.5774,-2.6414,-2.6766,-2.6992,-2.7105,-2.7105,-2.7431,-2.7607,-2.7607,-2.7268,-2.7281,-2.7607,-2.8126,-2.8608,-2.9248,-2.9737,-3.0254,-3.0821,-3.0821,-3.1031,-3.1406,-3.1833,-3.1985,-3.2026,-3.2027,-3.2249,-3.2522,-3.2177,-3.2664,-3.3449,-2.9577,-2.8625,-2.763,-2.6645,-2.6533,-2.6527,-2.6667,-2.6675,-2.6479,-2.591,-2.5363,-2.4819,-2.4129,-2.4067,-2.4067,-2.4067,-2.4531,-2.4607,-2.4104,-2.4067,-2.3816,-2.3238,-2.3153,-2.3188,-2.3078,-2.3128,-2.3153,-2.3153,-2.3153,-2.3502,-2.4054,-2.3477,-2.3527,-2.4067,-2.4067,-2.4104,-2.4167,-2.4669,-2.4895,-2.4845,-2.4343,-2.4142,-2.4079,-2.3502,-2.3253,-2.3351,-2.324,-2.3228,-2.3228,-2.3228,-2.3228,-2.3315,-2.3904,-2.3703,-2.3502,-2.4582,-2.4544,-2.4268,-2.482,-2.4971,-2.4971,-2.4971,-2.536,-2.5737,-2.5686,-2.6088,-2.6546,-2.6596,-2.6559,-2.6546,-2.6596,-2.6596,-2.6377,-2.59,-2.5824,-2.5799,-2.5749,-2.5347,-2.5197,-2.5624,-2.5259,-2.4946,-2.4895,-2.536,-2.5937,-2.6553,-2.7067,-2.7356,-2.7356,-2.7833,-2.8109,-2.8109,-2.816,-2.8185,-2.8185,-2.8235,-2.8235,-2.8185,-2.8185,-2.8473,-2.9001,-2.9001,-2.9768,-3.1106,-3.1106,-3.1536,-3.2321,-3.2321,-3.2321,-3.2249,-3.1389,-3.1609,-3.2249,-3.1389,-3.1683,-3.2464,-2.9068,-2.7844,-2.6769,-2.6521,-2.6533,-2.6337,-2.5777,-2.5764,-2.5663,-2.5115,-2.495,-2.4823,-2.4644,-2.4644,-2.4644,-2.4644,-2.4757,-2.477,-2.4644,-2.4644,-2.4393,-2.3841,-2.3803,-2.3602,-2.3078,-2.3577,-2.3803,-2.3803,-2.3803,-2.4104,-2.4632,-2.4067,-2.4104,-2.4644,-2.4644,-2.487,-2.5259,-2.5372,-2.5423,-2.5423,-2.5297,-2.5247,-2.5184,-2.4657,-2.4707,-2.5008,-2.4607,-2.4456,-2.4456,-2.4456,-2.4456,-2.4481,-2.4607,-2.4556,-2.4582,-2.5234,-2.5335,-2.5372,-2.595,-2.6101,-2.6101,-2.6101,-2.6515,-2.6804,-2.6364,-2.6445,-2.6647,-2.7017,-2.6766,-2.6659,-2.703,-2.7105,-2.7205,-2.7507,-2.7557,-2.7406,-2.6979,-2.6816,-2.664,-2.6314,-2.6176,-2.5925,-2.5473,-2.5937,-2.6691,-2.767,-2.7858,-2.7921,-2.7921,-2.8047,-2.8109,-2.8109,-2.8524,-2.875,-2.875,-2.9202,-2.9202,-2.875,-2.875,-2.9051,-2.9603,-2.9603,-2.982,-3.0062,-3.0062,-3.0216,-3.0432,-3.0432,-3.0432,-3.0355,-3.0216,-3.0216,-3.0355,-3.0216,-3.0696,-3.1609,-2.8988,-2.8021,-2.7155,-2.6904,-2.6697,-2.6395,-2.6017,-2.595,-2.5912,-2.5636,-2.536,-2.5197,-2.5197,-2.5197,-2.531,-2.5586,-2.5598,-2.5485,-2.5209,-2.5197,-2.4946,-2.4418,-2.4393,-2.4243,-2.3941,-2.4481,-2.4506,-2.4004,-2.4268,-2.4669,-2.5184,-2.4644,-2.4682,-2.5197,-2.5197,-2.5335,-2.5611,-2.5887,-2.6013,-2.5988,-2.5711,-2.5598,-2.5536,-2.5021,-2.4996,-2.5197,-2.4921,-2.482,-2.482,-2.482,-2.482,-2.4858,-2.5109,-2.5021,-2.5021,-2.6088,-2.6025,-2.5837,-2.6942,-2.7055,-2.6917,-2.718,-2.7457,-2.7457,-2.6653,-2.6866,-2.7256,-2.7268,-2.7268,-2.7331,-2.762,-2.767,-2.777,-2.8059,-2.8109,-2.8009,-2.772,-2.767,-2.757,-2.7281,-2.7243,-2.713,-2.6829,-2.7067,-2.7482,-2.8059,-2.8348,-2.8499,-2.8499,-2.8762,-2.8913,-2.8913,-2.9189,-2.934,-2.934,-2.9641,-2.9641,-2.934,-2.934,-2.9503,-2.9792,-2.9792,-2.9792,-2.9792,-2.9792,-2.9792,-2.9792,-2.9792,-2.9792,-2.9792,-2.9792,-2.9792,-2.9792,-2.9792,-3.0139,-3.0633,-2.9164,-2.8624,-2.8072,-2.7519,-2.6967,-2.6634,-2.6546,-2.6533,-2.6533,-2.6533,-2.6038,-2.5737,-2.5737,-2.5737,-2.5937,-2.6483,-2.6533,-2.6319,-2.5774,-2.5737,-2.5511,-2.4971,-2.4958,-2.4908,-2.482,-2.5335,-2.5159,-2.4268,-2.4732,-2.5222,-2.5737,-2.5197,-2.5234,-2.5737,-2.5737,-2.5737,-2.5774,-2.6319,-2.6533,-2.6483,-2.5937,-2.5737,-2.5699,-2.5272,-2.5096,-2.5096,-2.5096,-2.5096,-2.5096,-2.5096,-2.5096,-2.5172,-2.5598,-2.5511,-2.5511,-2.6879,-2.6691,-2.6327,-2.7733,-2.777,-2.7532,-2.7996,-2.8185,-2.7984,-2.6967,-2.7444,-2.7996,-2.7645,-2.7846,-2.8134,-2.8235,-2.8247,-2.8285,-2.8373,-2.8398,-2.836,-2.826,-2.8247,-2.821,-2.8109,-2.8109,-2.8147,-2.8235,-2.8247,-2.8285,-2.8386,-2.8812,-2.9076,-2.9076,-2.9528,-2.9792,-2.9792,-2.9792,-2.9792,-2.9792,-2.9792,-2.9792,-2.9792,-2.9792,-2.9792,-2.9792,-2.9792,-2.9792,-2.9792,-2.9792,-2.9792,-2.9792,-2.9792,-2.9792,-2.9792,-2.9792,-2.9792,-2.9792,-2.9792,-2.9792,-2.9792,-2.9691,-2.9214,-2.8637,-2.8097,-2.7544,-2.7017,-2.6596,-2.6533,-2.6533,-2.6533,-2.6458,-2.6408,-2.6408,-2.6408,-2.6445,-2.6521,-2.6533,-2.6496,-2.6352,-2.6408,-2.6088,-2.5523,-2.5485,-2.5272,-2.4833,-2.5335,-2.5523,-2.5372,-2.5448,-2.5787,-2.6395,-2.5762,-2.5799,-2.6408,-2.6408,-2.6408,-2.6352,-2.6496,-2.6533,-2.6521,-2.6445,-2.6408,-2.6339,-2.6332,-2.6239,-2.6239,-2.6239,-2.6239,-2.6239,-2.6239,-2.6239,-2.6251,-2.6395,-2.6628,-2.6992,-2.7218,-2.7507,-2.7808,-2.8047,-2.8047,-2.8009,-2.8084,-2.8461,-2.8649,-2.8021,-2.7996,-2.8222,-2.8624,-2.8386,-2.8247,-2.8737,-2.8812,-2.8976,-2.949,-2.9566,-2.939,-2.8888,-2.8812,-2.8637,-2.816,-2.8109,-2.8298,-2.8775,-2.8812,-2.9026,-2.9528,-2.9628,-2.9679,-2.9679,-2.9754,-2.9792,-2.9792,-2.9792,-2.9792,-2.9792,-2.9792,-2.9792,-2.9792,-2.9792,-2.9792,-2.9792,-2.9792,-2.9792,-2.9792,-2.9792,-2.9792,-2.9792,-2.9792,-2.9792,-2.9792,-2.9792,-2.9792,-2.9792,-2.9792,-2.9792,-2.9792,-2.9792,-2.9327,-2.885,-2.8612,-2.7858,-2.7205,-2.6954,-2.6653,-2.6533,-2.6533,-2.6533,-2.6533,-2.6533,-2.6533,-2.6533,-2.6533,-2.6533,-2.6533,-2.6533,-2.6533,-2.6352,-2.6088,-2.6076,-2.6113,-2.6201,-2.6113,-2.6226,-2.654,-2.6226,-2.6214,-2.6521,-2.6201,-2.6214,-2.6533,-2.6533,-2.6533,-2.6533,-2.6533,-2.6533,-2.6533,-2.6533,-2.6533,-2.6533,-2.6533,-2.6533,-2.6533,-2.6533,-2.6533,-2.6584,-2.6816,-2.6917,-2.6967,-2.7281,-2.7544,-2.7808,-2.8109,-2.816,-2.8247,-2.8875,-2.8812,-2.8649,-2.8963,-2.9227,-2.9352,-2.9101,-2.9051,-2.9026,-2.895,-2.8988,-2.9126,-2.9365,-2.9415,-2.9503,-2.9754,-2.9792,-2.9704,-2.9453,-2.9415,-2.9315,-2.9076,-2.9051,-2.9139,-2.939,-2.9415,-2.9515,-2.9779,-2.9792,-2.9792,-2.9792,-2.9792,-2.9792,-2.9792,-2.9792,-2.9792,-2.9792,-2.9792,-2.9792,-2.9792,-2.9792,-2.9792,-2.9792,-2.9792,-2.9792,-2.9792,-2.9792,-2.9792,-2.9792,-2.9792,-2.9792,-2.9792,-2.9792,-2.9792,-2.9792,-2.9792,-2.9792,-2.9792]},{"header":{"parameterUnit":"m.s-1","parameterCategory":1,"la1":30.6,"la2":28.766,"lo1":-90.7593,"lo2":-88.6598,"dy":0.0162,"dx":0.0183,"nx":116,"ny":114,"refTime":"2023-04-29T00:00:00:Z","depth":0,"parameterNumber":3,"parameterNumberName":"V-component_of_WINDS"},"data":[0.0,0.0,0.0,0.0,0.0,0.0,0.0,0.0,0.0,0.0,0.0,0.0,0.0,0.0,0.0,0.0,0.0,0.0,0.0,0.0,0.0,0.0,0.0,0.0,0.0,0.0,0.0,0.0,0.0,0.0,0.0,0.0,0.0,0.0,0.0,0.0,0.0,0.0,0.0,0.0,0.0,0.0,0.0,0.0,0.0,0.0,0.0,0.0,0.0,0.0,0.0,0.0,0.0,0.0,0.0,0.0,0.0,0.0,0.0,0.0,0.0,0.0,0.0,0.0,0.0,0.0,0.0,0.0,0.0,0.0,0.0,0.0,0.0,0.0,0.0,0.0,0.0,0.0,0.0,0.0,0.0,0.0,0.0,0.0,0.0,0.0,0.0,0.0,0.0,0.0,0.0,0.0,0.0,0.0,0.0,0.0,0.0,0.0,0.0,0.0,0.0,0.0,0.0,0.0,0.0,0.0,0.0,0.0,0.0,0.0,0.0,0.0,0.0,0.0,0.0,0.0,0.0,0.0,0.0,0.0,0.0,0.0,0.0,0.0,0.0,0.0,0.0,0.0,0.0,0.0,0.0,0.0,0.0,0.0,0.0,0.0,0.0,0.0,0.0,0.0,0.0,0.0,0.0,0.0,0.0,0.0,0.0,0.0,0.0,0.0,0.0,0.0,0.0,0.0,0.0,0.0,0.0,0.0,0.0,0.0,0.0,0.0,0.0,0.0,0.0,0.0,0.0,0.0,0.0,0.0,0.0,0.0,0.0,0.0,0.0,0.0,0.0,0.0,0.0,0.0,0.0,0.0,0.0,0.0,0.0,0.0,0.0,0.0,0.0,0.0,0.0,0.0,0.0,0.0,0.0,0.0,0.0,0.0,0.0,0.0,0.0,0.0,0.0,0.0,0.0,0.0,0.0,0.0,0.0,0.0,0.0,0.0,0.0,0.0,0.0,0.0,0.0,0.0,0.0,0.0,0.0,0.0,0.0,0.0,0.0,0.0,0.0,0.0,0.0,0.0,0.0,0.0,0.0,0.0,0.0,0.0,0.0,0.0,0.0,0.0,0.0,0.0,0.0,0.0,0.0,0.0,0.0,0.0,0.0,0.0,0.0,0.0,0.0,0.0,0.0,0.0,0.0,0.0,0.0,0.0,0.0,0.0,0.0,0.0,0.0,0.0,0.0,0.0,0.0,0.0,0.0,0.0,0.0,0.0,0.0,0.0,0.0,0.0,0.0,0.0,0.0,0.0,0.0,0.0,0.0,0.0,0.0,0.0,0.0,0.0,0.0,0.0,0.0,0.0,0.0,0.0,0.0,0.0,0.0,0.0,0.0,0.0,0.0,0.0,0.0,0.0,0.0,0.0,0.0,0.0,0.0,0.0,0.0,0.0,0.0,0.0,0.0,0.0,0.0,0.0,0.0,0.0,0.0,0.0,0.0,0.0,0.0,0.0,0.0,0.0,0.0,0.0,0.0,0.0,0.0,0.0,0.0,0.0,0.0,0.0,0.0,0.0,0.0,0.0,0.0,0.0,0.0,0.0,0.0,0.0,0.0,0.0,0.0,0.0,0.0,0.0,0.0,0.0,0.0,0.0,0.0,0.0,0.0,0.0,0.0,0.0,0.0,0.0,0.0,0.0,0.0,0.0,0.0,0.0,0.0,0.0,0.0,0.0,0.0,0.0,0.0,0.0,0.0,0.0,0.0,0.0,0.0,0.0,0.0,0.0,0.0,0.0,0.0,0.0,0.0,0.0,0.0,0.0,0.0,0.0,0.0,0.0,0.0,0.0,0.0,0.0,0.0,0.0,0.0,0.0,0.0,0.0,0.0,0.0,0.0,0.0,0.0,0.0,0.0,0.0,0.0,0.0,0.0,0.0,0.0,0.0,0.0,0.0,0.0,0.0,0.0,0.0,0.0,0.0,0.0,0.0,0.0,0.0,0.0,0.0,0.0,0.0,0.0,0.0,0.0,0.0,0.0,0.0,0.0,0.0,0.0,0.0,0.0,0.0,0.0,0.0,0.0,0.0,0.0,0.0,0.0,0.0,0.0,0.0,0.0,0.0,0.0,0.0,0.0,0.0,0.0,0.0,0.0,0.0,0.0,0.0,0.0,0.0,0.0,0.0,0.0,0.0,0.0,0.0,0.0,0.0,0.0,0.0,0.0,0.0,0.0,0.0,0.0,0.0,0.0,0.0,0.0,0.0,0.0,0.0,0.0,0.0,0.0,0.0,0.0,0.0,0.0,0.0,0.0,0.0,0.0,0.0,0.0,0.0,0.0,0.0,0.0,0.0,0.0,0.0,0.0,0.0,0.0,0.0,0.0,0.0,0.0,0.0,0.0,0.0,0.0,0.0,0.0,0.0,0.0,0.0,0.0,0.0,0.0,0.0,0.0,0.0,0.0,0.0,0.0,0.0,0.0,0.0,0.0,0.0,0.0,0.0,0.0,0.0,0.0,0.0,0.0,0.0,0.0,0.0,0.0,0.0,0.0,0.0,0.0,0.0,0.0,0.0,0.0,0.0,0.0,0.0,0.0,0.0,0.0,0.0,0.0,0.0,0.0,0.0,0.0,0.0,0.0,0.0,0.0,0.0,0.0,0.0,0.0,0.0,0.0,0.0,0.0,0.0,0.0,0.0,0.0,0.0,0.0,0.0,0.0,0.0,0.0,0.0,0.0,0.0,0.0,0.0,0.0,0.0,0.0,0.0,0.0,0.0,0.0,0.0,0.0,0.0,0.0,0.0,0.0,0.0,0.0,0.0,0.0,0.0,0.0,0.0,0.0,0.0,0.0,0.0,0.0,0.0,0.0,0.0,0.0,0.0,0.0,0.0,0.0,0.0,0.0,0.0,0.0,0.0,0.0,0.0,0.0,0.0,0.0,0.0,0.0,0.0,0.0,0.0,0.0,0.0,0.0,0.0,0.0,0.0,0.0,0.0,0.0,0.0,0.0,0.0,0.0,0.0,0.0,0.0,0.0,0.0,0.0,0.0,0.0,0.0,0.0,0.0,0.0,0.0,0.0,0.0,0.0,0.0,0.0,0.0,0.0,0.0,0.0,0.0,0.0,0.0,0.0,0.0,0.0,0.0,0.0,0.0,0.0,0.0,0.0,0.0,0.0,0.0,0.0,0.0,0.0,0.0,0.0,0.0,0.0,0.0,0.0,0.0,0.0,0.0,0.0,0.0,0.0,0.0,0.0,0.0,0.0,0.0,0.0,0.0,0.0,0.0,0.0,0.0,0.0,0.0,0.0,0.0,0.0,0.0,0.0,0.0,0.0,0.0,0.0,0.0,0.0,0.0,0.0,0.0,0.0,0.0,0.0,0.0,0.0,0.0,0.0,0.0,0.0,0.0,0.0,0.0,0.0,0.0,0.0,0.0,0.0,0.0,0.0,0.0,0.0,0.0,0.0,0.0,0.0,0.0,0.0,0.0,0.0,0.0,0.0,0.0,0.0,0.0,0.0,0.0,0.0,0.0,0.0,0.0,0.0,0.0,0.0,0.0,0.0,0.0,0.0,0.0,0.0,0.0,0.0,0.0,0.0,0.0,0.0,0.0,0.0,0.0,0.0,0.0,0.0,0.0,0.0,0.0,0.0,0.0,0.0,0.0,0.0,0.0,0.0,0.0,0.0,0.0,0.0,0.0,0.0,0.0,0.0,0.0,0.0,0.0,0.0,0.0,0.0,0.0,0.0,0.0,0.0,0.0,0.0,0.0,0.0,0.0,0.0,0.0,0.0,0.0,0.0,0.0,0.0,0.0,0.0,0.0,0.0,0.0,0.0,0.0,0.0,0.0,0.0,0.0,0.0,0.0,0.0,0.0,0.0,0.0,0.0,0.0,0.0,0.0,0.0,0.0,0.0,0.0,0.0,0.0,0.0,0.0,0.0,0.0,0.0,0.0,0.0,0.0,0.0,0.0,0.0,0.0,0.0,0.0,0.0,0.0,0.0,0.0,0.0,0.0,0.0,0.0,0.0,0.0,0.0,0.0,0.0,0.0,0.0,0.0,0.0,0.0,0.0,0.0,0.0,0.0,0.0,0.0,0.0,0.0,0.0,0.0,0.0,0.0,0.0,0.0,0.0,0.0,0.0,0.0,0.0,0.0,0.0,0.0,0.0,0.0,0.0,0.0,0.0,0.0,0.0,0.0,0.0,0.0,0.0,0.0,0.0,0.0,0.0,0.0,0.0,0.0,0.0,0.0,0.0,0.0,0.0,0.0,0.0,0.0,0.0,0.0,0.0,0.0,0.0,0.0,0.0,0.0,0.0,0.0,0.0,0.0,0.0,0.0,0.0,0.0,0.0,0.0,0.0,0.0,0.0,0.0,0.0,0.0,0.0,0.0,0.0,0.0,0.0,0.0,0.0,0.0,0.0,0.0,0.0,0.0,0.0,0.0,0.0,0.0,0.0,0.0,0.0,0.0,0.0,0.0,0.0,0.0,0.0,0.0,0.0,0.0,0.0,0.0,0.0,0.0,0.0,0.0,0.0,0.0,0.0,0.0,0.0,0.0,0.0,0.0,0.0,0.0,0.0,0.0,0.0,0.0,0.0,0.0,0.0,0.0,0.0,0.0,0.0,0.0,0.0,0.0,0.0,0.0,0.0,0.0,0.0,0.0,0.0,0.0,0.0,0.0,0.0,0.0,0.0,0.0,0.0,0.0,0.0,0.0,0.0,0.0,0.0,0.0,0.0,0.0,0.0,0.0,0.0,0.0,0.0,0.0,0.0,0.0,0.0,0.0,0.0,0.0,0.0,0.0,0.0,0.0,0.0,0.0,0.0,0.0,0.0,0.0,0.0,0.0,0.0,0.0,0.0,0.0,0.0,0.0,0.0,0.0,0.0,0.0,0.0,0.0,0.0,0.0,0.0,0.0,0.0,0.0,0.0,0.0,0.0,0.0,0.0,0.0,0.0,0.0,0.0,0.0,0.0,0.0,0.0,0.0,0.0,0.0,0.0,0.0,0.0,0.0,0.0,0.0,0.0,0.0,0.0,0.0,0.0,0.0,0.0,0.0,0.0,0.0,0.0,0.0,0.0,0.0,0.0,0.0,0.0,0.0,0.0,0.0,0.0,0.0,0.0,0.0,0.0,0.0,0.0,0.0,0.0,0.0,0.0,0.0,0.0,0.0,0.0,0.0,0.0,0.0,0.0,0.0,0.0,0.0,0.0,0.0,0.0,0.0,0.0,0.0,0.0,0.0,0.0,0.0,0.0,0.0,0.0,0.0,0.0,0.0,0.0,0.0,0.0,0.0,0.0,0.0,0.0,0.0,0.0,0.0,0.0,0.0,0.0,0.0,0.0,0.0,0.0,0.0,0.0,0.0,0.0,0.0,0.0,0.0,0.0,0.0,0.0,0.0,0.0,0.0,0.0,0.0,0.0,0.0,0.0,0.0,0.0,0.0,0.0,0.0,0.0,0.0,0.0,0.0,0.0,0.0,0.0,0.0,0.0,0.0,0.0,0.0,0.0,0.0,0.0,0.0,0.0,0.0,0.0,0.0,0.0,0.0,0.0,0.0,0.0,0.0,0.0,0.0,0.0,0.0,0.0,0.0,0.0,0.0,0.0,0.0,0.0,0.0,0.0,0.0,0.0,0.0,0.0,0.0,0.0,0.0,0.0,0.0,0.0,0.0,0.0,0.0,0.0,0.0,0.0,0.0,0.0,0.0,0.0,0.0,0.0,0.0,0.0,0.0,0.0,0.0,0.0,0.0,0.0,0.0,0.0,0.0,0.0,0.0,0.0,0.0,0.0,0.0,0.0,0.0,0.0,0.0,0.0,0.0,0.0,0.0,0.0,0.0,0.0,0.0,0.0,0.0,0.0,0.0,0.0,0.0,0.0,0.0,0.0,0.0,0.0,0.0,0.0,0.0,0.0,0.0,0.0,0.0,0.0,0.0,0.0,0.0,0.0,0.0,0.0,0.0,0.0,0.0,0.0,0.0,0.0,0.0,0.0,0.0,0.0,0.0,0.0,0.0,0.0,0.0,0.0,0.0,0.0,0.0,0.0,0.0,0.0,0.0,0.0,0.0,0.0,0.0,0.0,0.0,0.0,0.0,0.0,0.0,0.0,0.0,0.0,0.0,0.0,0.0,0.0,0.0,-0.3573,0.0,0.0,0.0,0.0,0.0,0.0,0.0,0.0,0.0,0.0,0.0,0.0,0.0,0.0,0.0,0.0,0.0,0.0,0.0,0.0,0.0,0.0,0.0,0.0,0.0,0.0,0.0,0.0,0.0,0.0,0.0,0.0,0.0,0.0,0.0,0.0,0.0,0.0,0.0,1.2084,1.2367,1.2685,1.4025,1.4777,1.5108,0.0,0.0,0.0,0.0,0.0,0.0,0.0,0.0,0.0,0.0,0.0,0.0,0.0,0.0,0.0,0.0,0.0,0.0,0.0,0.0,0.0,0.0,0.0,0.0,0.0,0.0,0.0,0.0,0.0,0.0,0.0,0.0,0.0,0.0,0.0,0.0,0.0,0.0,0.0,0.0,0.0,0.0,0.0,0.0,0.0,0.0,0.0,0.0,0.0,0.0,0.0,0.0,0.0,0.0,0.0,0.0,0.0,0.0,0.0,0.0,0.0,0.0,0.0,0.0,0.0,0.0,0.0,0.0,0.0,0.0,0.0,-0.3489,0.0,0.0,0.0,0.0,0.0,0.0,0.0,0.0,0.0,0.0,0.0,0.0,0.0,0.0,0.0,0.0,0.0,0.0,0.0,0.0,0.0,0.0,0.0,0.0,0.0,0.0,0.0,0.0,0.0,0.0,0.0,0.0,0.0,0.0,0.0,1.1693,1.179,1.1798,1.1302,1.1595,1.2659,1.3649,1.3993,1.3906,1.4955,0.0,0.0,0.0,0.0,0.0,0.0,0.0,0.0,0.0,0.0,0.0,0.0,0.0,0.0,0.0,0.0,0.0,0.0,0.0,0.0,0.0,0.0,0.0,0.0,0.0,0.0,0.0,0.0,0.0,0.0,0.0,0.0,0.0,0.0,0.0,0.0,0.0,0.0,0.0,0.0,0.0,0.0,0.0,0.0,0.0,0.0,0.0,0.0,0.0,0.0,0.0,0.0,0.0,0.0,0.0,0.0,0.0,0.0,0.0,0.0,0.0,0.0,0.0,-0.3931,-0.3968,-0.3948,-0.4023,-0.3931,-0.3565,-0.331,-0.3046,-0.2812,-0.3005,0.0,0.0,0.0,0.0,0.0,0.0,0.0,0.0,0.0,0.0,0.0,0.0,0.0,0.0,0.0,0.0,0.0,0.0,0.0,0.0,0.0,1.1505,1.161,1.2348,1.2586,1.278,0.0,0.0,0.0,0.0,0.0,0.0,1.0337,1.1171,1.1441,1.1058,1.1712,1.2307,1.2905,1.4231,1.4569,1.4104,1.4567,1.5168,1.577,0.0,0.0,0.0,0.0,0.0,0.0,0.0,0.0,0.0,0.0,0.0,0.0,0.0,0.0,0.0,0.0,0.0,0.0,0.0,0.0,0.0,0.0,0.0,0.0,0.0,0.0,0.0,0.0,0.0,0.0,0.0,0.0,0.0,0.0,0.0,0.0,0.0,0.0,0.0,0.0,0.0,0.0238,-0.1241,0.0,0.0,0.0,0.0,0.0,0.0,0.0,0.0,0.0,0.0,0.0,0.0,0.0,-0.4013,-0.3974,-0.4049,-0.4053,-0.3988,-0.3877,-0.3758,-0.3639,-0.3659,-0.3636,-0.3578,-0.3537,0.0,-0.3202,-0.2988,0.0,0.0,0.0,0.0,0.0,0.0,0.0,0.0,0.0,0.0,0.0,0.0,0.0,0.0,0.0,0.0,0.0,0.0,0.0,0.0,0.0,1.1841,1.1931,1.139,1.2296,1.2598,1.1903,0.0,0.0,0.0,0.0,1.0934,0.9943,1.0802,1.0905,1.0225,1.1396,1.2168,1.2579,1.4164,1.4874,1.4835,1.5001,1.5049,1.4883,1.4042,0.0,0.0,0.0,0.0,0.0,0.0,0.0,0.0,0.0,0.0,0.0,0.0,0.0,0.0,0.0,0.0,0.0,0.0,0.0,0.0,0.0,0.0,0.0,0.0,0.0,0.0,0.0,0.0,0.0,0.0,0.0,0.0,0.0,0.0,0.0,0.0,0.0,0.0,0.0,0.0511,-0.1027,-0.2415,-0.1989,-0.1912,0.0,0.0,0.0,0.0,0.0,0.0,0.0,0.0,0.0,-0.3881,-0.4284,-0.4416,-0.4197,-0.4328,-0.4379,-0.4395,-0.4328,-0.4263,-0.4206,-0.4206,-0.4158,-0.412,-0.3988,-0.3869,-0.3782,-0.3531,-0.3609,-0.3907,0.0,0.0,0.0,0.0,-0.3846,-0.3762,0.0,0.0,0.0,0.0,0.0,0.0,0.0,0.0,0.0,0.0,0.0,0.0,1.146,1.1768,1.1633,1.0671,1.1539,1.1766,1.0874,1.1358,0.0,0.0,1.0962,1.0754,0.9727,1.0399,1.0527,1.012,1.1288,1.2167,1.2815,1.4335,1.5231,1.5527,1.5527,1.5126,1.4316,1.3384,1.2568,1.1963,0.0,0.0,0.0,0.0,0.0,0.0,0.0,0.0,0.0,0.0,0.0,0.0,0.0,0.0,0.0,0.0,0.0,0.0,0.0,0.0,0.0,0.0,0.0,0.0,0.0,0.0,0.0,0.0,0.0,0.0,0.0,0.0,0.0,0.0,0.0,0.0,0.0,-0.1157,-0.2128,-0.3296,-0.2897,-0.2869,0.0,0.0,0.0,0.0,0.0,0.0,-0.4918,-0.4992,-0.4945,-0.4814,-0.4823,-0.4755,-0.4535,-0.464,-0.4731,-0.4802,-0.4802,-0.4782,-0.4748,-0.4707,-0.4629,-0.457,-0.4365,-0.4304,-0.4277,-0.3931,-0.3907,-0.4013,-0.391,-0.4036,-0.427,-0.4005,-0.3982,-0.3969,0.0,0.0,0.0,0.0,0.0,0.0,0.0,0.0,0.0,0.0,0.0,1.117,1.1281,1.0238,0.9681,1.0192,1.0014,0.9956,1.0225,0.9981,0.9744,0.9592,0.9592,0.96,0.9525,0.9849,1.045,1.1198,1.1817,1.2772,1.4141,1.5304,1.5855,1.5873,1.5873,1.5647,1.5169,1.3684,1.2861,1.2471,1.127,0.0,0.0,0.0,0.0,0.0,0.0,0.0,0.0,0.0,0.0,0.0,0.0,0.0,0.0,0.0,0.0,0.0,0.0,0.0,0.0,0.0,0.0,0.0,0.0,0.0,0.0,0.0,0.0,0.0,0.0,0.0,0.0,0.0,0.0,0.0,0.0,0.0,0.0,-0.3728,-0.3619,0.0,0.0,0.0,0.0,-0.4968,-0.5175,-0.5389,-0.5538,-0.5413,-0.5399,-0.5528,-0.5399,-0.5387,-0.537,-0.5377,-0.5247,-0.5108,-0.5108,-0.5036,-0.4904,-0.4758,-0.4687,-0.467,-0.4518,-0.4508,-0.4474,-0.3972,-0.3968,-0.417,-0.402,-0.4189,-0.4433,-0.428,-0.4177,-0.4059,0.0,0.0,0.0,0.0,0.0,0.0,0.0,0.0,0.0,1.1767,1.1271,1.0759,1.0262,1.0409,1.0368,0.988,1.017,1.0245,0.9768,0.9714,0.9466,0.902,0.9328,0.9616,0.9803,0.9577,1.0013,1.1042,1.1607,1.2476,1.3669,1.4813,1.5441,1.574,1.5905,1.5576,1.4768,1.3367,1.2248,1.1306,1.0386,1.0046,0.0,0.0,0.0,0.0,0.0,0.0,0.0,0.0,0.0,0.0,0.0,0.0,0.0,0.0,0.0,0.0,0.0,0.0,0.0,0.0,0.0,0.0,0.0,0.0,0.0,0.0,0.0,0.0,0.0,0.0,0.0,0.0,0.0,0.0,0.0,0.0,0.0,-0.4726,-0.4885,0.0,-0.5318,-0.5261,-0.5283,-0.5562,-0.5705,-0.5817,-0.5871,-0.582,-0.5861,-0.6017,-0.5776,-0.5691,-0.5789,-0.5694,-0.5569,-0.5426,-0.5518,-0.5386,-0.5057,-0.5101,-0.502,-0.4833,-0.4779,-0.4755,-0.4676,-0.3971,-0.3938,-0.4372,-0.4222,-0.4287,-0.4498,-0.4247,-0.4307,-0.427,0.0,0.0,0.0,0.0,0.0,0.0,0.0,0.0,0.0,1.1213,1.074,1.0252,0.971,1.0164,1.024,0.9517,0.9881,0.9872,0.929,0.9249,0.9099,0.8734,0.9178,0.9535,0.9865,0.9764,1.0091,1.0946,1.1661,1.2436,1.3431,1.4447,1.4996,1.5292,1.5447,1.5026,1.4044,1.3248,1.2174,1.0856,1.0066,0.9895,0.9964,0.0,0.0,0.0,0.0,0.0,0.0,0.0,0.0,0.0,0.0,0.0,0.0,0.0,0.0,0.0,0.0,0.0,0.0,0.0,0.0,0.0,0.0,0.0,0.0,0.0,0.0,0.0,0.0,0.0,0.0,0.0,0.0,0.0,0.0,0.0,-0.4776,-0.5487,-0.5766,-0.5905,-0.5952,-0.6091,-0.6159,-0.6108,-0.6291,-0.6403,-0.6403,-0.6359,-0.638,-0.6481,-0.6237,-0.6152,-0.6254,-0.6105,-0.5956,-0.5817,-0.5857,-0.5694,-0.5359,-0.5413,-0.5304,-0.5067,-0.4699,-0.4525,-0.4418,-0.3483,-0.335,-0.3729,-0.3902,-0.4024,-0.4182,-0.4263,-0.4412,-0.4419,0.0,0.0,0.0,0.0,0.0,0.0,0.0,1.182,1.1618,1.0848,1.001,0.9541,0.9761,0.9315,0.9088,0.9198,0.8971,0.8798,0.8804,0.8524,0.8497,0.8804,0.9044,0.9399,0.9706,1.0342,1.0728,1.1035,1.1884,1.2746,1.3717,1.4288,1.4584,1.4584,1.4606,1.4088,1.3267,1.3547,1.2762,1.1443,1.0548,1.0341,1.0481,0.0,0.0,0.0,0.0,0.0,0.0,0.0,0.0,0.0,0.0,0.0,0.0,0.0,0.0,0.0,0.0,0.0,0.0,0.0,0.0,0.0,0.0,0.0,0.0,0.0,0.0,0.0,0.0,0.0,0.0,0.0,0.0,0.0,-0.3675,-0.4918,-0.5735,-0.5894,-0.6244,-0.6447,-0.6315,-0.6695,-0.6888,-0.6739,-0.6993,-0.7153,-0.7146,-0.7014,-0.6936,-0.6936,-0.6783,-0.6702,-0.6709,-0.6556,-0.641,-0.6268,-0.6122,-0.5966,-0.5803,-0.5671,-0.5525,-0.5299,-0.4234,-0.3673,-0.3515,-0.2588,-0.2156,-0.2262,-0.3037,-0.3419,-0.3619,-0.4235,-0.4502,-0.4378,0.0,0.0,0.0,0.0,0.0,0.0,0.0,1.1453,1.0819,0.9915,0.9511,0.9298,0.9363,0.9453,0.9498,0.9546,0.8905,0.8584,0.8791,0.833,0.837,0.903,0.9406,0.98,1.0369,1.0688,1.1229,1.1944,1.2184,1.2675,1.3347,1.3732,1.383,1.3851,1.4372,1.4402,1.4162,1.4249,1.4041,1.3554,1.2231,1.1369,1.0822,0.0,0.0,0.0,0.0,0.0,0.0,0.0,0.0,0.0,0.0,0.0,0.0,0.0,0.0,0.0,0.0,0.0,0.0,0.0,0.0,0.0,0.0,0.0,0.0,0.0,0.0,0.0,0.0,0.0,0.0,0.0,0.0,-0.1587,-0.1964,-0.2887,-0.3616,-0.3908,-0.4993,-0.5719,-0.5771,-0.6784,-0.7397,-0.7356,-0.7428,-0.7424,-0.7316,-0.7163,-0.7082,-0.7082,-0.6834,-0.6753,-0.6865,-0.6715,-0.6563,-0.6413,-0.6485,-0.6322,-0.5895,-0.5283,-0.4814,-0.4474,-0.3453,-0.2975,-0.2896,-0.1914,-0.1554,-0.1643,-0.2253,-0.2557,-0.2625,-0.2765,-0.2507,-0.1997,0.0,0.0,0.0,0.0,0.0,0.0,0.0,1.0954,1.0132,0.93,0.9092,0.9011,0.8891,0.9138,0.9265,0.9145,0.8778,0.8524,0.8444,0.8095,0.8165,0.8758,0.886,0.9361,1.0476,1.076,1.1475,1.2685,1.2806,1.3046,1.34,1.3814,1.4015,1.4028,1.4502,1.4703,1.471,1.4836,1.4816,1.4636,1.3895,1.3146,1.2398,1.173,1.163,1.1744,1.0902,1.0955,1.1134,0.9214,0.0,0.0,0.0,0.0,0.0,0.0,0.0,0.0,0.0,0.0,0.0,0.0,0.0,0.0,0.0,0.0,0.0,0.0,0.0,0.0,0.0,0.0,0.0,0.0,-0.079,-0.092,-0.0754,-0.2036,-0.3062,-0.3324,-0.4221,-0.5027,-0.5656,-0.6483,-0.7174,-0.7692,-0.7746,-0.7719,-0.7563,-0.7472,-0.7363,-0.7241,-0.6627,-0.6294,-0.6228,-0.5579,-0.5228,-0.5162,-0.5181,-0.5083,-0.4732,-0.4236,-0.3923,0.0,-0.2624,-0.2205,-0.2055,-0.1106,-0.0745,0.0,0.0,0.0,0.0,0.0,-0.1825,-0.1079,0.0,0.0,0.0,0.0,0.0,0.0,0.0,1.0366,0.9567,0.8825,0.8755,0.8671,0.831,0.853,0.8631,0.8437,0.8512,0.8318,0.7759,0.7783,0.792,0.8142,0.7953,0.8633,1.0431,1.0724,1.1667,1.326,1.3547,1.3707,1.3672,1.4309,1.4569,1.4583,1.4883,1.5017,1.503,1.5357,1.5331,1.5084,1.5378,1.5104,1.4402,1.3347,1.326,1.3547,1.2425,1.1839,1.1346,0.9965,0.0,0.0,0.0,0.0,0.0,0.0,0.0,0.0,0.0,0.0,0.0,0.0,0.0,0.0,0.0,0.0,0.0,0.0,0.0,0.0,0.0,0.0,0.0,0.0,0.0,0.0,0.0,-0.1696,-0.3112,-0.3322,-0.3531,-0.402,-0.5289,-0.5572,-0.6184,-0.7255,-0.7464,-0.7473,-0.733,0.0,0.0,0.0,0.0,-0.5317,-0.5218,-0.3974,-0.3322,-0.3401,-0.3249,-0.3125,-0.311,-0.3026,-0.2876,-0.2682,-0.1816,-0.1307,-0.1099,-0.0287,0.0,-0.007,-0.0705,-0.1067,-0.1214,-0.1934,-0.167,-0.0987,0.0,0.0,0.0,0.0,0.0,0.0,0.0,1.0273,0.9335,0.793,0.8383,0.851,0.7775,0.7916,0.827,0.8691,0.756,0.6801,0.6686,0.7017,0.7416,0.7756,0.8226,0.9119,1.0701,1.1177,1.2056,1.3561,1.3854,1.4122,1.4355,1.471,1.4877,1.489,1.5184,1.5311,1.5344,1.5879,1.5932,1.5691,1.5985,1.5464,1.4496,1.4262,1.4102,1.3908,1.3206,1.2785,1.2195,1.003,0.913,0.853,0.6639,0.5881,0.0,0.0,0.0,0.0,0.0,0.0,0.0,0.0,0.0,0.0,0.0,0.0,0.0,0.0,0.0,0.0,0.0,0.0,0.0,0.0,0.0,0.0,0.0,-0.0398,-0.0696,-0.0702,-0.1703,-0.2401,-0.2701,-0.3709,-0.451,-0.4694,-0.4808,-0.4682,-0.4596,-0.4592,-0.4542,-0.4342,-0.4152,-0.3957,-0.3941,-0.3645,-0.3516,-0.3549,0.0,0.0,-0.3356,-0.241,-0.1952,-0.1821,-0.0747,-0.0324,-0.0232,-0.0077,0.0,0.0,-0.0131,-0.0253,-0.025,-0.0445,-0.0384,-0.0193,0.0,0.0,0.0,0.0,0.0,0.0,0.0,0.9969,0.8987,0.8092,0.8437,0.8577,0.8031,0.7759,0.7654,0.7778,0.6773,0.6276,0.6746,0.6778,0.6914,0.7402,0.7525,0.8513,1.0559,1.0805,1.1946,1.4082,1.4229,1.4456,1.475,1.5044,1.5177,1.5197,1.5484,1.5691,1.5852,1.6146,1.6273,1.6279,1.6433,1.6139,1.5578,1.5291,1.5084,1.4883,1.4295,1.3563,1.2511,1.0589,0.9543,0.8743,0.6809,0.6229,0.6188,0.0,0.0,0.0,0.0,0.0,0.0,0.0,0.0,0.0,0.0,0.0,0.0,0.0,0.0,0.0474,0.0081,0.0,0.0,0.0,0.0,0.0,0.0,0.0,0.0,0.0,-0.0605,-0.131,-0.1913,-0.2614,-0.3316,-0.3915,-0.4016,-0.4,-0.3866,-0.3864,-0.3831,-0.3663,-0.3083,-0.2782,-0.266,-0.2091,-0.1797,-0.1779,-0.1779,-0.1751,-0.17,-0.1164,-0.0881,-0.0769,-0.0257,0.0,0.0,0.0,0.0,0.0,0.0,0.0,0.0,0.0,0.0,0.0,0.0,0.0,0.0,0.0,0.0,0.0,0.0,0.0,0.8833,0.838,0.8544,0.8591,0.8286,0.7691,0.7118,0.6653,0.609,0.6087,0.6952,0.651,0.6623,0.752,0.7163,0.8147,1.0753,1.0884,1.2066,1.4603,1.4663,1.4816,1.5057,1.5344,1.5478,1.5491,1.5725,1.5999,1.6279,1.6333,1.6493,1.6707,1.6767,1.676,1.6647,1.6119,1.5912,1.5832,1.519,1.3964,1.2447,1.1037,0.9912,0.8837,0.7177,0.6896,0.7044,0.6454,0.5841,0.0,0.0,0.0,0.0,0.0,0.0,0.0,0.0,0.06,0.0,0.0,0.0,0.0,0.0,0.0,0.0,0.0,0.0,0.0,0.0,0.0,0.0,0.0,0.0,-0.0404,-0.1511,-0.1611,-0.2012,-0.3115,-0.3215,-0.3215,-0.3215,-0.3215,-0.3194,-0.305,-0.2165,-0.1564,-0.1445,-0.0482,0.0,0.0,0.0,0.0,0.0,0.0,0.0,0.0,0.0,0.0,0.0,0.0,0.0,0.0,0.0,0.0,0.0,0.0,0.0,0.0,0.0,0.0,0.0,0.0,0.0,0.0,0.0,0.0,0.0,0.8098,0.8237,0.8252,0.7674,0.7523,0.7044,0.5993,0.5704,0.5893,0.6679,0.6051,0.6742,0.9145,0.8738,0.9649,1.2298,1.2429,1.3316,1.4917,1.517,1.5317,1.5351,1.5645,1.5785,1.5785,1.5812,1.5999,1.6293,1.6547,1.6673,1.6727,1.6994,1.6941,1.6667,1.6346,1.6226,1.6112,1.5264,1.3716,1.1862,1.082,0.9278,0.7709,0.6901,0.6651,0.6489,0.6026,0.5535,0.5142,0.5133,0.4745,0.4204,0.3621,0.2579,0.177,0.0,0.0922,0.0,0.0,0.0,0.0,0.0,0.0,0.0,0.0,0.0,0.0,0.0,0.0,0.0,0.0,0.0,-0.0101,-0.0202,-0.0202,-0.0303,-0.0404,-0.0404,-0.0404,-0.0404,-0.0404,-0.0403,-0.0402,-0.0302,-0.0201,-0.0201,-0.01,0.0,0.0,0.0,0.0,0.0,0.0,0.0,0.0,0.0,0.0,0.0,0.0,0.0,0.0,0.0,0.0,0.0,0.0,0.0,0.0,0.0,0.0,0.0,0.0,0.0,0.0,0.0,0.0,0.0,0.0,0.855,0.853,0.8277,0.7486,0.6609,0.5718,0.5189,0.5388,0.647,0.6638,0.7568,0.9448,0.9703,1.0747,1.2644,1.275,1.364,1.5217,1.5337,1.5484,1.5651,1.5772,1.5832,1.5838,1.6012,1.6253,1.6547,1.684,1.7061,1.7228,1.7348,1.7228,1.6914,1.6446,1.6286,1.6132,1.471,1.2965,0.0,1.0058,0.864,0.7321,0.6866,0.6478,0.6159,0.5881,0.5667,0.5579,0.584,0.5796,0.5532,0.4811,0.4583,0.406,0.2496,0.1771,0.1198,0.0202,0.0,0.0,0.0,0.0,0.0,0.0,0.0,0.0,0.0,0.0,0.0,0.0,0.0,0.0,0.0,0.0,0.0,0.0,0.0,0.0,0.0,0.0,0.0,0.0,0.0,0.0,0.0,0.0,0.0,0.0,0.0,0.0,0.0,0.0,0.0,0.0,0.0,0.0,0.0,0.0,0.0,0.0,0.0,0.0,0.0,0.0,0.0,0.0,0.0,0.0,0.0,0.0,0.0,0.0,0.0,0.0,0.0,0.0,0.0,0.8804,0.8804,0.767,0.6583,0.5869,0.5167,0.5254,0.6339,0.6867,0.7966,0.9779,1.0416,1.1549,1.3242,1.3328,1.409,1.5518,1.5518,1.5625,1.5832,1.5832,1.5832,1.5845,1.6139,1.6433,1.672,1.6934,1.7194,1.7455,1.7375,1.7168,1.6941,1.649,1.6148,1.567,1.4022,1.2356,1.0867,0.9504,0.8447,0.753,0.7142,0.6801,0.6529,0.619,0.5974,0.5925,0.621,0.6522,0.6658,0.6301,0.6297,0.5849,0.3394,0.2701,0.2043,0.0319,0.0,0.0,0.0,0.0,0.0,0.0,0.0,0.0,0.0,0.0,0.0,0.0,0.0,0.0,0.0,0.0,0.0,0.0,0.0,0.0,0.0,0.0,0.0,0.0,0.0,0.0,0.0,0.0,0.0,0.0,0.0,0.0,0.0,0.0,0.0,0.0,0.0,0.0,0.0,0.0,0.0,0.0,0.0,0.0,0.0,0.0,0.0,0.0,0.0,0.0,0.0,0.0,0.0,0.0,0.0,0.0,0.0,0.0,0.0,0.0,0.0,0.8103,0.7343,0.6642,0.5873,0.5763,0.6336,0.6294,0.7583,1.0605,1.093,1.2097,1.4402,1.4803,1.5231,1.5812,1.5812,1.5818,1.5832,1.5832,1.5832,1.5845,1.6139,1.6433,1.6707,1.6714,1.6894,1.7134,1.6847,1.656,1.631,1.638,1.5747,1.4583,1.3319,1.2103,1.087,0.945,0.8689,0.8269,0.7803,0.779,0.7797,0.7074,0.6481,0.5993,0.5857,0.6359,0.7061,0.7638,0.7015,0.5957,0.4729,0.3454,0.201,0.0336,0.0,0.0,0.0,0.0,0.0,0.0,0.0,0.0,0.0,0.0,0.0,0.0,0.0,0.0,0.0,0.0,0.0,0.0,0.0,0.0,0.0,0.0,0.0,0.0,0.0,0.0,0.0,0.0,0.0,0.0,0.0,0.0,0.0,0.0,0.0,0.0,0.0,0.0,0.0,0.0,0.0,0.0,0.0,0.0,0.0,0.0,0.0,0.0,0.0,0.0,0.0,0.0,0.0,0.0,0.0,0.0,0.0,0.0,0.0,0.0,0.0,0.0,0.0,0.0,0.5923,0.5703,0.6133,0.6936,0.8149,0.9892,1.1024,1.2149,1.3327,1.3641,1.4182,1.4963,1.4963,1.5157,1.5538,1.5538,1.5645,1.5845,1.6139,1.6326,1.6538,1.674,1.6653,1.6209,1.5908,1.5622,1.5409,1.531,1.4177,1.2645,0.0,1.1231,1.0161,0.8753,0.8189,0.7885,0.6865,0.6532,0.6433,0.6015,0.6043,0.6281,0.6722,0.7244,0.7811,0.8411,0.8451,0.7659,0.5213,0.4388,0.3361,0.0557,0.0,0.0,0.0,0.0,0.0,0.0,0.0,0.0,0.0,0.0,0.0,0.0,0.0,0.0,0.0,0.0,0.0,0.0,0.0,0.0,0.0,0.0,0.0,0.0,0.0,0.0,0.0,0.0,0.0,0.0,0.0,0.0,0.0,0.0,0.0,0.0,0.0,0.0,0.0,0.0,0.0,0.0,0.0,0.0,0.0,0.0,0.0,0.0,0.0,0.0,0.0,0.0,0.0,0.0,0.0,0.0,0.0,0.0,0.0,0.0,0.0,0.0,0.0,0.0,0.0,0.5762,0.549,0.6585,0.7641,0.8584,1.0052,1.1171,1.2004,1.2408,1.2975,1.3728,1.3728,1.3975,1.4449,1.4449,1.4609,1.491,1.5311,1.5565,1.5597,1.5853,1.5772,1.5544,1.4635,1.4475,1.462,1.4059,1.2919,0.0,1.0719,1.0107,0.9415,0.8521,0.83,0.8196,0.7111,0.6559,0.6241,0.6052,0.6324,0.6783,0.737,0.7896,0.8411,0.896,0.9283,0.8829,0.6138,0.5255,0.4176,0.1632,0.0843,0.041,0.0099,0.0292,0.049,0.0101,0.0,0.0,0.0,0.0,0.0,0.0,0.0,0.0,0.0,0.0,0.0,0.0,0.0,0.0,0.0,0.0,0.0,0.0,0.0,0.0,0.0,0.0,0.0,0.0,0.0,0.0,0.0,0.0,0.0,0.0,0.0,0.0,0.0,0.0,0.0,0.0,0.0,0.0,0.0,0.0,0.0,0.0,0.0,0.0,0.0,0.0,0.0,0.0,0.0,0.0,0.0,0.0,0.0,0.0,0.0,0.0,0.0,0.0,0.0,0.0,0.468,0.5479,0.635,0.7106,0.8203,0.9349,1.0553,1.1235,1.1852,1.2198,1.2245,1.2378,1.2721,1.2761,1.2866,1.3186,1.3748,1.4031,1.3993,1.3979,1.4364,1.4837,1.3287,1.3174,1.38,1.2632,1.1828,1.1121,0.9389,0.8808,0.8811,0.8824,0.8997,0.9097,0.8369,0.765,0.7084,0.7037,0.7199,0.7475,0.7694,0.8306,0.8862,0.9303,0.9513,0.9206,0.7519,0.6003,0.459,0.3247,0.2303,0.1348,0.037,0.0996,0.1369,0.0291,0.0,0.0,0.0,0.0,0.0,0.0,0.0,0.0,0.0,0.0,0.0,0.0,0.0,0.0,0.0,0.0,0.0,0.0,0.0,0.0,0.0,0.0,0.0,0.0,0.0,0.0,0.0,0.0,0.0,0.0,0.0,0.0,0.0,0.0,0.0,0.0,0.0,0.0,0.0,0.0,0.0,0.0,0.0,0.0,0.0,0.0,0.0,0.0,0.0,0.0,0.0,0.0,0.0,0.0,0.0,0.0,0.0,0.0,0.0,0.0,0.5634,0.6622,0.7333,0.7516,0.8546,0.935,0.9912,1.0338,1.0771,1.1313,1.1345,1.1634,1.2121,1.2107,1.2251,1.2545,1.2692,1.2785,1.2737,1.2785,1.2414,1.171,1.1028,1.1151,1.1685,1.0918,1.039,1.0007,0.9121,0.8808,0.8785,0.8815,0.9132,0.9379,0.8188,0.7248,0.6493,0.6489,0.6863,0.7294,0.7761,0.8511,0.9218,0.9549,0.962,0.918,0.7413,0.6465,0.5426,0.3817,0.3102,0.2841,0.3111,0.2903,0.2456,0.1714,0.0713,0.0,0.0,0.0,0.0,0.0,0.0,0.0,0.0,0.0,0.0,0.0,0.0,0.0,0.0,0.0,0.0,0.0,0.0,0.0,0.0,0.0,0.0,0.0,0.0,0.0,0.0,0.0,0.0,0.0,0.0,0.0,0.0,0.0,0.0,0.0,0.0,0.0,0.0,0.0,0.0,0.0,0.0,0.0,0.0,0.0,0.0,0.0,0.0,0.0,0.0,0.0,0.0,0.0,0.0,0.0,0.0,0.0,0.0,0.0,0.0,0.7058,0.7551,0.7551,0.8514,0.9125,0.9299,0.9459,0.9702,1.0019,1.0032,1.0287,1.0742,1.0703,1.0868,1.1162,1.1283,1.1365,1.1327,1.1325,1.0923,0.0,0.0,0.9803,1.0,0.9601,0.9382,0.9279,0.8928,0.8781,0.8765,0.8409,0.8508,0.8719,0.8434,0.7807,0.7065,0.7111,0.7585,0.8192,0.8702,0.9132,0.9592,0.9881,0.9654,0.9159,0.7946,0.6806,0.5904,0.516,0.4235,0.3866,0.4914,0.4216,0.3285,0.2661,0.1085,0.0,0.0,0.0,0.0,0.0,0.0,0.0,0.0,0.0693,0.0812,0.0,0.0,0.0,0.0,0.0,0.0,0.0,0.0,0.0,0.0,0.0,0.0,0.0,0.0,0.0,0.0,0.0,0.0,0.0,0.0,0.0,0.0,0.0,0.0,0.0101,0.0598,0.0899,0.0905,0.1579,0.1771,0.178,0.0,0.0,0.0,0.0,0.0,0.0,0.0,0.0,0.0,0.0,0.0,0.0,0.0,0.0,0.0,0.0,0.0,0.0,0.0,0.0,0.7593,0.7593,0.8362,0.8804,0.8804,0.8804,0.8804,0.8804,0.8804,0.8938,0.913,0.913,0.9319,0.9579,0.9833,0.9937,0.9914,0.9905,0.9895,0.9804,0.933,0.9031,0.8804,0.0,0.8804,0.8804,0.8804,0.8814,0.8734,0.8426,0.8043,0.7906,0.8914,0.876,0.8248,0.8366,0.8901,0.9534,0.9829,1.0008,1.0097,0.9935,0.9696,0.9188,0.8564,0.7138,0.6062,0.6647,0.5451,0.4765,0.6037,0.5092,0.3974,0.3351,0.1672,0.0398,0.0,0.0112,0.0229,0.0,0.0,0.0119,0.0357,0.1658,0.2023,0.0727,0.0717,0.0471,0.0,0.0,0.0,0.0,0.0,0.0,0.0,0.0,0.0,0.0,0.0,0.0,0.0,0.0,0.0,0.0,0.0,0.0,0.0,0.0,0.0,0.0101,0.131,0.1812,0.2109,0.3259,0.3866,0.3997,0.0,0.0,0.0,0.0,0.0,0.0,0.0,0.0,0.0,0.0,0.8724,0.8804,0.0,0.0,0.0,0.0,0.0,0.0,0.0,0.0,0.0,0.8533,0.8699,0.8804,0.8804,0.8804,0.8804,0.8804,0.8804,0.8831,0.8884,0.8884,0.8911,0.8958,0.9011,0.9011,0.9025,0.9018,0.9012,0.899,0.8924,0.8851,0.8804,0.8804,0.0,0.0,0.8804,0.88,0.912,1.1261,1.0498,0.8686,0.8897,0.8956,0.8989,0.9205,0.9556,0.9871,1.0428,1.0395,1.0223,0.9857,0.9496,0.9005,0.8279,0.7198,0.6411,0.641,0.5849,0.5501,0.5847,0.5873,0.5448,0.3969,0.3468,0.2532,0.0338,0.0915,0.1281,0.0122,0.0,0.0615,0.2112,0.2337,0.0,0.0,0.4059,0.291,0.012,0.0,0.0,0.0,0.0,0.0,0.0,0.0,0.0,0.0,0.0,0.0,0.0,0.0,0.0,0.0,0.0,0.0,0.0,0.0,0.0,0.0,0.0303,0.1008,0.2012,0.2306,0.3007,0.4012,0.0,0.0,0.0,0.0,0.0,0.0,0.0,0.8637,0.8898,0.9214,0.9267,0.9218,0.9002,0.8871,0.8804,0.0,0.0,0.0,0.0,0.0,0.0,0.0,0.0,0.0,0.8804,0.8804,0.8804,0.8804,0.0,0.8804,0.8804,0.8804,0.8804,0.8804,0.8804,0.8804,0.8804,0.8804,0.8804,0.8804,0.8804,0.8804,0.8804,0.0,0.0,0.0,0.8804,0.8813,0.9028,1.0502,1.0477,0.9684,0.8969,1.0277,1.2078,1.1598,1.1327,1.1234,1.1915,1.1326,1.0419,0.9995,0.9422,0.8804,0.7899,0.7081,0.6438,0.5915,0.5674,0.5596,0.5677,0.5858,0.5826,0.5223,0.4267,0.3647,0.4084,0.2307,0.1136,0.1834,0.1613,0.213,0.3936,0.4765,0.511,0.5145,0.582,0.5142,0.2679,0.18,0.0946,0.0,0.0,0.0,0.0,0.0,0.0,0.0,0.0,0.0,0.0,0.0,0.0,0.0,0.0,0.0,0.0101,0.0706,0.1008,0.121,0.2616,0.3519,0.4121,0.4822,0.5522,0.6124,0.0,0.0,0.0,0.0,0.0,0.0,0.0,0.9105,0.9448,0.9724,0.9755,0.9619,0.9339,0.9064,0.8878,0.0,0.0,0.0,0.0,0.0,0.0,0.0,0.0,0.0,0.0,0.0,0.0,0.8804,0.8804,0.0,0.0,0.0,0.0,0.0,0.8804,0.8804,0.8804,0.8804,0.8804,0.0,0.0,0.8804,0.0,0.0,0.0,0.0,0.0,0.8811,0.8861,0.9429,1.0098,1.0442,0.9239,1.1498,1.4378,1.3393,1.2741,1.2407,1.3005,1.1896,1.0453,1.009,0.9466,0.8655,0.7847,0.7193,0.6528,0.5845,0.5686,0.5659,0.5586,0.5649,0.5796,0.6159,0.4951,0.4894,0.7483,0.4013,0.1885,0.3656,0.349,0.3923,0.5795,0.6998,0.0,0.6307,0.7313,0.0,0.5039,0.3713,0.2358,0.1059,0.1029,0.0787,0.0448,0.0448,0.0448,0.0448,0.0441,0.0435,0.0428,0.0419,0.0309,0.0,0.0,0.0,0.0,0.1109,0.1712,0.2213,0.4321,0.5527,0.6129,0.7135,0.7736,0.8038,0.0,0.0,0.0,0.0,0.0,0.0,0.0,0.9279,0.974,1.002,0.9833,0.9673,0.9659,0.9385,0.9044,0.0,0.0,0.0,0.0,0.0,0.0,0.0,0.0,0.0,0.0,0.0,0.0,0.8804,0.8804,0.0,0.0,0.0,0.0,0.0,0.0,0.8804,0.8804,0.8804,0.0,0.0,0.0,0.0,0.0,0.0,0.0,0.0,0.0,0.8798,0.8982,1.0124,1.0699,1.091,1.0419,1.1477,1.2985,1.2721,1.252,1.2418,1.2888,1.1769,1.0561,0.9985,0.9388,0.8838,0.8432,0.7926,0.736,0.668,0.6593,0.6338,0.5575,0.5554,0.5702,0.5835,0.6312,0.6796,0.714,0.6172,0.5268,0.4872,0.4855,0.5586,0.7565,0.775,0.8328,0.9745,0.9611,0.0,0.5039,0.4717,0.4524,0.4223,0.4265,0.3515,0.2012,0.2012,0.2012,0.2012,0.1981,0.1964,0.1958,0.1998,0.1242,0.0,0.0,0.0,0.0,0.0101,0.0907,0.2013,0.2314,0.3819,0.6029,0.6129,0.6933,0.8038,0.0,0.0,0.0,0.0,0.0,0.0,0.8835,0.9152,0.9526,0.982,0.9907,0.988,0.9699,0.9579,0.9319,0.8844,0.0,0.0,0.0,0.0,0.0,0.0,0.0,0.0,0.0,0.0,0.8804,0.8804,0.8804,0.0,0.0,0.0,0.0,0.0,0.0,0.8804,0.8804,0.8804,0.0,0.0,0.0,0.0,0.0,0.0,0.0,0.0,0.0,0.0,0.8905,0.9552,1.008,1.0368,1.0084,1.1121,1.2606,1.3237,1.2896,1.2624,1.3789,1.2459,1.0575,0.9971,0.9306,0.8716,0.8481,0.7898,0.7419,0.7451,0.7502,0.7242,0.6334,0.6331,0.6294,0.5868,0.629,0.6761,0.7031,0.7287,0.7596,0.7682,0.6962,0.7318,0.0,0.0,0.9553,1.0029,0.9944,0.0,0.7978,0.6899,0.5866,0.4878,0.4756,0.4334,0.374,0.3593,0.3576,0.3576,0.3553,0.3633,0.3594,0.2659,0.1883,0.1242,0.0407,0.0,0.0,0.0907,0.1511,0.2113,0.2914,0.432,0.6029,0.6029,0.6833,0.8038,0.0,0.0,0.0,0.0,0.0,0.8702,0.87,0.9072,0.9446,0.9659,0.986,0.9913,0.9706,0.9532,0.9292,0.8965,0.8858,0.0,0.0,0.0,0.0,0.0,0.0,0.0,0.0,0.0,0.8804,0.8804,0.8804,0.8804,0.0,0.0,0.8804,0.8804,0.0,0.0,0.0,0.0,0.0,0.0,0.0,0.0,0.0,0.0,0.0,0.0,0.0,0.0,0.0,0.0,0.0,0.9693,0.9492,1.0334,1.1624,1.2985,1.3033,1.3006,1.4487,1.3282,1.1519,1.0936,1.0166,0.9466,0.9335,0.8625,0.8113,0.8351,0.8355,0.8091,0.7242,0.7078,0.6725,0.583,0.6036,0.651,0.7065,0.7848,0.8582,0.9202,0.0,0.8622,1.033,1.0466,1.0344,1.0134,0.0,0.0,0.9822,0.8751,0.7597,0.6363,0.6194,0.5862,0.5376,0.518,0.514,0.514,0.514,0.5107,0.5154,0.3991,0.3285,0.2707,0.123,0.0,0.0,0.1812,0.2515,0.3317,0.4219,0.5422,0.6631,0.6631,0.7235,0.8038,0.0,0.0,0.0,0.0,0.0,0.0,0.843,0.9118,0.9679,0.9686,0.9686,0.9686,0.9686,0.9165,0.8931,0.9157,0.8971,0.0,0.0,0.0,0.0,0.0,0.0,0.0,0.0,0.0,0.8804,0.8804,0.8804,0.8804,0.8804,0.8804,0.8804,0.8804,0.0,0.0,0.0,0.0,0.0,0.0,0.0,0.0,0.0,0.0,0.0,0.0,0.0,0.0,0.0,0.0,0.0,0.0,0.0,0.9025,0.9621,1.1737,1.2711,1.3378,1.4327,1.4161,1.3596,1.3379,1.2358,1.1472,1.1475,1.0574,0.9611,0.9314,0.9274,0.9005,0.8156,0.7693,0.6932,0.5651,0.5881,0.6464,0.7058,0.7622,0.8137,0.8645,0.8977,0.9395,0.9998,1.0195,1.0283,1.028,0.0,0.0,0.9822,0.9819,0.9754,0.9612,0.9459,0.8605,0.686,0.6753,0.67,0.67,0.67,0.67,0.6695,0.6691,0.5714,0.0,0.0,0.0,0.0,0.2514,0.3518,0.5929,0.5929,0.6833,0.7939,0.7939,0.7939,0.8038,0.0,0.0,0.0,0.0,0.0,0.0,0.0,0.8778,0.9085,0.9085,0.9259,0.9379,0.9379,0.9163,0.9084,0.9176,0.8971,0.0,0.0,0.0,0.0,0.0,0.0,0.0,0.0,0.0,0.8611,0.8804,0.8804,0.8804,0.8804,0.8804,0.8804,0.8804,0.8804,0.8804,0.0,0.0,0.0,0.0,0.0,0.0,0.0,0.0,0.0,0.0,0.0,0.0,0.0,0.0,0.0,0.0,0.0,0.0,0.0,0.996,1.0503,1.105,1.2215,1.1889,1.1235,1.0933,1.056,1.025,1.0576,1.0069,0.9667,1.0117,1.0174,0.9913,0.9069,0.8571,0.7711,0.5692,0.5872,0.6468,0.7058,0.7719,0.8438,0.893,0.973,1.0256,0.0,0.0,1.0236,1.0131,0.0,0.0,0.9822,0.973,0.9656,0.9612,0.9459,0.9073,0.8464,0.8332,0.8156,0.8156,0.8156,0.8156,0.8149,0.7133,0.636,0.0,0.0,0.0,0.0,0.3516,0.3917,0.4618,0.4618,0.5422,0.6631,0.6631,0.7235,0.8038,0.0,0.0,0.0,0.0,0.0,0.0,0.0,0.8817,0.9113,0.8857,0.8965,0.9064,0.9176,0.909,0.9064,0.9176,0.8971,0.0,0.0,0.0,0.0,0.0,0.0,0.0,0.0,0.8571,0.8684,0.8971,0.8971,0.8971,0.8971,0.8971,0.8911,0.8804,0.8804,0.8804,0.0,0.0,0.0,0.0,0.0,0.0,0.8804,0.0,0.0,0.0,0.0,0.0,0.0,0.0,0.0,0.0,0.0,0.0,0.0,0.0,0.918,0.9691,1.1058,1.1361,1.1138,1.0942,1.0539,1.0319,1.0613,1.0182,0.9866,1.0487,1.0608,1.0424,0.9866,0.9639,0.8847,0.6869,0.6592,0.6709,0.7066,0.7674,0.0,0.9059,0.0,0.0,0.0,1.0263,1.0215,0.0,0.0,0.0,0.9822,0.9686,0.9585,0.9523,0.9374,0.9249,0.9154,0.9011,0.894,0.894,0.894,0.891,0.8742,0.7932,0.7353,0.0,0.0,0.0,0.0,0.492,0.502,0.552,0.552,0.6024,0.6731,0.6731,0.7235,0.8038,0.0,0.0,0.0,0.0,0.0,0.0,0.0,0.9112,0.9481,0.8928,0.8791,0.8911,0.9123,0.8971,0.8918,0.913,0.0,0.0,0.0,0.0,0.0,0.0,0.0,0.0,0.8427,0.8617,0.8898,0.915,0.9176,0.9183,0.9183,0.9203,0.9064,0.8838,0.8838,0.8824,0.8804,0.8804,0.8804,0.8804,0.8804,0.8804,0.0,0.0,0.0,0.0,0.0,0.0,0.0,0.0,0.0,0.0,0.0,0.0,0.0,0.0,0.0,0.0,0.0,1.1857,1.2573,1.2573,1.1891,1.1303,1.1303,1.0668,0.0,1.0504,1.045,1.0412,1.0393,1.0457,0.9971,0.8639,0.7638,0.7091,0.714,0.7602,0.0,0.0,0.9707,0.0,0.9822,1.0083,1.0202,0.0,0.0,0.0,0.9805,0.9659,0.951,0.9367,0.9218,0.9137,0.9137,0.9005,0.894,0.894,0.894,0.8859,0.8716,0.8859,0.8682,0.0,0.0,0.0,0.0,0.6631,0.6833,0.8038,0.8038,0.8038,0.8038,0.8038,0.8038,0.8038,0.0,0.0,0.0,0.0,0.0,0.0,0.0,0.0,0.0,0.0,0.8916,0.8831,0.8898,0.8844,0.8838,0.0,0.0,0.0,0.0,0.0,0.0,0.0,0.0,0.0,0.837,0.8216,0.839,0.8911,0.9077,0.9183,0.919,0.9472,0.9419,0.9084,0.9084,0.9018,0.8804,0.8804,0.8804,0.8804,0.8804,0.8804,0.0,0.0,0.0,0.0,0.8804,0.8804,0.0,0.0,0.0,0.0,0.0,0.0,0.0,0.0,0.8804,0.8898,0.9312,0.0,1.0067,1.0067,1.008,1.0094,0.0,1.0066,1.0071,1.0119,0.9297,0.8589,0.8642,0.8778,0.8795,0.8477,0.7703,0.7141,0.7293,0.8174,0.0,0.9449,0.993,1.0076,0.9696,0.9927,0.0,0.0,0.0,0.9659,0.9659,0.9405,0.9245,0.9208,0.9066,0.8988,0.8988,0.8954,0.894,0.894,0.894,0.8859,0.8713,0.8747,0.8584,0.0,0.0,0.0,0.7939,0.7637,0.7736,0.8038,0.8038,0.8038,0.8038,0.8038,0.8038,0.8038,0.0,0.0,0.0,0.0,0.0,0.0,0.0,0.0,0.0,0.0,0.0,0.8804,0.8804,0.8804,0.0,0.0,0.0,0.0,0.0,0.0,0.0,0.0,0.0,0.7836,0.8163,0.8143,0.849,0.9212,0.9365,0.9512,0.9639,0.9673,0.969,0.9714,0.9573,0.9205,0.8804,0.8804,0.8804,0.8804,0.8804,0.0,0.0,0.0,0.0,0.0,0.8804,0.8804,0.0,0.8804,0.8804,0.8804,0.0,0.0,0.0,0.0,0.8804,0.8804,0.8804,0.9118,0.9446,0.9446,0.9566,0.9719,0.9853,0.978,0.9773,0.9832,0.9525,0.9376,0.9872,1.056,1.0781,0.9978,0.969,0.9298,0.0,0.0,0.9782,0.9672,0.988,1.0002,0.0,0.0,0.0,0.0,0.0,0.9581,0.9507,0.9283,0.9154,0.9154,0.9015,0.894,0.894,0.894,0.894,0.894,0.8866,0.8754,0.8604,0.8604,0.8445,0.0,0.0,0.0,0.8038,0.8038,0.8038,0.8038,0.8038,0.8038,0.8038,0.8038,0.8038,0.8038,0.0,0.0,0.0,0.0,0.0,0.0,0.0,0.0,0.0,0.0,0.0,0.0,0.0,0.0,0.0,0.0,0.0,0.0,0.0,0.0,0.0,0.0,0.7856,0.7882,0.7882,0.8223,0.8758,0.9546,0.9686,0.9853,1.0047,0.994,1.0013,1.021,0.9933,0.9413,0.8804,0.8804,0.8804,0.8811,0.8903,0.0,0.0,0.0,0.0,0.0,0.0,0.0,0.0,0.8804,0.8804,0.8804,0.8804,0.0,0.0,0.0,0.0,0.0,0.8864,0.9399,0.99,0.9673,0.9686,0.9813,0.9987,0.9656,0.9381,0.9653,1.0312,1.1177,1.2105,1.2991,1.3186,1.1829,1.2058,0.0,1.0584,1.0632,1.054,0.9631,0.972,0.0,0.9907,0.0,0.0,0.0,0.0,0.9483,0.9354,0.9201,0.912,0.912,0.9001,0.8927,0.8903,0.8903,0.8903,0.8903,0.875,0.8598,0.8452,0.8452,0.8299,0.8045,0.0,0.0,0.8038,0.8038,0.8038,0.8038,0.8038,0.8038,0.8038,0.8038,0.8038,0.8038,0.0,0.0,0.0,0.0,0.0,0.0,0.0,0.0,0.0,0.0,0.0,0.0,0.0,0.0,0.0,0.0,0.0,0.0,0.0,0.0,0.0,0.758,0.758,0.7662,0.7875,0.8223,0.8564,0.8945,0.9686,0.9947,0.9766,1.0468,1.043,0.9815,0.9778,0.9413,0.8804,0.8804,0.8804,0.8857,0.9413,0.0,0.0,0.0,0.0,0.0,0.0,0.0,0.0,0.8804,0.8804,0.8804,0.8804,0.0,0.0,0.0,0.0,0.0,0.905,1.0147,1.0862,0.9619,0.9679,0.9926,0.9564,0.9198,0.9047,0.96,1.0962,1.2112,1.224,1.1825,1.1511,1.1916,0.0,1.2092,0.0,0.0,1.1131,0.9634,0.0,0.9683,0.0,0.0,0.0,0.0,0.0,0.9211,0.9191,0.9052,0.8971,0.8971,0.895,0.8876,0.8747,0.8747,0.8747,0.8743,0.8591,0.8442,0.8303,0.8303,0.8208,0.8041,0.0,0.8062,0.8038,0.8038,0.8038,0.8038,0.8038,0.8038,0.8038,0.8038,0.8038,0.8038,0.0,0.0,0.0,0.0,0.0,0.0,0.0,0.0,0.0,0.0,0.0,0.0,0.0,0.0,0.0,0.0,0.0,0.0,0.0,0.0,0.7914,0.7914,0.807,0.8177,0.8163,0.8611,0.9145,0.9753,1.0314,1.0521,1.045,1.1092,1.058,0.9247,0.9872,0.9552,0.8615,0.8691,0.8912,0.9163,0.0,0.0,0.0,0.0,0.0,0.0,0.0,0.0,0.0,0.0,0.9061,0.9256,0.891,0.0,0.0,0.0,0.0,0.0,0.8971,0.9781,1.0428,0.9543,1.0309,1.1142,1.061,1.0321,1.017,1.0211,1.1464,1.2685,1.294,1.2665,1.277,1.4172,0.0,1.4657,1.3759,1.3727,1.3068,0.0,0.0,0.0,0.0,0.0,0.0,0.0,0.0,0.0,0.8916,0.8774,0.8693,0.8693,0.8693,0.8659,0.8587,0.8513,0.8513,0.8584,0.8438,0.8333,0.8269,0.8184,0.8106,0.8038,0.0,0.8038,0.8038,0.8038,0.8038,0.8038,0.8038,0.8038,0.8038,0.8038,0.8038,0.8038,0.0,0.0,0.0,0.0,0.0,0.0,0.0,0.0,0.0,0.0,0.0,0.0,0.0,0.0,0.0,0.0,0.0,0.0,0.0,0.0,0.8488,0.8312,0.8653,0.8733,0.8521,0.9045,0.9679,1.0416,1.0715,1.0855,1.0768,1.1216,1.0514,0.8944,0.9934,0.9642,0.84,0.8412,0.8794,0.9434,0.0,0.0,0.0,0.0,0.0,0.0,0.0,0.0,0.0,0.0,0.0,0.0,0.0,0.0,0.0,0.9061,0.9061,0.9022,0.8944,0.9552,1.0166,0.9761,1.1005,1.2265,1.2058,1.2032,1.1952,1.1637,1.2546,1.346,1.355,1.3831,0.0,1.5939,1.684,1.701,1.5821,1.5737,1.4866,1.2324,1.2001,0.0,0.0,0.0,0.0,0.0,0.0,0.0,0.9083,0.8962,0.8793,0.8482,0.879,0.8776,0.8431,0.8326,0.8326,0.8431,0.8286,0.8218,0.8211,0.8092,0.8038,0.8038,0.8038,0.8038,0.8038,0.8038,0.8038,0.8038,0.8038,0.8038,0.8038,0.8038,0.8038,0.8038,0.0,0.0,0.0,0.0,0.0,0.0,0.0,0.0,0.0,0.0,0.0,0.0,0.0,0.0,0.0,0.0,0.0,0.0,0.0,0.0,0.8952,0.8312,0.8962,0.9155,0.8771,0.9352,0.9686,0.9746,1.0376,1.0448,1.0167,1.0335,0.9947,0.9192,0.9926,0.9518,0.8393,0.7883,0.8327,0.9475,1.014,0.0,0.0,0.0,0.0,0.0,0.0,0.0,0.0,0.0,0.0,0.0,0.0,0.0,1.0517,0.9909,0.9718,0.9627,0.9296,1.0057,1.0954,1.0604,1.1389,1.2577,1.3684,1.3923,1.3997,1.4358,1.4725,1.4781,1.3769,1.4509,1.5398,1.5798,1.7054,1.7436,1.5896,0.0,1.5721,1.3803,0.0,0.0,0.0,0.0,0.0,0.0,0.0,0.0,1.0256,1.0244,0.9719,0.8587,0.9619,0.9649,0.8286,0.8275,0.8275,0.8286,0.813,0.8055,0.8055,0.8045,0.8038,0.8038,0.8038,0.8038,0.8038,0.8038,0.8038,0.8038,0.8038,0.8038,0.8038,0.8038,0.8038,0.8038,0.0,0.0,0.0,0.0,0.0,0.0,0.0,0.0,0.0,0.0,0.0,0.0,0.0,0.0,0.0,0.0,0.0,0.0,0.0,0.9891,0.9717,0.9493,0.9463,0.9316,0.9065,0.9653,0.9953,0.9953,1.0585,1.0902,1.0827,1.0909,1.0508,0.9828,0.9758,0.9096,0.8131,0.8658,0.9013,0.9306,1.0898,1.1239,0.0,0.0,0.0,0.0,0.0,0.0,0.0,0.0,1.0864,1.1316,1.061,1.0618,1.0762,1.0517,1.0115,0.9792,0.9609,0.9623,0.9667,0.9537,1.0923,1.3014,1.5643,1.5516,1.4838,1.4945,1.5463,1.5643,1.4843,1.5398,1.6039,1.6326,1.7154,1.7668,1.7482,1.7595,1.6987,0.0,0.0,0.0,0.0,0.0,0.0,0.0,0.0,0.0,1.1484,1.1367,1.1097,1.0602,1.1102,1.1065,1.0501,1.0501,1.0501,1.0501,0.8855,0.8038,0.8038,0.8038,0.8038,0.8038,0.8038,0.8432,0.9217,0.9217,0.9706,1.0386,1.0386,1.0386,1.0386,1.0386,1.0386,1.0386,0.0,0.0,0.0,0.0,0.0,0.0,0.0,0.0,0.0,0.0,0.0,0.0,0.0,0.0,0.0,0.0,0.0,0.0,1.0949,1.0689,1.0401,1.0048,1.0026,0.9688,0.8951,0.9761,1.0116,0.998,1.0373,1.0523,1.0549,1.0963,1.0801,1.021,0.9926,0.9396,0.8761,0.9687,0.9964,0.988,1.1352,1.1739,0.0,0.0,0.0,0.0,0.0,0.0,0.0,0.0,1.1575,1.203,1.1325,1.1283,1.1434,1.1166,1.0669,1.0108,0.9938,0.9389,0.8827,0.8807,1.073,1.3343,1.6137,1.6058,1.5411,1.5616,1.5873,1.5899,1.5591,1.5785,1.6092,0.0,1.7081,1.7662,1.7896,1.809,0.0,0.0,0.0,0.0,0.0,0.0,0.0,0.0,0.0,0.0,0.0,1.2607,1.2334,1.195,1.2334,1.2334,1.1945,1.1945,1.1945,1.1853,1.0096,0.9019,0.8627,0.8627,0.8627,0.8627,0.9019,0.9801,1.0583,1.0583,1.1072,1.1945,1.1945,1.1945,1.1945,1.1945,1.1945,1.1945,0.0,0.0,0.0,0.0,0.0,0.0,0.0,0.0,0.0,0.0,0.0,0.0,0.0,0.0,0.0,0.0,0.0,0.0,1.1237,1.1474,1.106,0.9786,1.0649,1.0333,0.847,0.9662,1.0084,0.9679,0.9486,0.9185,0.8857,1.0167,1.0568,1.0218,1.0618,1.0665,1.0477,1.0784,1.1082,1.1434,1.1434,1.2035,1.2822,0.0,0.0,0.0,0.0,0.0,0.0,0.0,1.2295,1.2774,1.2058,1.2314,1.2774,1.203,1.1366,1.0704,1.0327,0.9523,0.8841,0.8813,1.1066,1.3565,1.4787,1.5467,1.5984,1.6596,1.6012,1.5491,1.5785,1.5598,0.0,1.5785,1.6814,1.7368,1.6787,1.7208,0.0,0.0,0.0,0.0,0.0,0.0,0.0,0.0,0.0,0.0,0.0,1.3878,1.3295,1.1945,1.3199,1.3295,1.195,1.1945,1.1945,1.1945,1.1945,1.1263,0.9998,0.9998,0.9998,1.0096,1.1361,1.195,1.1945,1.1945,1.1945,1.1945,1.1945,1.1945,1.1945,1.1945,1.1945,1.1945,0.0,0.0,0.0,0.0,0.0,0.0,0.0,0.0,0.0,0.0,0.0,0.0,0.0,0.0,0.0,0.0,0.0,0.0,1.1948,1.1962,1.1514,1.0391,1.0891,1.053,0.9085,0.9418,0.9553,0.9479,0.9825,0.9888,0.9814,1.0466,1.0922,1.1133,1.1233,1.1621,1.2127,1.1713,1.1868,1.2474,1.2474,1.2338,1.208,0.0,0.0,0.0,0.0,0.0,0.0,0.0,0.0,0.0,1.2627,1.2725,1.2881,1.2618,1.2089,1.1475,1.1167,1.0692,1.0004,0.9023,1.3666,1.8346,1.8178,1.6757,1.5855,1.6861,1.648,1.6099,1.6393,1.6039,0.0,1.6092,1.6433,1.6673,1.67,0.0,0.0,0.0,0.0,0.0,0.0,0.0,0.0,0.0,0.0,0.0,0.0,1.5242,1.5045,1.4663,1.5051,1.5051,1.4663,1.4663,1.4663,1.4663,1.3686,1.2619,1.1365,1.1365,1.1365,1.1361,1.175,1.2431,1.3392,1.4268,1.4663,1.4663,1.4663,1.4663,1.4663,1.4663,1.4663,1.4663,0.0,0.0,0.0,0.0,0.0,0.0,0.0,0.0,0.0,0.0,0.0,0.0,0.0,0.0,0.0,0.0,0.0,0.0,0.0,1.2158,1.1643,1.094,1.1196,1.0946,1.009,0.9803,0.9692,0.9705,1.0029,1.0218,1.0218,1.061,1.0973,1.1225,1.1792,1.2363,1.2881,1.2452,1.2501,1.2881,1.2881,1.2618,1.2236,0.0,0.0,0.0,0.0,0.0,0.0,0.0,0.0,0.0,1.2881,1.2881,1.2881,1.2881,1.2335,1.1733,1.1998,1.1076,0.992,0.9616,1.4167,1.8904,1.9753,1.8186,1.6538,1.6901,1.6506,1.6186,1.648,1.6052,0.0,1.6046,1.6192,1.6293,1.6346,0.0,0.0,0.0,0.0,0.0,0.0,0.0,0.0,0.0,0.0,0.0,0.0,1.5484,1.5484,1.5484,1.5484,1.5484,1.5484,1.5484,1.5484,1.5484,1.472,1.4014,1.3256,1.2871,1.2716,1.2716,1.3204,1.3884,1.4752,1.5439,1.5832,1.5832,1.5832,1.5832,1.5832,1.5832,1.5832,1.5832,0.0,0.0,0.0,0.0,0.0,0.0,0.0,0.0,0.0,0.0,1.0794,0.0,0.0,0.0,0.0,0.0,0.0,0.0,0.0,0.0,1.1628,1.1407,1.1554,1.1509,1.1275,1.066,1.0373,1.0381,1.0348,1.0261,1.0218,1.0466,1.0661,1.0864,1.2255,1.2881,1.2881,1.2881,1.2881,1.2881,1.2881,1.2881,1.2881,1.2881,0.0,0.0,0.0,0.0,0.0,0.0,0.0,0.0,1.2881,1.2881,1.2881,1.2881,1.2325,1.1801,1.2693,1.1083,0.9547,1.1088,1.4029,1.7237,2.0079,1.9461,1.7919,1.6963,1.6316,1.5965,1.6259,1.5832,1.5531,1.5825,1.6072,1.6139,0.0,0.0,0.0,0.0,0.0,0.0,0.0,0.0,0.0,0.0,0.0,0.0,0.0,1.4963,1.4963,1.4963,1.4963,1.4963,1.4963,1.4963,1.4963,1.4963,1.4963,1.5104,1.5364,1.4401,1.4052,1.4166,1.5311,1.5792,1.5792,1.5792,1.5772,1.5752,1.5778,1.5792,1.5792,1.5792,1.5805,1.5832,0.0,0.0,0.0,0.0,0.0,0.0,0.0,0.0,0.0,0.0,0.0,0.0,0.0,0.0,0.0,0.0,0.0,0.0,0.0,0.0,1.2278,1.1586,1.1791,1.1957,1.1976,1.1732,1.1676,1.179,1.1398,1.0872,1.0167,0.951,0.9814,1.0864,1.2255,1.2881,1.2881,1.2881,1.2881,1.2881,1.2881,1.2881,1.2881,1.2881,1.2881,0.0,0.0,0.0,0.0,0.0,0.0,0.0,1.2881,1.2881,1.2881,1.2881,1.2764,1.2653,1.283,1.2451,1.3054,1.7388,2.0026,2.1398,2.0802,1.9935,1.8899,1.769,1.6766,1.6266,1.656,1.6132,1.5832,1.6126,1.6039,1.5905,0.0,0.0,0.0,0.0,0.0,0.0,0.0,0.0,0.0,0.0,0.0,0.0,1.4963,1.4963,1.4963,1.4963,1.4963,1.4963,1.4963,1.4963,1.4963,0.0,1.4963,1.4997,1.507,1.5074,1.5223,1.5425,1.5491,1.5491,1.5491,1.5491,1.5357,1.517,1.5398,1.5491,1.5491,1.5491,1.5631,1.5832,0.0,0.0,0.0,0.0,0.0,0.0,0.0,0.0,0.0,0.0,0.0,0.0,0.0,0.0,0.0,0.0,0.0,0.0,0.0,0.0,1.2086,1.1626,1.1914,1.1953,1.1602,1.1523,1.1553,1.1655,1.1583,1.1357,1.0965,1.0838,1.0889,1.1174,1.2363,1.2881,1.2881,1.2881,1.2881,1.2881,1.2881,1.2881,1.2881,1.2881,1.2881,1.2881,1.2881,0.0,0.0,0.0,0.0,0.0,0.0,0.0,1.2881,1.2881,1.2881,1.29,1.2902,1.411,1.5823,1.7773,2.0338,2.1945,2.0642,2.0008,1.9419,1.8279,1.6951,1.6066,1.6079,1.5945,1.5832,1.5852,1.5838,0.0,0.0,0.0,0.0,0.0,0.0,0.0,0.0,0.0,0.0,0.0,0.0,1.4482,1.4342,1.4469,1.4543,1.4543,1.4543,1.4543,1.4543,1.4543,1.4543,1.4543,1.4543,1.4616,1.4763,1.5057,1.5271,1.5404,1.5257,1.519,1.519,1.519,1.5104,1.4977,1.513,1.519,1.519,1.519,1.5284,1.5438,0.0,0.0,0.0,0.0,0.0,0.0,0.0,0.0,0.0,0.0,0.0,0.0,0.0,0.0,0.0,0.0,0.0,0.0,0.0,0.0,0.0,1.1832,1.2139,1.2002,1.126,1.125,1.126,1.1246,1.1621,1.1853,1.1972,1.2608,1.2471,1.1792,1.2569,1.2881,1.2881,1.2881,1.2881,1.2881,1.2881,1.2881,1.2881,1.2881,1.2881,1.2881,1.2881,1.2881,1.2881,1.2881,0.0,0.0,0.0,0.0,1.2881,1.2881,1.2881,1.291,1.2884,1.5412,1.77,1.6492,1.8343,2.0386,2.022,1.9978,1.9512,1.8564,1.7079,1.5871,1.5633,1.5783,1.5958,1.5895,1.5882,0.0,0.0,0.0,0.0,0.0,0.0,0.0,0.0,0.0,0.0,0.0,0.0,1.3828,1.3581,1.3801,1.3935,1.3935,1.3981,1.3988,1.3941,1.4035,1.4062,1.4008,1.4062,1.4215,1.4456,1.4703,1.487,1.4963,1.491,1.4883,1.4883,1.4883,1.4856,1.4816,1.487,1.4883,1.4883,1.4883,1.4917,1.4997,0.0,0.0,0.0,0.0,0.0,0.0,0.0,0.0,0.0,0.0,1.1201,0.0,0.0,0.0,0.0,0.0,0.0,0.0,0.0,0.0,0.0,1.2686,1.2764,1.2744,1.2617,1.2617,1.2383,1.1895,1.2441,1.2764,1.2774,1.2832,1.2832,1.2725,1.2822,1.2881,1.2881,1.2881,1.2881,1.2881,1.2881,1.2881,1.2881,1.2881,1.2881,1.2881,1.2881,1.2881,1.2881,1.2881,1.2881,0.0,0.0,0.0,1.2881,1.2881,1.2881,1.2909,1.2887,1.5411,1.7983,1.7768,1.7151,1.7325,2.0467,1.995,1.8707,1.8138,1.7243,1.6448,1.6404,1.6433,1.6802,1.7715,1.7045,0.0,0.0,0.0,0.0,0.0,0.0,0.0,0.0,0.0,0.0,0.0,1.3327,1.3307,1.3273,1.3307,1.3327,1.3327,1.3574,1.3581,1.3333,1.3834,1.3955,1.3707,1.3968,1.4108,1.4142,1.4188,1.4482,1.495,1.4689,1.4583,1.4583,1.4583,1.4429,1.4229,1.4482,1.4583,1.4583,1.4583,1.4743,1.497,0.0,0.0,0.0,0.0,0.0,0.0,0.0,0.0,0.0,0.0,0.0,1.1221,0.0,0.0,0.0,0.0,0.0,0.0,0.0,0.0,0.0,1.251,1.252,1.2324,1.1904,1.1904,1.1621,1.1045,1.1777,1.2439,1.2891,1.3576,1.3652,1.3359,1.3359,1.3311,1.3213,1.2988,1.2881,1.2881,1.2881,1.2881,1.2881,1.2881,1.2881,1.2881,1.2881,1.2881,1.2881,1.2881,1.2881,1.2881,1.2881,0.0,0.0,0.0,1.2881,1.2899,1.2912,1.5039,1.7244,1.7272,1.7543,1.759,1.7058,1.8197,1.8679,1.6644,1.6774,1.7001,1.6231,1.686,1.7573,1.7896,1.7682,0.0,0.0,0.0,0.0,0.0,0.0,0.0,0.0,0.0,0.0,0.0,1.3113,1.3133,1.2959,1.3113,1.3213,1.3213,1.3333,1.334,1.3213,1.3467,1.3614,1.3566,1.3948,1.4088,1.4088,1.4088,1.4229,1.4469,1.4335,1.4282,1.4282,1.4282,1.4202,1.4102,1.4229,1.4282,1.4282,1.4282,1.4362,1.4496,0.0,0.0,0.0,0.0,0.0,0.0,0.0,0.0,0.0,0.0,0.0,0.0,0.0,0.0,0.0,0.0,0.0,0.0,0.0,0.0,0.0,1.2393,1.2393,1.2139,1.1592,1.1572,1.1367,1.0937,1.1626,1.2283,1.29,1.3887,1.4131,1.3679,1.364,1.3555,1.333,1.3018,1.2881,1.2871,1.2764,1.2715,1.2715,1.2724,1.2656,1.2608,1.2822,1.2813,1.2745,1.2871,1.2881,1.2881,1.2881,1.2881,0.0,0.0,0.0,1.2919,1.2924,1.4295,1.5705,1.5743,1.6875,1.7269,1.4441,1.6085,1.7486,0.0,1.6203,1.7121,1.6134,1.7131,1.812,1.8168,1.811,0.0,0.0,0.0,0.0,0.0,0.0,0.0,0.0,0.0,0.0,0.0,1.3188,1.3134,1.2607,1.2968,1.3131,1.2979,1.3053,1.3053,1.2979,1.3053,1.3312,1.3844,1.4077,1.4262,1.4262,1.4262,1.4103,1.3874,1.4021,1.4041,1.3981,1.4055,1.4041,1.3981,1.4055,1.4088,1.4088,1.4088,1.4088,1.4122,0.0,0.0,0.0,0.0,0.0,0.0,0.0,0.0,0.0,0.0,0.0,0.0,1.1645,1.1587,1.1577,1.1606,1.1606,1.1748,1.2151,1.218,1.2412,1.2832,1.2842,0.0,1.2793,1.2793,1.2773,1.2744,1.2793,1.2832,1.2891,1.3496,1.3708,1.3669,1.3584,1.3291,1.291,1.2891,1.2881,1.2842,1.2432,1.2219,1.2256,1.223,1.1995,1.1767,1.2608,1.2618,1.2299,1.2745,1.2881,1.2881,1.2881,1.2881,1.2881,0.0,0.0,0.0,1.2881,1.2988,1.3086,1.3126,1.375,1.442,1.4568,1.4204,1.3964,1.4554,1.5739,1.6648,1.6571,1.7224,1.8043,1.9091,1.8341,0.0,0.0,0.0,0.0,0.0,0.0,0.0,0.0,0.0,0.0,0.0,1.3643,1.3332,1.204,1.2707,1.2842,1.2338,1.2625,1.2632,1.2351,1.2632,1.3369,1.4521,1.4535,1.4543,1.4543,1.4543,1.4088,1.3287,1.3848,1.3928,1.3687,1.3975,1.3921,1.3694,1.3975,1.4088,1.4088,1.4088,1.4088,1.4088,0.0,0.0,0.0,0.0,0.0,0.0,0.0,0.0,0.0,0.0,0.0,0.0,0.0,1.1992,1.21,1.243,1.2412,1.248,1.2637,1.2997,1.3283,1.3457,1.3836,1.3931,1.3695,1.3152,1.2881,1.2881,1.2881,1.2881,1.2891,1.3467,1.3535,1.3193,1.3408,1.3418,1.3262,1.2998,1.2881,1.2842,1.2412,1.218,1.2161,1.1895,1.1717,1.1664,1.2234,1.2357,1.2289,1.2745,1.2881,1.2881,1.2881,1.2881,1.2881,1.2881,1.2881,1.2881,1.2881,1.2881,1.2881,1.2881,1.3105,1.3332,1.3371,1.3368,1.339,1.3671,1.475,1.5642,1.5773,1.7112,1.8428,1.8796,1.828,0.0,0.0,0.0,0.0,0.0,0.0,0.0,0.0,0.0,0.0,0.0,0.0,1.3683,1.3202,1.3684,1.3924,1.3691,1.4099,1.4286,1.4163,1.3851,1.4215,1.5225,1.5447,1.5473,1.5473,1.5473,1.5319,1.5034,1.52,1.454,1.3387,1.3681,1.3634,1.3414,1.3895,1.3968,1.3828,1.4015,1.4088,1.4088,0.0,0.0,0.0,0.0,0.0,0.0,0.0,0.0,0.0,1.1587,0.0,0.0,0.0,0.0,1.2568,1.2852,1.2881,1.2968,1.32,1.36,1.3909,1.4097,1.4468,1.456,1.4329,1.3789,1.3412,1.3203,1.3182,1.3113,1.2891,1.3262,1.3242,1.2891,1.3174,1.3301,1.3281,1.2998,1.2881,1.2852,1.2253,1.2022,1.1966,1.1853,1.1637,1.155,0.0,0.0,1.2289,1.2745,1.2881,1.2881,1.2881,1.2881,1.2881,1.2881,1.2881,1.2881,1.2881,1.2881,1.2881,1.2881,1.2881,1.2857,1.2625,1.293,1.3255,1.3152,1.4132,1.5046,1.5124,1.6303,1.748,1.7862,1.7764,0.0,0.0,0.0,0.0,0.0,0.0,0.0,0.0,0.0,0.0,0.0,0.0,0.0,1.377,1.4255,1.4572,1.4473,1.4788,1.5039,1.5234,1.4759,1.5016,1.5952,1.6117,1.6235,1.6235,1.6235,1.6013,1.5716,1.5716,1.5047,1.4065,1.4302,1.4238,1.4016,1.4538,1.4374,1.3999,1.431,1.4178,1.3955,0.0,0.0,0.0,0.0,0.0,0.0,0.0,0.0,1.1084,1.1547,0.0,0.0,0.0,0.0,0.0,1.2881,1.2929,1.32,1.3779,1.3815,1.4097,1.4698,1.4744,1.4744,1.4744,1.4744,1.4439,1.3841,1.3826,1.3505,1.2881,1.2881,1.2881,1.2881,1.2881,1.2881,1.2881,1.2881,1.2881,1.2813,1.1981,1.1612,1.1641,1.2035,1.1742,1.136,1.2876,1.2931,0.0,1.2745,0.0,0.0,1.2881,1.2881,1.2881,1.2881,1.2881,1.2881,0.0,0.0,0.0,1.2881,1.2881,1.2782,1.2407,0.0,1.3346,1.2987,1.3894,1.4746,1.4766,1.4766,1.5176,1.6455,1.6597,0.0,0.0,0.0,0.0,0.0,0.0,0.0,0.0,0.0,0.0,0.0,1.5229,1.4855,1.3504,1.4292,1.4714,1.4577,1.4533,1.4767,1.5271,1.5201,1.5694,1.66,1.6609,1.6618,1.6618,1.6627,1.614,1.5305,1.5305,1.5433,1.5708,1.5912,1.5847,1.5643,1.5853,1.5465,1.4669,1.5011,1.4508,1.3674,0.0,0.0,0.0,0.0,0.0,0.0,1.1253,1.1341,1.1469,0.0,0.0,0.0,1.2393,1.2695,1.2881,1.2881,1.3286,1.3637,1.3779,1.4641,1.5186,1.532,1.5776,1.602,1.602,1.5555,1.504,1.4463,1.4035,1.3505,1.2881,1.2881,1.2881,1.2881,1.2881,1.2881,1.2881,1.2881,1.2881,1.2881,1.2618,1.2155,1.162,1.1713,1.2037,0.0,0.0,1.2109,1.2136,0.0,1.2881,1.2881,0.0,1.2881,1.2881,1.2881,1.2881,1.2881,1.2881,0.0,0.0,0.0,0.0,0.0,0.0,0.0,1.2466,1.3162,1.3237,1.3352,1.415,1.4307,1.4434,1.4739,1.4797,1.4797,0.0,0.0,0.0,0.0,0.0,0.0,0.0,0.0,0.0,0.0,1.5361,1.5225,1.4846,1.5387,1.5813,1.6085,1.5426,1.548,1.6272,1.5587,1.5719,1.6682,1.6987,1.7197,1.7216,1.7504,1.7442,1.7226,1.7226,1.7292,1.7274,1.6139,1.556,1.5369,1.5839,1.5694,1.5399,1.6006,1.5449,1.4403,0.0,0.0,0.0,0.0,0.0,1.1777,1.1636,1.1763,1.1836,0.0,0.0,0.0,1.248,1.2891,1.3165,1.3258,1.36,1.4003,1.4503,1.5219,1.572,1.5952,1.6293,1.6522,1.6522,1.6151,1.5688,1.5062,1.4468,1.3862,1.3246,1.3007,1.2881,1.2881,1.2881,1.2881,1.2881,1.2881,1.2881,1.2881,1.2881,1.2616,1.2083,1.1348,1.182,0.0,0.0,0.0,1.2422,1.2764,1.3104,0.0,0.0,1.3125,1.3208,1.2968,1.2881,1.2881,1.2881,1.2881,1.2881,1.2881,0.0,0.0,1.2881,1.2559,1.2469,0.0,1.2941,1.2855,1.3462,1.3613,1.3613,1.3613,1.3613,1.374,0.0,0.0,0.0,0.0,0.0,0.0,0.0,1.4512,1.4619,1.4863,1.4883,1.4961,1.5137,1.5557,1.5996,1.6436,1.5927,1.6012,1.6665,1.6128,1.6128,1.6675,1.6992,1.7207,1.7393,1.7637,1.7842,1.8008,1.8008,1.8008,1.7959,1.6969,1.6501,1.6412,1.6713,1.6532,1.6114,1.6647,1.6043,1.5134,0.0,0.0,1.1567,1.1191,1.1816,1.2256,1.1949,1.2187,1.2394,0.0,1.2394,1.2588,1.2978,1.3311,1.3591,1.3836,1.3894,1.4365,1.5543,1.5676,1.5952,1.6479,1.6522,1.6522,1.6522,1.6522,1.6238,1.572,1.5073,1.4424,1.3773,1.318,1.2881,1.2881,1.2881,1.2881,1.2881,1.2881,1.2881,1.2881,1.2881,1.2764,1.2422,0.0,1.1367,1.2978,1.373,1.3516,1.2881,1.2881,1.3382,0.0,0.0,0.0,0.0,0.0,1.2881,1.2881,1.2881,1.2881,1.2881,1.2881,1.2881,0.0,1.2881,1.2881,1.2881,0.0,1.2881,1.2881,1.2881,1.2881,1.2881,1.2881,1.2881,1.3145,0.0,0.0,0.0,0.0,0.0,0.0,1.4009,1.4009,1.4029,1.4077,1.4077,1.4307,1.4687,1.5117,1.5518,1.5968,1.6027,1.6182,1.6519,1.6582,1.6582,1.6592,1.6641,1.6865,1.7236,1.7344,1.7559,1.7871,1.7969,1.7978,1.7939,1.7988,1.8008,1.8008,1.8008,1.7501,1.676,1.7107,1.6558,1.5814,0.0,1.1738,1.2187,1.2451,1.292,1.334,1.3594,1.3659,1.3708,1.3708,1.3708,1.3737,1.3887,1.3662,1.371,1.4226,1.4406,1.4824,1.5543,1.6051,1.638,1.6466,1.6522,1.6522,1.6522,1.6522,1.6423,1.6337,1.556,1.4699,1.3769,1.3173,1.2881,1.2881,1.2881,1.2881,1.2881,1.2881,1.2881,1.2881,1.2881,1.2041,1.0752,1.041,1.1367,1.29,1.3066,1.3018,1.2881,1.2881,1.3017,1.3094,0.0,0.0,0.0,1.292,0.0,1.2881,1.2881,1.2881,0.0,0.0,0.0,0.0,1.2881,1.2881,1.2881,0.0,1.2881,1.2881,1.2881,1.2881,1.2881,1.2881,1.2881,1.2939,1.3105,0.0,0.0,0.0,0.0,0.0,1.3603,1.3633,1.3769,1.4058,1.4077,1.4116,1.4204,1.4668,1.4951,1.5029,1.5361,1.5576,1.5664,1.5664,1.5664,1.5674,1.6025,1.624,1.6409,1.7061,1.7236,1.7021,1.7705,1.7822,1.7529,1.7871,1.8008,1.8008,1.8008,1.7872,1.7773,1.8117,1.7469,1.651,1.2027,1.2318,1.2627,1.2842,1.3398,1.3887,1.4048,1.4316,1.4463,1.4463,1.4639,1.4554,1.4126,1.444,1.4759,1.4827,1.5285,1.5692,1.602,1.6324,1.6522,1.6522,1.6522,1.6522,1.6522,1.6522,1.6522,1.6522,1.5485,1.4855,1.4516,1.342,1.2881,1.2881,1.2881,1.2881,1.2881,1.2881,1.2881,1.2881,1.2881,0.0,1.0371,1.1292,1.2119,1.2881,1.2881,1.2881,1.2929,1.2953,1.3175,0.0,1.3071,1.3131,1.3294,0.0,1.2881,1.2881,0.0,0.0,0.0,1.2881,0.0,0.0,0.0,1.2881,1.2881,1.2881,1.2881,1.2881,1.2881,1.2881,1.2881,1.2881,1.2881,1.2881,1.2881,1.2881,0.0,0.0,0.0,0.0,1.3174,1.3193,1.3281,1.3496,1.3701,1.3818,1.3818,1.4228,1.4463,1.4463,1.4873,1.5098,1.5098,1.5312,1.541,1.541,1.5635,1.585,1.6135,1.6523,1.6846,1.707,1.7275,1.7373,1.7402,1.7607,1.7695,1.7715,1.793,1.8008,1.8037,1.8252,1.7898,1.7379,1.287,1.293,1.2949,1.3174,1.3674,1.4077,1.4077,1.4502,1.4814,1.4893,1.5205,1.5146,1.4453,1.5067,1.5584,1.5614,1.5772,1.6216,1.6923,1.6554,1.643,1.6672,1.6572,1.6522,1.6522,1.6522,1.6522,1.6522,1.521,1.4786,1.5166,1.3595,1.2881,1.2881,1.2881,1.2881,1.2881,1.2881,1.2881,1.2881,0.0,1.2041,1.0937,1.2344,1.2881,1.2881,1.2881,1.3065,1.3215,1.3041,1.3461,1.3939,1.3211,1.3269,0.0,0.0,0.0,0.0,0.0,0.0,0.0,0.0,0.0,1.2978,0.0,0.0,0.0,1.2881,1.2881,0.0,0.0,0.0,0.0,0.0,0.0,0.0,0.0,1.2881,0.0,0.0,0.0,0.0,1.2881,1.2881,1.2881,1.2881,1.3193,1.3389,1.3389,1.3789,1.3961,1.3961,1.4434,1.4658,1.4658,1.5078,1.5293,1.5293,1.5371,1.5596,1.5998,1.6086,1.6406,1.6992,1.6807,1.6885,1.7139,1.7314,1.7383,1.7422,1.7842,1.8008,1.8008,1.8008,1.8008,1.8076,1.4461,1.3632,1.3174,1.4058,1.4162,1.4077,1.4077,1.4502,1.4922,1.5293,1.5381,1.5371,1.5273,1.4684,1.4993,1.6662,1.5148,1.5398,1.8497,1.68,1.6183,1.7262,1.6798,1.6522,1.6522,1.6522,1.6522,1.6522,1.4904,1.4384,1.4714,1.3476,1.2881,1.2881,1.2881,1.2881,1.2881,1.2881,1.2881,0.0,1.2881,1.2764,0.0,1.2803,1.2881,1.2881,1.2881,1.361,1.4329,0.0,1.3321,1.3721,0.0,1.2977,1.3007,1.2929,0.0,0.0,0.0,0.0,0.0,0.0,1.3164,0.0,0.0,0.0,1.2881,1.2881,0.0,0.0,0.0,0.0,0.0,0.0,0.0,0.0,1.2881,1.2881,1.2881,1.2881,0.0,0.0,0.0,1.2881,1.2881,1.2881,1.293,1.2949,1.2949,1.335,1.3574,1.3574,1.3984,1.4209,1.4209,1.4639,1.4853,1.4863,1.5234,1.5439,1.5498,1.5889,1.5908,1.5674,1.6416,1.6533,1.6341,1.7061,1.7383,1.7422,1.7842,1.8008,1.8008,1.8008,1.8008,1.8076,1.5231,1.4236,1.3649,1.4268,1.4033,1.3952,1.4568,1.5695,1.6297,1.5889,1.6432,1.6728,1.623,1.6214,1.6374,1.6727,0.0,1.6802,0.0,0.0,1.7106,1.7834,1.6967,1.667,1.6995,1.6683,1.6522,1.6522,1.5369,1.4765,1.4688,1.3468,1.2881,1.2929,1.3246,1.3208,1.2881,1.2881,1.2881,0.0,0.0,1.3752,0.0,1.343,1.2881,1.2968,1.3705,1.4107,1.4329,0.0,1.4107,0.0,0.0,0.0,0.0,1.3017,0.0,0.0,0.0,0.0,0.0,0.0,0.0,0.0,1.292,0.0,1.2881,0.0,0.0,0.0,0.0,0.0,0.0,0.0,1.2881,0.0,0.0,0.0,1.2881,0.0,0.0,0.0,0.0,0.0,0.0,0.0,1.2881,1.2881,1.2881,1.3047,1.3145,1.3145,1.3555,1.3769,1.3769,1.4443,1.4785,1.4785,1.5215,1.541,1.542,1.5596,1.5723,1.5791,1.5918,1.6006,1.6154,1.6465,1.6768,1.7051,1.748,1.7793,1.8008,1.8008,1.8008,1.8076,1.5864,1.4869,1.4157,1.4441,1.4229,1.4266,1.5007,1.6193,1.6748,1.6205,1.6986,1.7422,1.6783,1.7091,0.0,0.0,1.7044,1.7398,0.0,0.0,1.7494,1.8029,1.7262,0.0,1.7145,1.6739,1.6522,1.6522,1.5941,1.5384,1.4858,1.3868,1.3304,1.3152,1.3643,1.3521,1.2881,1.2881,1.2881,1.2881,1.2881,1.434,1.625,1.3847,1.3296,1.3931,1.4107,1.4422,1.4789,1.4835,1.5017,0.0,1.4283,0.0,1.3732,0.0,0.0,0.0,1.2929,0.0,0.0,0.0,0.0,0.0,0.0,0.0,0.0,0.0,0.0,0.0,0.0,0.0,1.2881,1.2881,0.0,1.2881,0.0,1.2881,0.0,0.0,0.0,0.0,0.0,0.0,0.0,1.2695,1.2705,1.2754,1.2871,1.2881,1.2881,1.2881,1.3174,1.334,1.334,1.4062,1.4492,1.4609,1.5039,1.5293,1.541,1.541,1.5586,1.5869,1.5547,1.5586,1.5889,1.6076,1.6328,1.6777,1.7217,1.7637,1.8008,1.8008,1.8008,1.8076,1.6466,1.5522,1.4663,1.4674,1.5018,1.5202,1.5124,1.5314,1.5604,0.0,0.0,0.0,0.0,0.0,0.0,0.0,0.0,1.6047,1.9227,0.0,1.679,0.0,0.0,1.7248,0.0,1.6522,1.6522,1.6522,1.6479,1.6061,1.528,1.4824,1.4312,1.3779,1.4003,1.3647,1.2881,1.2881,1.2881,1.2881,1.2881,1.434,1.625,0.0,1.434,1.6064,1.3789,0.0,0.0,1.5534,1.58,0.0,0.0,0.0,0.0,0.0,0.0,0.0,0.0,0.0,0.0,1.4015,0.0,0.0,0.0,0.0,1.2881,0.0,0.0,0.0,0.0,0.0,1.2881,1.2881,1.2881,0.0,0.0,0.0,0.0,0.0,0.0,0.0,0.0,0.0,1.1787,1.2171,1.2209,1.2432,1.2861,1.2881,1.2881,1.2881,1.2891,1.29,1.29,1.333,1.375,1.4107,1.46,1.5019,1.541,1.541,1.542,1.543,1.542,1.542,1.5469,1.5889,1.6328,1.6777,1.7217,1.7637,1.8008,1.8008,1.8008,1.8076,1.5908,1.592,1.5788,1.5365,1.4985,1.4829,0.0,1.6182,0.0,0.0,1.7961,0.0,0.0,1.8008,1.783,0.0,0.0,1.6942,1.7466,1.7581,0.0,0.0,0.0,1.746,0.0,0.0,1.6522,1.6522,1.57,1.5591,1.6093,1.541,1.4982,1.4789,1.4617,1.4201,0.0,0.0,0.0,0.0,0.0,1.5788,1.6423,0.0,0.0,1.638,1.5567,1.5555,0.0,1.6064,1.625,1.638,1.5555,1.5141,1.4903,1.4514,1.4376,0.0,0.0,0.0,1.4807,1.4466,0.0,0.0,0.0,0.0,0.0,0.0,0.0,0.0,0.0,1.3742,1.3647,1.4025,1.3742,1.3515,0.0,0.0,0.0,0.0,0.0,0.0,0.0,0.0,0.0,1.2151,1.218,1.2422,1.2852,1.2881,1.2881,1.2881,1.2881,1.2881,1.2881,1.3574,1.3994,1.4087,1.5356,1.6007,1.614,1.6641,1.6856,1.6856,1.6856,1.6856,1.681,1.6477,1.6936,1.7743,1.7812,1.8015,1.8314,1.8103,1.8008,1.8115,1.5659,1.6254,1.6635,1.6008,0.0,0.0,0.0,0.0,0.0,0.0,1.8981,0.0,1.9519,0.0,1.8478,0.0,1.7997,1.739,1.6173,1.7043,0.0,1.9723,1.8141,0.0,0.0,0.0,0.0,0.0,1.57,1.5744,1.6479,1.5976,1.5712,1.5712,1.5478,1.488,1.419,1.5832,1.6522,0.0,0.0,1.6522,0.0,0.0,1.6522,1.6522,0.0,1.6238,1.5964,1.638,1.6522,1.6423,1.6051,1.5764,1.5543,1.5141,1.5017,1.4971,1.4744,1.5017,0.0,1.5062,1.5017,0.0,1.5017,0.0,0.0,0.0,0.0,0.0,0.0,0.0,1.4236,1.4652,1.4376,1.4097,0.0,1.3198,0.0,0.0,0.0,0.0,0.0,1.1283,1.1514,1.1953,1.2139,1.2422,0.0,0.0,1.2881,1.2881,1.2881,1.3017,1.3238,1.3741,1.4275,1.4861,1.5924,1.6545,1.6922,1.7357,1.7578,1.7578,1.7578,1.7578,1.7578,1.709,1.7584,1.8547,1.8463,1.8738,1.9212,1.8685,1.8269,1.8135,1.5861,1.6647,0.0,0.0,1.6472,0.0,0.0,0.0,1.8602,0.0,1.9372,1.9944,1.9956,1.922,1.8581,1.8184,1.8154,1.7506,1.5891,1.6314,0.0,0.0,1.7689,1.7029,1.808,0.0,0.0,0.0,0.0,1.6522,1.6522,1.6522,1.6522,1.6522,1.6522,1.5644,1.4329,1.5832,1.6466,1.6522,1.6522,1.6522,1.6522,1.6522,1.6522,1.6522,1.6522,1.6522,1.6522,1.6522,1.6522,1.6522,1.6522,1.6095,1.5632,1.5632,1.5632,1.5499,1.4926,1.5611,1.638,1.5776,0.0,0.0,0.0,0.0,1.4801,0.0,0.0,0.0,0.0,0.0,0.0,1.4789,1.4744,1.4744,1.4744,0.0,1.3098,0.0,0.0,0.0,0.0,1.0685,1.1106,1.161,1.1998,1.2393,0.0,0.0,1.2968,1.2978,1.2978,1.3238,1.3815,1.3915,1.4672,1.6188,1.6283,1.6789,1.7688,1.7677,1.7688,1.7688,1.7688,1.7688,1.7688,1.7688,1.8261,1.9197,1.916,1.9778,2.059,1.9694,1.8787,1.8193,1.7003,1.7601,1.808,0.0,1.6504,1.6177,0.0,0.0,0.0,0.0,1.9891,2.0447,2.0449,2.0546,2.0451,2.0006,2.0281,0.0,0.0,0.0,0.0,1.9773,1.7689,1.6635,1.6917,1.7485,1.7363,1.6522,0.0,1.6522,1.6522,1.6522,1.6522,1.6522,1.6522,1.6281,1.5876,1.5864,1.6095,1.6522,1.6522,1.6522,1.6522,0.0,1.6522,1.6522,1.6522,1.6522,1.6522,1.6522,1.6522,1.6522,1.6522,1.638,1.6281,1.6281,1.6281,1.6238,1.6064,1.625,1.6466,1.6293,1.6281,1.6281,0.0,0.0,0.0,0.0,0.0,0.0,0.0,0.0,0.0,1.5976,1.5644,1.5365,1.5365,0.0,0.0,1.3704,0.0,0.0,1.0919,1.0894,1.1285,1.2076,1.2294,1.2548,1.289,0.0,0.0,1.36,1.4014,1.4294,1.4468,1.5185,1.5781,1.6188,1.7439,1.819,1.8447,1.8992,1.9254,1.9254,1.9254,1.9254,1.9202,1.8661,1.9173,2.0275,2.0153,2.0699,2.1491,2.059,1.9683,1.906,1.7721,1.8207,0.0,1.8854,0.0,0.0,1.784,1.8289,0.0,1.9731,2.0306,0.0,2.0615,2.0838,2.1229,2.1771,2.1325,0.0,2.1618,0.0,0.0,1.9798,1.7689,1.6522,1.6522,1.7137,0.0,1.6522,0.0,1.6522,1.6522,1.6522,1.6522,1.6522,1.6522,1.6522,1.6466,1.6139,1.6194,1.6522,1.6522,1.6522,0.0,1.6522,1.6522,1.6522,1.6522,1.6522,1.6522,1.6522,1.6522,1.6522,1.6522,1.6522,1.6522,1.6522,1.6522,1.6522,1.6522,1.6522,1.6522,1.6522,1.6522,1.6522,1.6522,1.6522,1.6522,0.0,0.0,0.0,0.0,0.0,0.0,1.6423,1.6238,1.6008,0.0,0.0,0.0,0.0,1.3952,0.0,1.2121,1.1774,1.1923,1.2625,1.2968,1.329,0.0,0.0,0.0,1.419,1.4993,1.5334,1.5107,1.6388,1.7058,1.7107,1.8268,1.8931,1.9202,1.9592,1.9798,1.9798,1.9798,1.9949,2.0162,1.947,2.004,2.1443,2.151,2.1909,2.2408,2.2202,2.1168,1.9944,1.8738,1.893,0.0,0.0,0.0,0.0,0.0,1.9312,0.0,2.0485,0.0,2.0673,2.0515,2.0726,2.1474,2.3006,0.0,2.0673,2.012,1.9911,1.9798,1.9798,1.7689,1.6522,1.6522,1.6522,1.6522,0.0,0.0,1.6522,1.6522,1.6522,1.6522,1.6522,1.6522,1.6522,1.6522,1.6522,1.6522,1.6522,1.6522,1.6522,1.6522,1.6522,1.6522,1.6522,1.6522,1.6522,1.6522,1.6522,1.6522,1.6522,1.6522,1.6522,1.6522,1.6522,1.6522,1.6522,1.6522,1.6522,1.6522,1.6522,1.6572,1.6609,1.6534,1.6572,1.6609,1.6534,1.6522,1.6522,0.0,0.0,0.0,1.6522,0.0,0.0,0.0,0.0,0.0,0.0,0.0,0.0,0.0,0.0,1.2732,1.3268,1.3707,0.0,0.0,0.0,0.0,1.4835,1.5839,1.6278,1.5948,0.0,1.8215,1.843,1.8894,1.9359,1.9798,1.9798,1.9798,1.9798,1.9798,2.0125,2.068,2.0125,2.0865,2.2372,2.2865,2.3175,2.3301,2.3728,2.2744,2.1172,2.1661,0.0,0.0,0.0,0.0,1.9912,2.0664,2.0777,2.0822,2.0596,2.1218,2.124,2.0176,2.1386,2.216,2.1632,2.2246,0.0,0.0,0.0,0.0,1.9798,1.7689,1.6522,1.6522,1.6522,1.6522,0.0,0.0,1.6522,1.6522,1.6522,1.6522,1.6522,1.6522,1.6522,1.6522,1.6522,0.0,1.6522,1.6522,1.6522,1.6522,1.6522,1.6522,1.6522,1.6522,1.6522,1.6522,1.6522,1.6522,1.6522,1.6522,1.6522,1.6522,1.6522,1.6522,1.6522,1.6522,1.6522,1.6522,1.6522,1.6873,1.7099,1.6622,1.6886,1.7099,1.6609,1.6522,1.6522,1.6522,0.0,0.0,0.0,0.0,0.0,0.0,0.0,0.0,0.0,0.0,1.5477,0.0,0.0,0.0,0.0,0.0,0.0,0.0,0.0,0.0,0.0,1.6102,0.0,0.0,0.0,1.8634,1.9522,1.9623,1.971,1.9798,1.9798,1.9798,1.9798,1.9798,2.0125,2.0706,2.0605,2.123,2.2372,2.2865,2.3427,2.3803,2.3427,2.3617,2.3993,2.4017,0.0,0.0,0.0,0.0,0.0,0.0,2.3636,2.3444,2.1903,2.1839,2.1729,2.1073,2.2196,2.2603,2.1567,2.2456,2.2602,2.1487,2.0426,1.9296,1.8154,1.7087,1.6522,1.6522,1.6522,1.6522,1.6522,0.0,0.0,1.6522,1.6522,1.6522,1.6522,1.6522,1.6522,0.0,0.0,0.0,1.6522,1.6522,1.6522,1.6522,1.6522,1.6522,1.6522,1.6522,1.6522,1.6522,1.6522,1.6522,1.6522,1.6522,1.6522,1.6522,1.6522,1.6522,1.6522,1.6522,1.6522,1.6522,1.6522,1.6722,1.6861,1.6584,1.6735,1.6861,1.6572,1.6522,1.6522,1.6522,1.6522,0.0,0.0,0.0,0.0,0.0,0.0,0.0,0.0,0.0,0.0,0.0,0.0,0.0,0.0,0.0,0.0,0.0,0.0,0.0,0.0,0.0,0.0,0.0,0.0,0.0,1.9409,1.9673,1.9798,1.9798,1.9798,1.9962,2.0238,1.9936,2.0464,2.1543,2.1832,2.2096,2.2372,2.2865,2.3314,2.359,2.3891,2.4356,2.4705,0.0,2.492,0.0,0.0,2.5188,0.0,2.5261,2.5884,2.5592,2.3438,2.2839,2.2488,2.2048,2.2763,2.2838,2.1714,2.2347,2.2201,2.0974,2.0225,1.8957,1.7061,1.6685,1.6522,1.6522,1.6522,1.6522,0.0,0.0,0.0,0.0,1.6948,1.6886,0.0,0.0,0.0,0.0,0.0,1.6552,1.668,1.6552,1.6552,1.668,1.6552,1.6522,1.6522,1.6522,1.6522,1.6522,1.6522,1.6522,1.6522,1.6522,1.6522,1.6522,1.6522,1.6522,1.6522,1.6522,1.6522,1.6522,1.6522,1.6609,1.6697,1.6697,1.6697,1.6697,1.6697,1.6609,1.6522,1.6522,1.6522,0.0,0.0,0.0,0.0,0.0,0.0,0.0,0.0,0.0,0.0,1.5906,0.0,0.0,0.0,0.0,0.0,0.0,0.0,0.0,0.0,0.0,1.799,1.7903,0.0,1.9434,1.9384,1.966,1.9798,1.9798,1.9798,2.0125,2.0693,2.0188,2.0865,2.2347,2.2912,2.2874,2.2523,2.2962,2.3215,2.3528,2.4356,2.487,2.5096,0.0,0.0,0.0,0.0,0.0,0.0,2.5734,2.5747,2.548,2.4837,2.4748,2.4051,2.218,2.2772,2.2805,2.1561,2.1543,2.1443,2.0924,2.0225,1.9409,1.8543,1.7225,1.6522,1.6522,1.6522,1.6522,0.0,0.0,1.8041,0.0,0.0,0.0,0.0,0.0,0.0,0.0,1.6522,1.6795,1.7188,1.671,1.6795,1.7146,1.668,1.6522,1.6522,1.6522,1.6522,1.6522,1.6522,1.6522,1.6522,1.6522,1.6522,1.6522,1.6522,1.6522,1.6522,1.6522,1.6522,1.6522,1.6522,1.6911,1.73,1.73,1.73,1.73,1.73,1.6886,1.6522,1.6522,1.6522,1.6522,0.0,0.0,0.0,0.0,0.0,1.7034,1.6552,0.0,0.0,0.0,1.6446,0.0,0.0,1.5969,0.0,0.0,0.0,0.0,1.73,0.0,1.8141,1.956,1.8756,1.9083,2.0501,2.0024,1.9798,1.9798,1.9798,2.0125,2.0718,2.0655,2.1242,2.2347,2.2912,2.304,2.3002,2.3053,2.3766,2.4607,2.4217,2.5021,2.6226,0.0,0.0,0.0,0.0,0.0,0.0,0.0,2.7608,2.7203,2.6074,2.5265,2.4541,2.3793,2.3695,2.3154,2.1896,2.1374,2.0903,2.03,1.956,1.8932,1.843,1.7614,1.6974,1.6522,1.6522,1.6522,0.0,0.0,0.0,0.0,0.0,0.0,0.0,0.0,1.7438,1.7501,1.7503,1.7652,1.7784,1.7219,1.7118,1.7229,1.671,1.6522,1.6522,1.6522,1.6522,1.6522,1.6522,1.6522,1.6522,1.6522,1.6522,1.6522,1.6522,1.6522,1.6522,1.6522,1.6522,1.6522,1.6522,1.6685,1.6961,1.73,1.7388,1.7388,1.7388,1.6923,1.6522,1.6522,1.6522,1.6522,0.0,0.0,0.0,0.0,0.0,0.0,1.6951,0.0,1.7118,0.0,0.0,0.0,0.0,0.0,0.0,0.0,0.0,0.0,1.7375,0.0,1.7652,1.9321,1.8593,1.8857,2.015,1.9911,1.9798,1.9811,2.0162,2.0627,2.1204,2.1857,2.2209,2.2347,2.2912,2.3339,2.3653,2.3653,2.413,2.4833,2.4921,2.5372,2.5963,2.9176,0.0,2.8398,0.0,2.9126,2.8637,2.8875,2.8761,2.8188,2.6859,2.5627,2.4747,2.4558,2.4041,2.3376,2.2389,2.1387,2.0702,2.0326,1.9359,1.8568,1.8053,1.7714,0.0,1.6534,1.6522,1.6522,1.6522,1.7488,0.0,0.0,0.0,0.0,0.0,1.779,1.8071,1.8456,1.8296,1.8382,1.8627,1.784,1.7626,1.7706,1.7146,1.6982,1.702,1.702,1.6891,1.6773,1.6773,1.6773,1.6735,1.6572,1.6522,1.6547,1.6722,1.6773,1.681,1.6974,1.7011,1.7011,1.7011,1.7011,1.7162,1.7739,1.7739,1.7705,1.7862,1.7565,1.7281,1.7281,1.7109,1.6909,1.6752,0.0,0.0,0.0,0.0,0.0,0.0,1.7544,1.7666,1.8066,1.7747,0.0,0.0,0.0,0.0,0.0,0.0,0.0,0.0,0.0,0.0,0.0,1.8643,1.8894,1.9798,1.9798,1.9886,2.0075,2.0815,2.1368,2.1782,2.2723,2.2912,2.2585,2.2915,2.3477,2.4004,2.4004,2.4431,2.5096,2.546,2.5699,2.5912,2.9779,2.9767,2.9767,2.9792,2.9779,2.9614,2.8991,2.8486,2.791,2.7385,2.5832,2.4608,2.4042,2.3489,2.3078,2.3065,2.1619,2.0891,2.143,1.9936,1.8606,0.0,0.0,1.7112,1.6522,1.6522,1.6522,1.6522,0.0,0.0,1.7413,0.0,1.8719,1.8216,1.8769,1.9006,1.9046,1.8447,1.8836,1.9775,1.8553,1.8419,1.8817,1.8302,1.8126,1.8166,1.8166,1.7828,1.7375,1.7375,1.7375,1.7275,1.6697,1.6522,1.6635,1.72,1.7375,1.7488,1.8041,1.8191,1.8191,1.8191,1.8191,1.8329,1.8882,1.8581,1.8367,1.895,1.9076,1.9072,1.9072,1.8547,1.7907,1.7394,0.0,0.0,0.0,0.0,0.0,1.8145,1.8106,1.8106,1.8106,1.8106,0.0,0.0,0.0,0.0,0.0,0.0,0.0,1.7388,1.7903,0.0,1.897,1.897,1.9284,1.9798,1.9798,2.01,2.0743,2.1794,2.2297,2.2334,2.2827,2.3078,2.3065,2.3078,2.3477,2.4004,2.4004,2.4644,2.5586,2.5598,2.5963,2.6521,2.9792,2.9792,2.9792,2.9792,2.9465,2.9025,2.8424,2.7913,2.7222,2.6255,2.5388,2.4608,2.4029,2.315,2.2322,0.0,2.1041,2.0577,0.0,1.951,1.8332,1.6923,1.72,1.7112,1.6522,1.6522,1.6522,1.6522,0.0,0.0,0.0,1.8304,1.8581,1.8769,1.8895,1.9453,2.025,2.0038,2.0406,2.1068,2.0298,2.0122,2.0203,1.9656,1.9487,1.9451,1.8999,1.8687,1.85,1.8091,1.7932,1.7932,1.7738,1.7651,1.7702,1.789,1.794,1.7978,1.8154,1.8204,1.8204,1.8204,1.8204,1.8437,1.9451,1.9887,2.0111,2.0279,1.9679,1.9086,1.9086,1.8547,1.8027,1.7867,1.7827,0.0,0.0,0.0,0.0,1.8574,1.865,1.8779,0.0,1.8855,0.0,0.0,0.0,0.0,0.0,0.0,0.0,0.0,1.7752,0.0,1.9547,1.9158,1.9284,1.9811,2.02,2.0878,2.1794,2.2146,2.2523,2.2874,2.3002,2.3078,2.3078,2.3078,2.3477,2.4042,2.4406,2.4983,2.5649,2.6038,2.637,2.6533,2.9792,2.9792,2.9792,2.9792,2.9338,2.8712,2.8176,2.7703,2.6968,2.5729,2.5234,2.4734,2.4054,2.2799,0.0,2.1437,2.0778,2.0363,2.0439,1.9472,1.8568,1.779,1.7576,1.7275,1.6861,1.7049,0.0,1.6848,1.7413,1.7865,1.8204,1.8417,1.8694,1.9032,1.947,2.0221,2.1121,2.1149,2.1481,2.2016,2.143,2.1208,2.1167,2.0822,2.0699,2.0639,2.0216,1.9948,1.9714,1.932,1.9184,1.9205,1.9199,1.9343,1.9404,1.87,1.8518,1.8555,1.8756,1.8807,1.8855,1.9086,1.9182,1.9403,2.0388,2.1125,2.1566,2.1566,2.0784,2.0081,2.0081,1.9312,1.8612,1.8419,1.8302,1.8185,1.8106,0.0,0.0,0.0,0.0,0.0,0.0,1.9406,1.9043,0.0,0.0,0.0,0.0,0.0,0.0,1.8179,1.8078,0.0,1.9497,1.9597,1.9811,2.0137,2.0916,2.1644,2.2322,2.2523,2.2811,2.3078,2.3078,2.3078,2.3078,2.3078,2.359,2.4343,2.4695,2.5272,2.5963,2.6327,2.6533,2.6533,2.9792,2.9792,2.9792,0.0,2.9245,0.0,2.8237,2.7826,2.7064,2.5747,2.5441,2.4946,2.4042,2.2472,2.1681,2.2159,0.0,0.0,0.0,1.9748,1.907,1.9698,1.843,1.7626,1.7438,1.794,1.7953,1.7438,1.7953,1.8229,1.8279,1.8794,1.8995,1.9108,2.0276,2.1113,2.1716,2.1735,2.2148,2.2724,2.2069,2.1829,2.1829,2.1829,2.1845,2.183,2.1772,2.1464,2.1046,2.0959,2.0973,2.0955,2.0959,2.1287,2.1363,1.969,1.9169,1.927,1.9813,1.994,2.0093,2.0696,2.0894,2.1077,2.1663,2.23,2.274,2.274,2.223,2.1769,2.1769,2.0662,1.9604,1.9116,1.9347,1.9332,1.8341,0.0,0.0,0.0,0.0,0.0,0.0,1.969,1.9705,0.0,0.0,0.0,0.0,0.0,1.839,1.8267,1.8843,1.9095,1.9145,2.0188,2.0819,2.0907,2.1882,2.241,2.2498,2.3012,2.319,2.319,2.3153,2.3128,2.3128,2.3128,2.3816,2.477,2.4845,2.5498,2.6471,2.6508,2.6533,2.6533,0.0,0.0,2.9792,2.9792,2.8948,2.8311,2.8558,2.7553,2.6312,2.5148,2.4696,2.4205,2.3427,2.2234,2.138,2.1079,2.0288,1.9911,2.0175,1.9786,1.9371,1.8982,1.8794,1.848,1.8028,1.8141,1.8141,1.8003,1.8141,1.8417,1.8783,1.892,1.9246,1.9623,2.0445,2.1113,2.1744,2.2249,2.2834,2.337,2.3206,2.3146,2.3146,2.3146,2.315,2.3097,2.2613,2.2388,2.2212,2.1696,2.151,2.1514,2.149,2.1608,2.1622,2.1213,2.1077,2.1104,2.1239,2.1232,2.128,2.1472,2.1866,2.2267,2.2452,2.2965,2.3377,2.3377,2.2897,2.2443,2.2443,2.1365,2.043,2.0302,1.9633,1.9132,1.9281,1.9207,0.0,0.0,1.9603,1.969,1.969,1.969,1.9738,0.0,0.0,0.0,0.0,2.0686,2.018,1.8857,1.9832,2.0334,2.0275,2.0953,2.1719,2.2548,2.2811,2.3389,2.423,2.4356,2.4431,2.4393,2.3979,2.3791,2.3791,2.3791,2.3954,2.4268,2.5096,2.5573,2.585,2.6302,2.6533,2.6533,2.9409,2.9397,2.9349,2.9089,2.836,2.7963,2.8125,2.7231,2.5996,2.4668,2.3596,2.2924,2.2774,2.1782,2.0991,2.0743,2.0137,1.9798,1.9798,1.9798,1.9623,1.9221,1.9321,1.9246,1.8945,1.8932,1.8932,1.8932,1.8932,1.9083,1.9384,1.9384,1.9535,1.985,2.0769,2.139,2.1771,2.3043,2.3747,2.4088,2.4403,2.4522,2.4477,2.4178,2.4073,2.3985,2.3349,2.3098,2.3054,2.2702,2.257,2.2637,2.2906,2.2831,2.2618,2.2919,2.2405,2.1766,2.2056,2.1917,2.1744,2.21,2.262,2.3098,2.3098,2.3377,2.3595,2.3595,2.3101,2.2724,2.2724,2.1844,2.1066,2.0767,2.0404,2.0088,1.9832,2.0,0.0,2.023,2.0474,2.0602,2.0602,2.0602,2.0623,2.0705,2.128,0.0,2.1713,2.2561,2.2136,2.0232,2.0798,2.1089,2.1096,2.1845,2.2673,2.3527,2.3791,2.423,2.482,2.482,2.482,2.4808,2.4506,2.4381,2.4381,2.4381,2.4519,2.4782,2.5372,2.5762,2.6025,2.6352,2.6533,2.6533,2.9018,2.8954,2.8872,2.8222,2.7853,2.7656,2.7677,2.7023,2.5887,2.428,2.256,2.1644,2.2058,2.1242,2.068,2.0592,2.0087,1.9798,1.9798,1.9798,1.9798,1.9798,1.9798,1.9798,1.9798,1.9798,1.9798,1.9798,1.9798,1.9849,1.9924,1.9849,1.9899,2.0101,2.1211,2.1808,2.211,2.3839,2.4625,2.4776,2.539,2.5615,2.5555,2.4986,2.4731,2.4702,2.4118,2.3909,2.3909,2.3909,2.3909,2.3999,2.4597,2.4373,2.4014,2.4597,2.3572,2.2418,2.2881,2.267,2.24,2.2853,2.3393,2.3729,2.3625,2.3595,2.3595,2.3595,2.3176,2.2858,2.2858,2.2278,2.1665,2.1096,2.1395,2.1327,2.0317,0.0,2.152,2.1085,2.1425,2.1695,2.1695,2.1784,2.1874,2.1979,2.26,2.3033,2.312,2.4187,2.3956,2.2086,2.1988,2.1906,2.187,2.2799,2.359,2.4243,2.4707,2.4983,2.5071,2.5071,2.5071,2.5059,2.4971,2.4946,2.4946,2.4946,2.5197,2.5598,2.5686,2.6025,2.6533,2.6533,2.6584,2.6647,2.9038,2.9326,2.9327,2.8252,2.8081,2.8035,2.8036,2.7156,2.5699,2.3516,2.2246,2.1405,2.1124,2.0865,2.0464,1.9974,1.9849,1.9798,1.9798,1.9798,1.9798,1.9798,1.9798,1.9798,1.9798,1.9798,1.9798,1.9798,1.9798,2.0049,2.0567,2.0037,2.0313,2.1259,2.1485,2.2248,2.3363,2.4148,2.4901,2.5465,2.557,2.5615,2.56,2.5495,2.545,2.5435,2.533,2.53,2.53,2.53,2.53,2.5315,2.542,2.5375,2.5315,2.542,2.5235,2.4887,2.4443,2.465,2.4858,2.4416,2.4388,2.4313,2.3729,2.3595,2.3595,2.3595,2.352,2.346,2.346,2.2951,2.2488,2.2398,2.1994,2.161,2.1426,0.0,2.1655,2.16,2.1655,2.1695,2.1695,2.2203,2.2742,2.3266,2.394,2.4566,2.5131,2.5296,2.4958,2.4024,2.3946,2.3838,2.3602,2.3778,2.4368,2.5347,2.5435,2.5737,2.6214,2.6214,2.6214,2.6176,2.5686,2.5473,2.5473,2.5473,2.5523,2.5649,2.6138,2.6445,2.6533,2.6533,2.6753,2.7155,2.8934,2.9,2.8821,2.7506,2.7252,2.725,2.725,2.5772,2.4305,2.3215,2.2171,2.143,2.1255,2.0614,2.0243,2.0321,2.0446,2.0446,2.0359,2.0003,1.9798,1.9798,1.9798,1.9798,1.9798,2.0112,2.0112,1.9798,2.0413,2.069,2.0718,2.069,2.0991,2.1524,2.2313,2.3019,2.3668,2.5055,2.5819,2.6168,2.6527,2.6662,2.6632,2.6273,2.6138,2.6093,2.5734,2.5615,2.5615,2.5615,2.5615,2.5674,2.6019,2.5899,2.5674,2.6033,2.6138,2.5989,2.533,2.563,2.5974,2.5315,2.5151,2.4971,2.4298,2.4148,2.4044,2.367,2.3595,2.3595,2.3595,2.337,2.3071,2.2727,2.2697,0.0,0.0,2.2832,2.3146,2.2772,2.3355,2.367,2.331,2.3864,2.4373,2.4657,2.53,2.5809,2.6123,2.6441,2.6623,2.6659,2.5135,2.4452,2.4571,2.4854,2.5231,2.5598,2.5912,2.6201,2.6533,2.6533,2.6533,2.6508,2.6176,2.6063,2.6063,2.6063,2.6063,2.6088,2.642,2.6533,2.6559,2.6791,2.7067,2.7318,2.8864,2.8812,2.8433,2.6804,2.6533,2.6533,2.6533,2.4569,2.3078,2.3078,2.2096,2.1448,2.169,2.0729,2.0258,2.0845,2.1077,2.1224,2.1175,2.0446,1.9952,1.9798,1.9924,1.9999,1.9999,2.0439,2.0501,2.0188,2.0941,2.1204,2.1054,2.1355,2.1731,2.2196,2.3125,2.3826,2.4371,2.5929,2.6664,2.6856,2.7415,2.7625,2.7515,2.7006,2.6811,2.6752,2.6243,2.6063,2.6063,2.6063,2.6063,2.6153,2.6662,2.6467,2.6168,2.6677,2.6811,2.6707,2.6198,2.6437,2.6662,2.6004,2.5839,2.5674,2.5016,2.4686,2.4522,2.4148,2.3939,2.3879,2.4044,2.4059,2.3864,2.3236,0.0,0.0,0.0,2.3999,2.4492,2.4118,2.4971,2.542,2.4866,2.545,2.5839,2.5839,2.6437,2.6811,2.6811,2.7455,2.8128,2.8801,2.6343,2.5143,2.5485,2.572,2.5794,2.5799,2.6251,2.6533,2.6533,2.6533,2.6533,2.6533,2.6533,2.6533,2.6533,2.6533,2.6596,2.6722,2.6722,2.6728,2.6892,2.7318,2.7557,2.772,2.8864,2.9284,2.9072,2.6904,2.6533,2.6533,2.6533,2.4569,2.3078,2.3078,2.1825,2.131,2.2228,2.1392,2.0845,2.1042,2.1438,2.1805,2.2267,2.1321,2.0459,1.985,2.0313,2.0655,2.0655,2.0693,2.0891,2.1355,2.0941,2.123,2.2184,2.1707,2.2419,2.4076,2.3622,2.4504,2.6313,2.6409,2.6909,2.755,2.7595,2.7625,2.756,2.7565,2.755,2.755,2.744,2.7475,2.7475,2.7475,2.7475,2.749,2.7535,2.7505,2.749,2.7535,2.755,2.7535,2.749,2.7505,2.7385,2.6677,2.6512,2.6348,2.5689,2.5076,2.4746,2.5345,2.4971,2.4701,2.5345,2.545,2.5241,2.4597,0.0,0.0,2.4448,2.4522,2.4791,2.539,2.5555,2.5585,2.554,2.6138,2.6512,2.6512,2.7126,2.755,2.755,2.8143,2.8831,2.949,2.7854,2.6938,2.6797,2.6024,2.5892,2.6402,2.6508,2.6533,2.6533,2.6533,2.6533,2.6533,2.6533,2.6533,2.6533,2.6533,2.6766,2.7218,2.7218,2.7532,2.7996,2.8034,2.8373,2.8812,2.9322,2.9048,2.8254,2.6779,2.6533,2.5988,2.4607,2.3678,2.3412,2.4381,2.3329,2.2683,2.3068,2.2825,2.2436,2.2123,2.3583,2.4167,2.3281,2.3201,2.2377,2.0485,2.14,2.1961,2.1961,2.267,2.2964,2.2883,2.2929,2.3162,2.3659,2.3385,2.3857,2.5007,2.5204,2.5774,2.651,2.6982,2.7357,2.7625,2.7625,2.7625,2.7625,2.7625,2.7625,2.7625,2.7625,2.7625,2.7625,2.7625,2.7625,2.7625,2.7625,2.7625,2.7625,2.7625,2.7625,2.7625,2.7625,2.7625,2.7565,2.726,2.72,2.7021,2.6363,2.6019,2.5794,2.5644,2.542,2.5315,2.5555,2.5615,2.5525,2.527,0.0,2.5241,2.5241,2.5585,2.5779,2.563,2.6333,2.6662,2.6258,2.6811,2.72,2.72,2.7829,2.8203,2.8203,2.9205,2.9894,3.0148,2.9464,2.8866,2.841,2.8091,2.7958,2.8051,2.7484,2.7229,2.7229,2.6714,2.6533,2.6533,2.6533,2.6533,2.6559,2.6829,2.7092,2.7318,2.7657,2.7921,2.8147,2.8486,2.875,2.8976,2.9212,2.8369,2.7356,2.6659,2.6533,2.5711,2.3477,2.3078,2.3577,2.4993,2.4176,2.3676,2.4152,2.4092,2.3918,2.3635,2.5112,2.5577,2.4385,2.4751,2.3983,2.1816,2.2697,2.3266,2.3266,2.4083,2.4401,2.4232,2.4299,2.4488,2.4762,2.4705,2.5063,2.5783,2.6283,2.6616,2.6878,2.7408,2.7625,2.7625,2.7625,2.7625,2.7625,2.7625,2.7625,2.7625,2.7625,2.7625,2.7625,2.7625,2.7625,2.7625,2.7625,2.7625,2.7625,2.7625,2.7625,2.7625,2.7625,2.7625,2.7625,2.7625,2.779,2.7769,2.732,2.7215,2.7156,2.6916,2.6692,2.6617,2.6826,2.6856,2.6722,2.6303,2.6228,2.6228,2.6228,2.6437,2.6587,2.6557,2.7156,2.7395,2.6946,2.75,2.7889,2.7889,2.8532,2.8996,2.919,3.0028,3.0612,3.0821,3.0719,3.044,3.0003,2.9502,2.9158,2.9002,2.8363,2.821,2.8384,2.788,2.7524,2.7429,2.7429,2.7234,2.7005,2.7381,2.7645,2.7905,2.8575,2.8756,2.8674,2.9401,2.9479,2.9252,2.8205,2.725,2.6533,2.6533,2.6521,2.5778,2.3464,2.3138,2.3471,2.4469,2.3907,2.3974,2.5363,2.5019,2.4951,2.5553,2.5615,2.563,2.563,2.563,2.5062,2.3766,2.4246,2.4498,2.4498,2.4512,2.483,2.5398,2.4816,2.4844,2.5398,2.5398,2.5783,2.651,2.651,2.693,2.7625,2.7625,2.7625,2.7625,2.7625,2.7625,2.7625,2.7625,2.7625,2.7625,2.7625,2.7625,2.7625,2.7625,2.7625,2.7625,2.7625,2.7625,2.7625,2.7625,2.7625,2.7625,2.7625,2.764,2.7625,2.7625,2.8083,2.8607,2.8607,2.8607,2.8801,2.9445,2.9071,2.8801,2.946,2.9579,2.9146,2.785,2.764,2.764,2.764,2.7021,2.7111,2.8442,2.8008,2.7625,2.7625,2.8203,2.8607,2.8607,2.922,2.9864,3.0477,3.0507,3.0821,3.1452,3.1482,3.1482,3.1482,2.9827,2.9002,2.9016,2.9002,2.9384,3.0044,3.003,2.9833,2.9521,2.9521,2.8983,2.8109,2.8109,2.8436,2.9001,3.0012,3.0154,2.9934,3.0833,3.0633,2.9792,2.9056,2.7615,2.6533,2.6533,2.8427,2.9154,2.6626,2.6162,2.6274,2.6645,2.6044,2.5759,2.6208,2.655,2.6455,2.5689,2.6452,2.6976,2.6976,2.6976,2.6812,2.6432,2.6132,2.595,2.595,2.644,2.6762,2.6916,2.6242,2.6242,2.6916,2.639,2.6549,2.7255,2.7255,2.7675,2.8293,2.8293,2.8293,2.8293,2.8293,2.8293,2.8248,2.7754,2.7874,2.8233,2.779,2.7625,2.7625,2.7625,2.7625,2.7625,2.7625,2.7625,2.7715,2.8143,2.8293,2.8382,2.8861,2.8981,2.8757,2.7865,2.8083,2.8607,2.8607,2.8951,2.934,2.9549,2.943,2.934,2.9549,2.9579,2.9445,2.9056,2.8981,2.8981,2.8981,2.8816,2.8831,2.9235,2.9116,2.8801,2.8338,2.8891,2.9101,2.8637,2.9609,3.0522,3.1195,3.1225,3.1315,3.1467,3.1988,3.2213,3.2213,3.125,3.0997,3.1436,3.084,3.0905,3.1532,3.0932,3.0632,3.0528,3.0528,3.0392,3.0159,3.0578,3.0778,3.098,3.1684,3.1884,3.1829,3.2105,3.1609,3.0758,3.0037,2.8787,2.7973,2.8427,3.0133,3.0753,2.838,2.8004,2.7894,2.7924,2.7297,2.7006,2.7375,2.7739,2.7649,2.6871,2.7754,2.8263,2.7993,2.7979,2.7859,2.7625,2.7186,2.6976,2.6976,2.7415,2.7625,2.7625,2.7152,2.7284,2.7979,2.727,2.7284,2.7979,2.7979,2.8203,2.8622,2.8876,2.8996,2.8966,2.8712,2.8607,2.8532,2.7844,2.7829,2.8143,2.7775,2.7625,2.7625,2.7625,2.7625,2.767,2.7889,2.7784,2.7754,2.8712,2.8801,2.8742,2.94,2.9579,2.9385,2.8562,2.8861,2.9355,2.9355,2.9879,3.0357,3.0357,3.0357,3.0357,3.0357,3.0357,3.0253,2.9998,2.9953,2.9953,2.9953,2.9729,2.9669,2.9924,2.9729,2.943,2.9026,2.9564,2.9894,2.9774,3.0717,3.148,3.1898,3.2168,3.2302,3.2302,3.2691,3.2901,3.2901,3.2497,3.2512,3.2901,3.2355,3.2478,3.3059,3.2594,3.2302,3.2196,3.2196,3.1994,3.1681,3.1972,3.2124,3.2166,3.2877,3.2961,3.2664,3.3031,3.2522,3.1742,3.1304,3.0563,3.0286,3.1336,3.1482,3.0923,2.9102,2.8857,2.8771,2.8524,2.8045,2.7929,2.8629,2.8682,2.8682,2.8682,2.9235,2.9325,2.8727,2.8682,2.8382,2.7694,2.7715,2.7634,2.7625,2.7685,2.7715,2.7715,2.7715,2.8008,2.8667,2.7979,2.8038,2.8682,2.8682,2.8727,2.8801,2.94,2.9669,2.9609,2.9011,2.8771,2.8697,2.8008,2.7835,2.7829,2.782,2.7805,2.7805,2.7805,2.7805,2.791,2.8487,2.8248,2.8008,2.9295,2.925,2.8921,2.9579,2.9759,2.9759,2.9759,3.0223,3.0672,3.0612,3.1091,3.1497,3.1556,3.1511,3.1497,3.1556,3.1556,3.1435,3.0866,3.0776,3.0746,3.0687,3.0208,3.0028,3.0537,3.0103,2.9729,2.9669,3.0223,3.0911,3.1644,3.2258,3.2602,3.2602,3.317,3.3499,3.3499,3.3559,3.3589,3.3589,3.3649,3.3649,3.3589,3.3589,3.3933,3.4562,3.4562,3.4395,3.4095,3.4095,3.3671,3.289,3.289,3.289,3.2961,3.3808,3.3602,3.2961,3.3808,3.3533,3.2749,3.3735,3.2315,3.1204,3.1467,3.1482,3.1111,3.0048,3.0033,2.9915,2.9406,2.9213,2.9193,2.937,2.937,2.937,2.937,2.9505,2.952,2.937,2.937,2.9071,2.8412,2.8368,2.8128,2.7625,2.8098,2.8368,2.8368,2.8368,2.8727,2.9355,2.8682,2.8727,2.937,2.937,2.9639,3.0103,3.0238,3.0298,3.0298,3.0148,3.0088,3.0013,2.9385,2.9445,2.9804,2.9325,2.9146,2.9146,2.9146,2.9146,2.9175,2.9325,2.9265,2.9295,3.0073,3.0193,3.0238,3.0926,3.1106,3.1106,3.1106,3.1599,3.1943,3.142,3.1377,3.1616,3.2198,3.1898,3.1631,3.2213,3.2302,3.2422,3.2781,3.2841,3.2662,3.2153,3.1958,3.1749,3.136,3.1195,3.0896,3.0357,3.0911,3.1809,3.2976,3.32,3.3275,3.3275,3.3425,3.3499,3.3499,3.3993,3.4262,3.4262,3.4801,3.4801,3.4262,3.4262,3.4622,3.528,3.528,3.5225,3.5198,3.5198,3.5067,3.4854,3.4854,3.4854,3.492,3.5067,3.5067,3.492,3.5067,3.4543,3.3602,3.4547,3.3395,3.2362,3.2063,3.1676,3.1317,3.0869,3.0926,3.0881,3.0552,3.0223,3.0028,3.0028,3.0028,3.0163,3.0492,3.0507,3.0372,3.0043,3.0028,2.9729,2.9101,2.9071,2.8891,2.8532,2.9175,2.9205,2.8607,2.8921,2.94,3.0013,2.937,2.9415,3.0028,3.0028,3.0193,3.0522,3.0851,3.1001,3.0971,3.0642,3.0507,3.0432,2.9819,2.9789,3.0028,2.9699,2.9579,2.9579,2.9579,2.9579,2.9624,2.9924,2.9819,2.9819,3.1091,3.1016,3.0791,3.2108,3.2243,3.2078,3.2392,3.2721,3.2721,3.1764,3.2018,3.2482,3.2497,3.2497,3.2572,3.2916,3.2976,3.3095,3.344,3.3499,3.338,3.3036,3.2976,3.2856,3.2512,3.2467,3.2332,3.1973,3.2258,3.2751,3.344,3.3784,3.3963,3.3963,3.4277,3.4457,3.4457,3.4786,3.4966,3.4966,3.5325,3.5325,3.4966,3.4966,3.516,3.5504,3.5504,3.5504,3.5504,3.5504,3.5504,3.5504,3.5504,3.5504,3.5504,3.5504,3.5504,3.5504,3.5504,3.5133,3.4624,3.4756,3.4113,3.3455,3.2796,3.2138,3.1601,3.1497,3.1482,3.1482,3.1482,3.1031,3.0672,3.0672,3.0672,3.0911,3.1422,3.1482,3.1228,3.0717,3.0672,3.0402,2.9759,2.9744,2.9684,2.9579,3.0193,2.9983,2.8921,2.9475,3.0058,3.0672,3.0028,3.0073,3.0672,3.0672,3.0672,3.0717,3.1228,3.1482,3.1422,3.0911,3.0672,3.0627,3.0118,2.9909,2.9909,2.9909,2.9909,2.9909,2.9909,2.9909,2.9998,3.0507,3.0402,3.0402,3.2033,3.1809,3.1375,3.3051,3.3095,3.2811,3.3365,3.3589,3.335,3.2138,3.2706,3.3365,3.2946,3.3185,3.3529,3.3649,3.3664,3.3709,3.3814,3.3844,3.3799,3.3679,3.3664,3.3619,3.3499,3.3499,3.3544,3.3649,3.3664,3.3709,3.3829,3.4337,3.4651,3.4651,3.519,3.5504,3.5504,3.5504,3.5504,3.5504,3.5504,3.5504,3.5504,3.5504,3.5504,3.5504,3.5504,3.5504,3.5504,3.5504,3.5504,3.5504,3.5504,3.5504,3.5504,3.5504,3.5504,3.5504,3.5504,3.5504,3.5504,3.5385,3.4816,3.4128,3.3484,3.2826,3.2198,3.1556,3.1482,3.1482,3.1482,3.1392,3.1332,3.1332,3.1332,3.1377,3.1467,3.1482,3.1437,3.1405,3.1332,3.1091,3.0417,3.0372,3.0118,2.9594,3.0193,3.0417,3.0238,3.0328,3.0731,3.1317,3.0702,3.0746,3.1332,3.1332,3.1332,3.1405,3.1437,3.1482,3.1467,3.1377,3.1332,3.139,3.1243,3.127,3.127,3.127,3.127,3.127,3.127,3.127,3.1285,3.1317,3.1734,3.2168,3.2437,3.2781,3.314,3.3425,3.3425,3.338,3.3469,3.3918,3.4143,3.3395,3.3365,3.3634,3.4113,3.3829,3.3664,3.4247,3.4337,3.4532,3.5145,3.5235,3.5026,3.4427,3.4337,3.4128,3.3559,3.3499,3.3724,3.4292,3.4337,3.4592,3.519,3.531,3.537,3.537,3.5459,3.5504,3.5504,3.5504,3.5504,3.5504,3.5504,3.5504,3.5504,3.5504,3.5504,3.5504,3.5504,3.5504,3.5504,3.5504,3.5504,3.5504,3.5504,3.5504,3.5504,3.5504,3.5504,3.5504,3.5504,3.5504,3.5504,3.5504,3.4951,3.4382,3.4098,3.32,3.2422,3.2123,3.1764,3.1482,3.1482,3.1482,3.1482,3.1482,3.1482,3.1482,3.1482,3.1482,3.1482,3.1482,3.1482,3.1405,3.1091,3.1076,3.112,3.1225,3.112,3.1255,3.1629,3.1255,3.124,3.1467,3.1225,3.124,3.1482,3.1482,3.1482,3.1482,3.1482,3.1482,3.1482,3.1482,3.1482,3.1482,3.1482,3.1482,3.1482,3.1482,3.1482,3.1541,3.1958,3.2078,3.2138,3.2512,3.2826,3.314,3.3499,3.3559,3.3664,3.4412,3.4337,3.4143,3.4517,3.4831,3.4981,3.4681,3.4622,3.4592,3.4502,3.4547,3.4711,3.4996,3.5055,3.516,3.5459,3.5504,3.54,3.51,3.5055,3.4936,3.4651,3.4622,3.4726,3.5026,3.5055,3.5175,3.5489,3.5504,3.5504,3.5504,3.5504,3.5504,3.5504,3.5504,3.5504,3.5504,3.5504,3.5504,3.5504,3.5504,3.5504,3.5504,3.5504,3.5504,3.5504,3.5504,3.5504,3.5504,3.5504,3.5504,3.5504,3.5504,3.5504,3.5504,3.5504,3.5504,3.5504]}]]